[[{"header":{"parameterUnit":"m.s-1","parameterCategory":1,"la1":31.0,"la2":29.5877,"lo1":-88.7671,"lo2":-86.6584,"dy":0.0162,"dx":0.0185,"nx":115,"ny":88,"refTime":"2026-03-04T00:00:00:Z","depth":0,"parameterNumber":2,"parameterNumberName":"U-component_of_WINDS"},"data":[0.0,0.0,0.0,0.0,0.0,0.0,0.0,0.0,0.0,0.0,0.0,0.0,0.0,0.0,0.0,0.0,0.0,0.0,0.0,0.0,0.0,0.0,0.0,0.0,0.0,0.0,0.0,0.0,0.0,0.0,0.0,0.0,0.0,0.0,0.0,0.0,0.0,0.0,0.0,0.0,0.0,0.0,0.0,0.0,0.0,0.0,0.0,0.0,0.0,0.0,0.0,0.0,0.0,0.0,0.0,0.0,0.0,0.0,0.0,0.0,0.0,0.0,0.0,0.0,0.0,0.0,0.0,0.0,0.0,0.0,0.0,0.0,0.0,0.0,0.0,0.0,0.0,0.0,0.0,0.0,0.0,0.0,0.0,0.0,0.0,0.0,0.0,0.0,0.0,0.0,0.0,0.0,0.0,0.0,0.0,0.0,0.0,0.0,0.0,0.0,0.0,0.0,0.0,0.0,0.0,0.0,0.0,0.0,0.0,0.0,0.0,0.0,0.0,0.0,0.0,0.0,0.0,0.0,0.0,0.0,0.0,0.0,0.0,0.0,0.0,0.0,0.0,0.0,0.0,0.0,0.0,0.0,0.0,0.0,0.0,0.0,0.0,0.0,0.0,0.0,0.0,0.0,0.0,0.0,0.0,0.0,0.0,0.0,0.0,0.0,0.0,0.0,0.0,0.0,0.0,0.0,0.0,0.0,0.0,0.0,0.0,0.0,0.0,0.0,0.0,0.0,0.0,0.0,0.0,0.0,0.0,0.0,0.0,0.0,0.0,0.0,0.0,0.0,0.0,0.0,0.0,0.0,0.0,0.0,0.0,0.0,0.0,0.0,0.0,0.0,0.0,0.0,0.0,0.0,0.0,0.0,0.0,0.0,0.0,0.0,0.0,0.0,0.0,0.0,0.0,0.0,0.0,0.0,0.0,0.0,0.0,0.0,0.0,0.0,0.0,0.0,0.0,0.0,0.0,0.0,0.0,0.0,0.0,0.0,0.0,0.0,0.0,0.0,0.0,0.0,0.0,0.0,0.0,0.0,0.0,0.0,0.0,0.0,0.0,0.0,0.0,0.0,0.0,0.0,0.0,0.0,0.0,0.0,0.0,0.0,0.0,0.0,0.0,0.0,0.0,0.0,0.0,0.0,0.0,0.0,0.0,0.0,0.0,0.0,0.0,0.0,0.0,0.0,0.0,0.0,0.0,0.0,0.0,0.0,0.0,0.0,0.0,0.0,0.0,0.0,0.0,0.0,0.0,0.0,0.0,0.0,0.0,0.0,0.0,0.0,0.0,0.0,0.0,0.0,0.0,0.0,0.0,0.0,0.0,0.0,0.0,0.0,0.0,0.0,0.0,0.0,0.0,0.0,0.0,0.0,0.0,0.0,0.0,0.0,0.0,0.0,0.0,0.0,0.0,0.0,0.0,0.0,0.0,0.0,0.0,0.0,0.0,0.0,0.0,0.0,0.0,0.0,0.0,0.0,0.0,0.0,0.0,0.0,0.0,0.0,0.0,0.0,0.0,0.0,0.0,0.0,0.0,0.0,0.0,0.0,0.0,0.0,0.0,0.0,0.0,0.0,0.0,0.0,0.0,0.0,0.0,0.0,0.0,0.0,0.0,0.0,0.0,0.0,0.0,0.0,0.0,0.0,0.0,0.0,0.0,0.0,0.0,0.0,0.0,0.0,0.0,0.0,0.0,0.0,0.0,0.0,0.0,0.0,0.0,0.0,0.0,0.0,0.0,0.0,0.0,0.0,0.0,0.0,0.0,0.0,0.0,0.0,0.0,0.0,0.0,0.0,0.0,0.0,0.0,0.0,0.0,0.0,0.0,0.0,0.0,0.0,0.0,0.0,0.0,0.0,0.0,0.0,0.0,0.0,0.0,0.0,0.0,0.0,0.0,0.0,0.0,0.0,0.0,0.0,0.0,0.0,0.0,0.0,0.0,0.0,0.0,0.0,0.0,0.0,0.0,0.0,0.0,0.0,0.0,0.0,0.0,0.0,0.0,0.0,0.0,0.0,0.0,0.0,0.0,0.0,0.0,0.0,0.0,0.0,0.0,0.0,0.0,0.0,0.0,0.0,0.0,0.0,0.0,0.0,0.0,0.0,0.0,0.0,0.0,0.0,0.0,0.0,0.0,0.0,0.0,0.0,0.0,0.0,0.0,0.0,0.0,0.0,0.0,0.0,0.0,0.0,0.0,0.0,0.0,0.0,0.0,0.0,0.0,0.0,0.0,0.0,0.0,0.0,0.0,0.0,0.0,0.0,0.0,0.0,0.0,0.0,0.0,0.0,0.0,0.0,0.0,0.0,0.0,0.0,0.0,0.0,0.0,0.0,0.0,0.0,0.0,0.0,0.0,0.0,0.0,0.0,0.0,0.0,0.0,0.0,0.0,0.0,0.0,0.0,0.0,0.0,0.0,0.0,0.0,0.0,0.0,0.0,0.0,0.0,0.0,0.0,0.0,0.0,0.0,0.0,0.0,0.0,0.0,0.0,0.0,0.0,0.0,0.0,0.0,0.0,0.0,0.0,0.0,0.0,0.0,0.0,0.0,0.0,0.0,0.0,0.0,0.0,0.0,0.0,0.0,0.0,0.0,0.0,0.0,0.0,0.0,0.0,0.0,0.0,0.0,0.0,0.0,0.0,0.0,0.0,0.0,0.0,0.0,0.0,0.0,0.0,0.0,0.0,0.0,0.0,0.0,0.0,0.0,0.0,0.0,0.0,0.0,0.0,0.0,0.0,0.0,0.0,0.0,0.0,0.0,0.0,0.0,0.0,0.0,0.0,0.0,0.0,0.0,0.0,0.0,0.0,0.0,0.0,0.0,0.0,0.0,0.0,0.0,0.0,0.0,0.0,0.0,0.0,0.0,0.0,0.0,0.0,0.0,0.0,0.0,0.0,0.0,0.0,0.0,0.0,0.0,0.0,0.0,0.0,0.0,0.0,0.0,0.0,0.0,0.0,0.0,0.0,0.0,0.0,0.0,0.0,0.0,0.0,0.0,0.0,0.0,0.0,0.0,0.0,0.0,0.0,0.0,0.0,0.0,0.0,0.0,0.0,0.0,0.0,0.0,0.0,0.0,0.0,0.0,0.0,0.0,0.0,0.0,0.0,0.0,0.0,0.0,0.0,0.0,0.0,0.0,0.0,0.0,0.0,0.0,0.0,0.0,0.0,0.0,0.0,0.0,0.0,0.0,0.0,0.0,0.0,0.0,0.0,0.0,0.0,0.0,0.0,0.0,0.0,0.0,0.0,0.0,0.0,0.0,0.0,0.0,0.0,0.0,0.0,0.0,0.0,0.0,0.0,0.0,0.0,0.0,0.0,0.0,0.0,0.0,0.0,0.0,0.0,0.0,0.0,0.0,0.0,0.0,0.0,0.0,0.0,0.0,0.0,0.0,0.0,0.0,0.0,0.0,0.0,0.0,0.0,0.0,0.0,0.0,0.0,0.0,0.0,0.0,0.0,0.0,0.0,0.0,0.0,0.0,0.0,0.0,0.0,0.0,0.0,0.0,0.0,0.0,0.0,0.0,0.0,0.0,0.0,0.0,0.0,0.0,0.0,0.0,0.0,0.0,0.0,0.0,0.0,0.0,0.0,0.0,0.0,0.0,0.0,0.0,0.0,0.0,0.0,0.0,0.0,0.0,0.0,0.0,0.0,0.0,0.0,0.0,0.0,0.0,0.0,0.0,0.0,0.0,0.0,0.0,0.0,0.0,0.0,0.0,0.0,0.0,0.0,0.0,0.0,0.0,0.0,0.0,0.0,0.0,0.0,0.0,0.0,0.0,0.0,0.0,0.0,0.0,0.0,0.0,0.0,0.0,0.0,0.0,0.0,0.0,0.0,0.0,0.0,0.0,0.0,0.0,0.0,0.0,0.0,0.0,0.0,0.0,0.0,0.0,0.0,0.0,0.0,0.0,0.0,0.0,0.0,0.0,0.0,0.0,0.0,0.0,0.0,0.0,0.0,0.0,0.0,0.0,0.0,0.0,0.0,0.0,0.0,0.0,0.0,0.0,0.0,0.0,0.0,0.0,0.0,0.0,0.0,0.0,0.0,0.0,0.0,0.0,0.0,0.0,0.0,0.0,0.0,0.0,0.0,0.0,0.0,0.0,0.0,0.0,0.0,0.0,0.0,0.0,0.0,0.0,0.0,0.0,0.0,0.0,0.0,0.0,0.0,0.0,0.0,0.0,0.0,0.0,0.0,0.0,0.0,0.0,0.0,0.0,0.0,0.0,0.0,0.0,0.0,0.0,0.0,0.0,0.0,-2.404,0.0,0.0,0.0,0.0,0.0,0.0,0.0,0.0,0.0,0.0,0.0,0.0,0.0,0.0,0.0,0.0,0.0,0.0,0.0,0.0,0.0,0.0,0.0,0.0,0.0,0.0,0.0,0.0,0.0,0.0,0.0,0.0,0.0,0.0,0.0,0.0,0.0,0.0,0.0,0.0,0.0,0.0,0.0,0.0,0.0,0.0,0.0,0.0,0.0,0.0,0.0,0.0,0.0,0.0,0.0,0.0,0.0,0.0,0.0,0.0,0.0,0.0,0.0,0.0,0.0,0.0,0.0,0.0,0.0,0.0,0.0,0.0,0.0,0.0,0.0,0.0,0.0,0.0,0.0,0.0,0.0,0.0,0.0,0.0,0.0,0.0,0.0,0.0,0.0,0.0,0.0,0.0,0.0,0.0,0.0,0.0,0.0,0.0,0.0,0.0,0.0,0.0,0.0,0.0,0.0,0.0,0.0,0.0,0.0,0.0,-2.7765,-2.7396,-2.6373,-2.5358,-2.4317,0.0,0.0,0.0,0.0,0.0,0.0,0.0,0.0,0.0,0.0,0.0,0.0,0.0,0.0,0.0,0.0,0.0,0.0,0.0,0.0,0.0,0.0,0.0,0.0,0.0,0.0,0.0,0.0,0.0,0.0,0.0,0.0,0.0,0.0,0.0,0.0,0.0,0.0,0.0,0.0,0.0,0.0,0.0,0.0,0.0,0.0,0.0,0.0,0.0,0.0,0.0,0.0,0.0,0.0,0.0,0.0,0.0,0.0,0.0,0.0,0.0,0.0,0.0,0.0,0.0,0.0,0.0,0.0,0.0,0.0,0.0,0.0,0.0,0.0,0.0,0.0,0.0,0.0,0.0,0.0,0.0,0.0,0.0,0.0,0.0,0.0,0.0,0.0,0.0,0.0,0.0,0.0,0.0,0.0,0.0,0.0,0.0,0.0,0.0,0.0,0.0,0.0,0.0,0.0,0.0,0.0,0.0,0.0,0.0,0.0,0.0,0.0,-2.6934,-2.5857,-2.4348,0.0,0.0,0.0,0.0,0.0,0.0,0.0,0.0,0.0,0.0,0.0,0.0,0.0,0.0,0.0,0.0,0.0,0.0,0.0,0.0,0.0,0.0,0.0,0.0,0.0,0.0,0.0,0.0,0.0,0.0,0.0,0.0,0.0,0.0,0.0,0.0,0.0,0.0,0.0,0.0,0.0,0.0,0.0,0.0,0.0,0.0,0.0,0.0,0.0,0.0,0.0,0.0,0.0,0.0,0.0,0.0,0.0,0.0,0.0,0.0,0.0,0.0,0.0,0.0,0.0,0.0,0.0,0.0,0.0,0.0,0.0,0.0,0.0,0.0,0.0,0.0,0.0,0.0,0.0,0.0,0.0,0.0,0.0,0.0,0.0,0.0,0.0,0.0,0.0,0.0,0.0,0.0,0.0,0.0,0.0,0.0,0.0,0.0,0.0,0.0,0.0,0.0,0.0,0.0,0.0,0.0,0.0,0.0,0.0,0.0,-2.8381,-2.8304,-2.7642,0.0,-2.4389,0.0,0.0,0.0,0.0,0.0,0.0,0.0,0.0,0.0,0.0,0.0,0.0,0.0,0.0,0.0,0.0,0.0,0.0,0.0,0.0,0.0,0.0,0.0,0.0,0.0,0.0,0.0,0.0,0.0,0.0,0.0,0.0,0.0,0.0,0.0,0.0,0.0,0.0,0.0,0.0,0.0,0.0,0.0,0.0,0.0,0.0,0.0,0.0,0.0,0.0,0.0,0.0,0.0,0.0,0.0,0.0,0.0,0.0,0.0,0.0,0.0,0.0,0.0,0.0,0.0,0.0,0.0,0.0,0.0,0.0,0.0,0.0,0.0,0.0,0.0,0.0,0.0,0.0,0.0,0.0,0.0,0.0,0.0,0.0,0.0,0.0,0.0,0.0,0.0,0.0,0.0,0.0,0.0,0.0,0.0,0.0,0.0,0.0,0.0,0.0,0.0,0.0,0.0,0.0,0.0,0.0,0.0,0.0,0.0,0.0,-2.8323,-2.8411,-2.7279,-2.5715,0.0,0.0,0.0,0.0,0.0,0.0,0.0,0.0,0.0,0.0,0.0,0.0,0.0,0.0,0.0,0.0,0.0,0.0,0.0,0.0,0.0,0.0,0.0,0.0,0.0,0.0,0.0,0.0,0.0,0.0,0.0,0.0,0.0,0.0,0.0,0.0,0.0,0.0,0.0,0.0,0.0,0.0,0.0,0.0,0.0,0.0,0.0,0.0,0.0,0.0,0.0,0.0,0.0,0.0,0.0,0.0,0.0,0.0,0.0,0.0,0.0,0.0,0.0,0.0,0.0,0.0,0.0,0.0,0.0,0.0,0.0,0.0,0.0,0.0,0.0,0.0,0.0,0.0,0.0,0.0,0.0,0.0,0.0,0.0,0.0,0.0,0.0,0.0,0.0,0.0,0.0,0.0,0.0,0.0,0.0,0.0,0.0,0.0,0.0,0.0,0.0,0.0,0.0,0.0,0.0,0.0,0.0,0.0,0.0,0.0,-2.7911,0.0,-2.81,-2.6793,-2.5212,-2.3489,0.0,0.0,0.0,0.0,0.0,0.0,0.0,0.0,0.0,0.0,0.0,0.0,0.0,0.0,0.0,0.0,0.0,0.0,0.0,0.0,0.0,0.0,0.0,0.0,0.0,0.0,0.0,0.0,0.0,0.0,0.0,0.0,0.0,0.0,0.0,0.0,0.0,0.0,0.0,0.0,0.0,0.0,0.0,0.0,0.0,0.0,0.0,0.0,0.0,0.0,0.0,0.0,0.0,0.0,0.0,0.0,0.0,0.0,0.0,0.0,0.0,0.0,0.0,0.0,0.0,0.0,0.0,0.0,0.0,0.0,0.0,0.0,0.0,0.0,0.0,0.0,0.0,0.0,0.0,0.0,0.0,0.0,0.0,0.0,0.0,0.0,0.0,0.0,0.0,0.0,0.0,0.0,0.0,0.0,0.0,0.0,0.0,0.0,0.0,0.0,0.0,0.0,0.0,0.0,0.0,0.0,0.0,0.0,0.0,-2.6985,-2.7094,-2.755,-2.6312,-2.5279,0.0,0.0,0.0,0.0,0.0,0.0,0.0,0.0,0.0,0.0,0.0,0.0,0.0,0.0,0.0,0.0,0.0,0.0,0.0,0.0,0.0,0.0,0.0,0.0,0.0,0.0,0.0,0.0,0.0,0.0,0.0,0.0,0.0,0.0,0.0,0.0,0.0,0.0,0.0,0.0,0.0,0.0,0.0,0.0,0.0,0.0,0.0,0.0,0.0,0.0,0.0,0.0,0.0,0.0,0.0,0.0,0.0,0.0,0.0,0.0,0.0,0.0,0.0,0.0,0.0,0.0,0.0,0.0,0.0,0.0,0.0,0.0,0.0,0.0,0.0,0.0,0.0,0.0,0.0,0.0,0.0,0.0,0.0,0.0,0.0,0.0,0.0,0.0,0.0,0.0,0.0,0.0,0.0,0.0,0.0,0.0,0.0,0.0,0.0,0.0,0.0,0.0,0.0,0.0,0.0,0.0,0.0,0.0,0.0,-2.6312,-2.6077,-2.6128,-2.6384,-2.5265,-2.4063,0.0,0.0,0.0,0.0,0.0,0.0,0.0,0.0,0.0,0.0,0.0,0.0,0.0,0.0,0.0,0.0,0.0,0.0,0.0,0.0,0.0,0.0,0.0,0.0,0.0,0.0,0.0,0.0,0.0,0.0,0.0,0.0,0.0,0.0,0.0,0.0,0.0,0.0,0.0,0.0,0.0,0.0,0.0,0.0,0.0,0.0,0.0,0.0,0.0,0.0,0.0,0.0,0.0,0.0,0.0,0.0,0.0,0.0,0.0,0.0,0.0,0.0,0.0,0.0,0.0,0.0,0.0,0.0,0.0,0.0,0.0,0.0,0.0,0.0,0.0,0.0,0.0,0.0,0.0,0.0,0.0,0.0,0.0,0.0,0.0,0.0,0.0,0.0,0.0,0.0,0.0,0.0,0.0,0.0,0.0,0.0,0.0,0.0,0.0,0.0,0.0,0.0,0.0,0.0,0.0,0.0,0.0,0.0,0.0,-2.5296,0.0,-2.5367,0.0,-2.4513,-2.3224,0.0,0.0,0.0,0.0,0.0,0.0,0.0,0.0,0.0,0.0,0.0,0.0,0.0,0.0,0.0,0.0,0.0,0.0,0.0,0.0,0.0,0.0,0.0,0.0,0.0,0.0,0.0,0.0,0.0,0.0,0.0,0.0,0.0,0.0,0.0,0.0,0.0,0.0,0.0,0.0,0.0,0.0,0.0,0.0,0.0,0.0,0.0,0.0,0.0,0.0,0.0,0.0,0.0,0.0,0.0,0.0,0.0,0.0,0.0,0.0,0.0,0.0,0.0,0.0,0.0,0.0,0.0,0.0,0.0,0.0,0.0,0.0,0.0,0.0,0.0,0.0,0.0,0.0,0.0,0.0,0.0,0.0,0.0,0.0,0.0,0.0,0.0,0.0,0.0,0.0,0.0,0.0,0.0,0.0,0.0,0.0,0.0,0.0,0.0,0.0,0.0,0.0,0.0,0.0,0.0,0.0,0.0,0.0,-2.4394,-2.4262,-2.4718,-2.4845,-2.4595,-2.4074,-2.2853,0.0,0.0,0.0,0.0,0.0,0.0,0.0,0.0,0.0,0.0,0.0,0.0,0.0,0.0,0.0,0.0,0.0,0.0,0.0,0.0,0.0,0.0,0.0,0.0,0.0,0.0,0.0,0.0,0.0,0.0,0.0,0.0,0.0,0.0,0.0,0.0,0.0,0.0,0.0,0.0,0.0,0.0,0.0,0.0,0.0,0.0,0.0,0.0,0.0,0.0,0.0,0.0,0.0,0.0,0.0,0.0,0.0,0.0,0.0,0.0,0.0,0.0,0.0,0.0,0.0,0.0,0.0,0.0,0.0,0.0,0.0,0.0,0.0,0.0,0.0,0.0,0.0,0.0,0.0,0.0,0.0,0.0,0.0,0.0,0.0,0.0,0.0,0.0,0.0,0.0,0.0,0.0,0.0,0.0,0.0,0.0,0.0,0.0,0.0,0.0,0.0,0.0,0.0,0.0,0.0,0.0,0.0,0.0,0.0,-2.405,-2.3913,-2.3968,-2.4204,-2.3275,-2.2253,0.0,0.0,0.0,0.0,0.0,0.0,0.0,0.0,0.0,0.0,0.0,0.0,0.0,0.0,0.0,0.0,0.0,0.0,0.0,0.0,0.0,0.0,0.0,0.0,0.0,0.0,0.0,0.0,0.0,0.0,0.0,0.0,0.0,0.0,0.0,0.0,0.0,0.0,0.0,0.0,0.0,0.0,0.0,0.0,0.0,0.0,0.0,0.0,0.0,0.0,0.0,0.0,0.0,0.0,0.0,0.0,0.0,0.0,0.0,0.0,0.0,0.0,0.0,0.0,0.0,0.0,0.0,0.0,0.0,0.0,0.0,0.0,0.0,0.0,0.0,0.0,0.0,0.0,0.0,0.0,0.0,0.0,0.0,0.0,0.0,0.0,0.0,0.0,0.0,0.0,0.0,0.0,0.0,0.0,0.0,0.0,0.0,0.0,0.0,0.0,0.0,0.0,0.0,0.0,0.0,0.0,0.0,0.0,0.0,-2.4435,-2.396,-2.3809,-2.4115,-2.342,-2.2402,-2.1048,0.0,0.0,0.0,0.0,0.0,0.0,0.0,0.0,0.0,0.0,0.0,0.0,0.0,0.0,0.0,0.0,0.0,0.0,0.0,0.0,0.0,0.0,0.0,0.0,0.0,0.0,0.0,0.0,0.0,0.0,0.0,0.0,0.0,0.0,0.0,0.0,0.0,0.0,0.0,0.0,0.0,0.0,0.0,0.0,0.0,0.0,0.0,0.0,0.0,0.0,0.0,0.0,0.0,0.0,0.0,0.0,0.0,0.0,0.0,0.0,0.0,0.0,0.0,0.0,0.0,0.0,0.0,0.0,0.0,0.0,0.0,0.0,0.0,0.0,0.0,0.0,0.0,0.0,0.0,0.0,0.0,0.0,0.0,0.0,0.0,0.0,0.0,0.0,0.0,0.0,0.0,0.0,0.0,0.0,0.0,0.0,0.0,0.0,0.0,0.0,0.0,0.0,0.0,0.0,0.0,0.0,0.0,0.0,-2.5379,-2.481,-2.4442,-2.4282,-2.4308,-2.3232,0.0,0.0,0.0,0.0,0.0,0.0,0.0,0.0,0.0,0.0,0.0,0.0,0.0,0.0,0.0,0.0,0.0,0.0,0.0,0.0,0.0,0.0,0.0,0.0,0.0,0.0,0.0,0.0,0.0,0.0,0.0,0.0,0.0,0.0,0.0,0.0,0.0,0.0,0.0,0.0,0.0,0.0,0.0,0.0,0.0,0.0,0.0,0.0,0.0,0.0,0.0,0.0,0.0,0.0,0.0,0.0,0.0,0.0,0.0,0.0,0.0,0.0,0.0,0.0,0.0,0.0,0.0,0.0,0.0,0.0,0.0,0.0,0.0,0.0,0.0,0.0,0.0,0.0,0.0,0.0,0.0,0.0,0.0,0.0,0.0,0.0,0.0,0.0,0.0,0.0,0.0,0.0,0.0,0.0,0.0,0.0,0.0,0.0,0.0,0.0,0.0,0.0,0.0,0.0,0.0,0.0,0.0,0.0,0.0,-2.6435,-2.6587,-2.647,-2.6007,-2.5245,-2.4105,0.0,0.0,0.0,0.0,0.0,0.0,0.0,0.0,0.0,0.0,0.0,0.0,0.0,0.0,0.0,0.0,0.0,0.0,0.0,0.0,0.0,0.0,0.0,0.0,0.0,0.0,0.0,0.0,0.0,0.0,0.0,0.0,0.0,0.0,0.0,0.0,0.0,0.0,0.0,0.0,0.0,0.0,0.0,0.0,0.0,0.0,0.0,0.0,0.0,0.0,0.0,0.0,0.0,0.0,0.0,0.0,0.0,0.0,0.0,0.0,0.0,0.0,0.0,0.0,0.0,0.0,0.0,0.0,0.0,0.0,0.0,0.0,0.0,0.0,0.0,0.0,0.0,0.0,0.0,0.0,0.0,0.0,0.0,0.0,0.0,0.0,0.0,0.0,0.0,0.0,0.0,0.0,0.0,0.0,0.0,0.0,0.0,0.0,0.0,0.0,0.0,0.0,0.0,0.0,0.0,0.0,0.0,0.0,-2.6159,-2.79,-2.8603,-2.8817,-2.8525,-2.6896,-2.538,0.0,0.0,0.0,0.0,0.0,0.0,0.0,0.0,0.0,0.0,0.0,0.0,0.0,0.0,0.0,0.0,0.0,0.0,0.0,0.0,0.0,0.0,0.0,0.0,0.0,0.0,0.0,0.0,0.0,0.0,0.0,0.0,0.0,0.0,0.0,0.0,0.0,0.0,0.0,0.0,0.0,0.0,0.0,0.0,0.0,0.0,0.0,0.0,0.0,0.0,0.0,0.0,0.0,0.0,0.0,0.0,0.0,0.0,0.0,0.0,0.0,0.0,0.0,0.0,0.0,0.0,0.0,0.0,0.0,0.0,0.0,0.0,0.0,0.0,0.0,0.0,0.0,0.0,0.0,0.0,0.0,0.0,0.0,0.0,0.0,0.0,0.0,0.0,0.0,0.0,0.0,0.0,0.0,0.0,0.0,0.0,0.0,0.0,0.0,0.0,0.0,0.0,0.0,0.0,0.0,0.0,0.0,0.0,-2.7523,-2.92,-3.0348,-3.0937,-3.0962,-2.886,-2.6883,0.0,0.0,0.0,0.0,0.0,0.0,0.0,0.0,0.0,0.0,0.0,0.0,0.0,0.0,0.0,0.0,0.0,0.0,0.0,0.0,0.0,0.0,0.0,0.0,0.0,0.0,0.0,0.0,0.0,0.0,0.0,0.0,0.0,0.0,0.0,0.0,0.0,0.0,0.0,0.0,0.0,0.0,0.0,0.0,0.0,0.0,0.0,0.0,0.0,0.0,0.0,0.0,0.0,0.0,0.0,0.0,0.0,0.0,0.0,0.0,0.0,0.0,0.0,0.0,0.0,0.0,0.0,0.0,0.0,0.0,0.0,0.0,0.0,0.0,0.0,0.0,0.0,0.0,0.0,0.0,0.0,0.0,0.0,0.0,0.0,0.0,0.0,0.0,0.0,0.0,0.0,0.0,0.0,0.0,0.0,0.0,0.0,0.0,0.0,0.0,0.0,0.0,0.0,0.0,0.0,0.0,0.0,0.0,-2.7276,-2.8938,-2.9941,-3.0663,-3.1126,-2.9731,-2.7889,0.0,0.0,0.0,0.0,0.0,0.0,0.0,0.0,0.0,0.0,0.0,0.0,0.0,0.0,0.0,0.0,0.0,0.0,0.0,0.0,0.0,0.0,0.0,0.0,0.0,0.0,0.0,0.0,0.0,0.0,0.0,0.0,0.0,0.0,0.0,0.0,0.0,0.0,0.0,0.0,0.0,0.0,0.0,0.0,0.0,0.0,0.0,0.0,-1.8256,0.0,0.0,0.0,0.0,0.0,0.0,0.0,0.0,0.0,0.0,0.0,0.0,0.0,0.0,0.0,0.0,0.0,0.0,0.0,0.0,0.0,0.0,0.0,0.0,0.0,0.0,0.0,0.0,0.0,0.0,0.0,0.0,0.0,0.0,0.0,0.0,0.0,0.0,0.0,0.0,0.0,0.0,0.0,0.0,0.0,0.0,0.0,0.0,0.0,0.0,0.0,0.0,0.0,0.0,0.0,0.0,0.0,0.0,0.0,-2.7486,-2.9145,-3.0189,-3.0868,-3.1124,-3.0017,-2.8433,0.0,0.0,0.0,0.0,0.0,0.0,0.0,0.0,0.0,0.0,0.0,0.0,0.0,0.0,0.0,0.0,0.0,0.0,0.0,0.0,0.0,0.0,0.0,0.0,0.0,0.0,0.0,0.0,0.0,0.0,0.0,0.0,0.0,0.0,0.0,0.0,0.0,0.0,0.0,0.0,0.0,0.0,0.0,0.0,0.0,0.0,0.0,0.0,0.0,0.0,0.0,0.0,0.0,0.0,0.0,0.0,0.0,0.0,0.0,0.0,0.0,0.0,0.0,0.0,0.0,0.0,0.0,0.0,0.0,0.0,0.0,0.0,0.0,0.0,0.0,0.0,0.0,0.0,0.0,0.0,0.0,0.0,0.0,0.0,0.0,0.0,0.0,0.0,0.0,0.0,0.0,0.0,0.0,0.0,0.0,0.0,0.0,0.0,0.0,0.0,0.0,0.0,0.0,0.0,0.0,0.0,0.0,-2.6237,-2.7761,-2.941,-3.0548,-3.1097,-3.0956,-2.996,-2.8582,-2.6833,0.0,0.0,0.0,0.0,0.0,0.0,0.0,0.0,0.0,0.0,0.0,0.0,0.0,0.0,0.0,0.0,0.0,0.0,0.0,0.0,0.0,0.0,0.0,0.0,0.0,0.0,0.0,0.0,0.0,0.0,0.0,0.0,0.0,0.0,0.0,0.0,0.0,0.0,-1.5843,-1.789,0.0,0.0,0.0,0.0,0.0,0.0,0.0,0.0,-1.9094,0.0,0.0,0.0,0.0,0.0,0.0,0.0,0.0,0.0,0.0,0.0,0.0,0.0,0.0,0.0,0.0,0.0,0.0,0.0,0.0,0.0,0.0,0.0,0.0,0.0,0.0,0.0,0.0,0.0,0.0,0.0,0.0,0.0,0.0,0.0,0.0,0.0,0.0,0.0,0.0,0.0,0.0,0.0,0.0,0.0,0.0,0.0,0.0,0.0,0.0,0.0,0.0,0.0,0.0,0.0,0.0,-2.5172,-2.6238,-2.7573,-2.9212,-3.0173,-3.0473,-3.0034,-2.9353,-2.7994,-2.5925,0.0,0.0,0.0,0.0,0.0,0.0,0.0,0.0,0.0,0.0,0.0,0.0,0.0,0.0,0.0,0.0,0.0,0.0,0.0,0.0,0.0,0.0,0.0,0.0,0.0,0.0,0.0,0.0,0.0,0.0,0.0,0.0,0.0,0.0,0.0,0.0,0.0,0.0,0.0,-2.0257,-2.1509,0.0,0.0,0.0,0.0,0.0,0.0,0.0,0.0,-1.9003,0.0,0.0,0.0,0.0,0.0,0.0,0.0,0.0,0.0,0.0,0.0,0.0,0.0,0.0,0.0,0.0,0.0,0.0,0.0,0.0,0.0,0.0,0.0,0.0,0.0,0.0,0.0,0.0,0.0,0.0,0.0,0.0,0.0,0.0,0.0,0.0,0.0,0.0,0.0,0.0,0.0,0.0,0.0,0.0,0.0,0.0,0.0,0.0,0.0,0.0,0.0,0.0,0.0,0.0,0.0,-2.4677,-2.5949,-2.7258,-2.8609,-2.9642,-2.9917,-2.9365,-2.88,-2.7546,0.0,0.0,0.0,0.0,0.0,0.0,0.0,0.0,0.0,0.0,0.0,0.0,0.0,0.0,0.0,0.0,0.0,0.0,0.0,0.0,0.0,0.0,0.0,0.0,0.0,0.0,0.0,0.0,0.0,0.0,0.0,0.0,0.0,0.0,0.0,0.0,0.0,0.0,0.0,0.0,-2.0392,-2.1513,-2.2439,0.0,0.0,0.0,0.0,0.0,0.0,-1.9682,-1.9426,0.0,0.0,0.0,0.0,0.0,0.0,0.0,0.0,0.0,0.0,0.0,0.0,0.0,0.0,0.0,0.0,0.0,0.0,0.0,0.0,0.0,0.0,0.0,0.0,0.0,0.0,0.0,0.0,0.0,0.0,0.0,0.0,0.0,0.0,0.0,0.0,0.0,0.0,0.0,0.0,0.0,0.0,0.0,0.0,0.0,0.0,0.0,0.0,0.0,0.0,0.0,0.0,0.0,0.0,0.0,-2.4299,-2.5854,-2.719,-2.8247,-2.9264,-2.9453,-2.8775,-2.8222,-2.7105,0.0,0.0,0.0,0.0,0.0,0.0,0.0,0.0,0.0,0.0,0.0,0.0,0.0,0.0,0.0,0.0,0.0,0.0,0.0,0.0,0.0,0.0,0.0,0.0,0.0,0.0,0.0,0.0,0.0,0.0,0.0,0.0,0.0,0.0,0.0,0.0,0.0,0.0,0.0,0.0,0.0,-2.1342,-2.2401,-2.1826,0.0,0.0,0.0,0.0,-1.9859,-2.0051,0.0,0.0,0.0,0.0,0.0,0.0,0.0,0.0,0.0,0.0,0.0,0.0,0.0,0.0,0.0,0.0,0.0,0.0,0.0,0.0,0.0,0.0,0.0,0.0,0.0,0.0,0.0,0.0,0.0,0.0,0.0,0.0,0.0,0.0,0.0,0.0,0.0,0.0,0.0,0.0,0.0,0.0,0.0,0.0,0.0,0.0,0.0,0.0,0.0,0.0,0.0,0.0,0.0,0.0,0.0,0.0,-2.4707,-2.6386,-2.7733,-2.8762,-2.9465,-2.9289,-2.8235,-2.767,-2.6364,0.0,0.0,0.0,0.0,0.0,0.0,0.0,0.0,0.0,0.0,0.0,0.0,0.0,0.0,0.0,0.0,0.0,0.0,0.0,0.0,0.0,0.0,0.0,0.0,0.0,0.0,0.0,0.0,0.0,0.0,0.0,0.0,0.0,0.0,0.0,0.0,0.0,0.0,0.0,0.0,0.0,-2.1992,-2.2593,-2.2721,-2.2615,0.0,0.0,-2.1846,-2.1768,-2.0992,0.0,0.0,0.0,0.0,0.0,0.0,0.0,0.0,0.0,0.0,0.0,0.0,0.0,0.0,0.0,0.0,0.0,0.0,0.0,0.0,0.0,0.0,0.0,0.0,0.0,0.0,0.0,0.0,0.0,0.0,0.0,0.0,0.0,0.0,0.0,0.0,0.0,0.0,0.0,0.0,0.0,0.0,0.0,0.0,0.0,0.0,0.0,0.0,0.0,0.0,0.0,0.0,0.0,0.0,0.0,-2.3065,-2.4633,-2.628,-2.7603,-2.8523,-2.9015,-2.873,-2.7644,-2.7088,-2.5758,0.0,0.0,0.0,0.0,0.0,0.0,0.0,0.0,0.0,0.0,0.0,0.0,0.0,0.0,0.0,0.0,0.0,0.0,0.0,0.0,0.0,0.0,0.0,0.0,0.0,0.0,0.0,0.0,0.0,0.0,0.0,0.0,0.0,0.0,0.0,0.0,0.0,0.0,0.0,0.0,0.0,0.0,-2.3267,-2.3034,0.0,0.0,0.0,-2.2227,-2.192,0.0,0.0,0.0,0.0,0.0,0.0,0.0,0.0,0.0,0.0,0.0,0.0,0.0,0.0,0.0,0.0,0.0,0.0,0.0,0.0,0.0,0.0,0.0,0.0,0.0,0.0,0.0,0.0,0.0,0.0,0.0,0.0,0.0,0.0,0.0,0.0,0.0,0.0,0.0,0.0,0.0,0.0,0.0,0.0,0.0,0.0,0.0,0.0,0.0,0.0,0.0,0.0,0.0,0.0,0.0,0.0,0.0,-2.4559,-2.62,-2.7484,-2.8299,-2.8609,-2.8215,-2.7148,-2.6481,0.0,0.0,0.0,0.0,0.0,0.0,0.0,0.0,0.0,0.0,0.0,0.0,0.0,0.0,0.0,0.0,0.0,0.0,0.0,0.0,0.0,0.0,0.0,0.0,0.0,0.0,0.0,-1.2714,0.0,0.0,0.0,0.0,0.0,0.0,0.0,0.0,0.0,0.0,0.0,0.0,0.0,0.0,-2.2246,-2.3791,-2.348,-2.3237,0.0,0.0,-2.2732,-2.2344,-2.204,-2.1471,0.0,0.0,0.0,0.0,0.0,0.0,0.0,0.0,0.0,0.0,0.0,0.0,0.0,0.0,0.0,0.0,0.0,0.0,0.0,0.0,0.0,0.0,0.0,0.0,0.0,0.0,0.0,0.0,0.0,0.0,0.0,0.0,0.0,0.0,0.0,0.0,0.0,0.0,0.0,0.0,0.0,0.0,0.0,0.0,0.0,0.0,0.0,0.0,0.0,0.0,0.0,0.0,0.0,0.0,0.0,-2.4672,-2.6323,-2.7597,-2.8442,-2.8486,-2.8032,-2.6949,-2.5901,-2.4386,0.0,0.0,0.0,0.0,0.0,0.0,0.0,0.0,0.0,0.0,0.0,0.0,0.0,0.0,0.0,0.0,0.0,0.0,0.0,0.0,0.0,0.0,0.0,0.0,0.0,0.0,0.0,0.0,0.0,0.0,0.0,0.0,0.0,0.0,0.0,0.0,0.0,0.0,0.0,0.0,0.0,-2.2673,-2.3841,-2.4381,-2.4669,0.0,0.0,-2.3866,-2.3859,-2.2937,-2.187,-2.0844,0.0,0.0,0.0,0.0,0.0,0.0,0.0,0.0,0.0,0.0,0.0,0.0,0.0,0.0,0.0,0.0,0.0,0.0,0.0,0.0,0.0,0.0,0.0,0.0,0.0,0.0,0.0,0.0,0.0,0.0,0.0,0.0,0.0,0.0,0.0,0.0,0.0,0.0,0.0,0.0,0.0,0.0,0.0,0.0,0.0,0.0,0.0,0.0,0.0,0.0,0.0,0.0,0.0,-2.326,-2.4648,-2.5956,-2.6827,-2.7261,-2.7278,-2.6743,-2.5627,-2.462,-2.3108,0.0,0.0,0.0,0.0,0.0,0.0,0.0,0.0,0.0,0.0,0.0,0.0,0.0,0.0,0.0,0.0,0.0,0.0,0.0,0.0,0.0,0.0,0.0,0.0,0.0,0.0,0.0,0.0,-1.5339,-1.5185,-1.4664,0.0,0.0,0.0,0.0,0.0,0.0,0.0,0.0,0.0,0.0,-2.2836,-2.4305,-2.4682,0.0,0.0,-2.4845,-2.4393,-2.4054,-2.3339,-2.2531,-2.1807,-2.0995,0.0,0.0,0.0,0.0,0.0,0.0,0.0,0.0,0.0,0.0,0.0,0.0,0.0,0.0,0.0,0.0,0.0,0.0,0.0,0.0,0.0,0.0,0.0,0.0,0.0,0.0,0.0,0.0,0.0,0.0,0.0,0.0,0.0,0.0,0.0,0.0,0.0,0.0,0.0,0.0,0.0,0.0,0.0,0.0,0.0,0.0,0.0,0.0,0.0,0.0,0.0,0.0,-2.2936,-2.436,-2.5391,-2.6045,-2.631,-2.6321,-2.5784,-2.4701,-2.3798,-2.2385,0.0,0.0,0.0,0.0,0.0,0.0,0.0,0.0,0.0,0.0,0.0,0.0,0.0,0.0,0.0,0.0,0.0,0.0,0.0,0.0,0.0,0.0,0.0,0.0,0.0,0.0,0.0,0.0,-1.5947,-1.5649,-1.5112,0.0,0.0,0.0,0.0,0.0,0.0,0.0,0.0,0.0,0.0,-2.3301,-2.4632,-2.5096,-2.5435,-2.5799,-2.5398,-2.4888,-2.4531,-2.3866,-2.3183,-2.2648,0.0,0.0,0.0,0.0,0.0,0.0,0.0,0.0,0.0,0.0,0.0,0.0,0.0,0.0,0.0,0.0,0.0,0.0,0.0,0.0,0.0,0.0,0.0,0.0,0.0,0.0,0.0,0.0,0.0,0.0,-1.9675,0.0,0.0,0.0,0.0,0.0,0.0,0.0,0.0,0.0,0.0,0.0,0.0,0.0,0.0,0.0,0.0,0.0,0.0,0.0,0.0,0.0,0.0,-2.2455,-2.3813,-2.4594,-2.5303,-2.5863,-2.5895,-2.5426,-2.4425,-2.3718,-2.2461,-2.0511,0.0,0.0,0.0,0.0,0.0,0.0,0.0,0.0,0.0,0.0,0.0,0.0,0.0,0.0,0.0,0.0,0.0,0.0,0.0,0.0,0.0,0.0,0.0,0.0,0.0,0.0,-1.7423,-1.6724,-1.5991,0.0,0.0,0.0,0.0,0.0,0.0,0.0,0.0,0.0,0.0,-2.2912,-2.4167,-2.4725,-2.5749,-2.6449,-2.6474,-2.5963,-2.5573,-2.5561,-2.4669,-2.3791,0.0,0.0,0.0,0.0,0.0,0.0,0.0,0.0,0.0,0.0,0.0,0.0,0.0,0.0,0.0,0.0,0.0,0.0,0.0,0.0,0.0,0.0,0.0,0.0,0.0,0.0,0.0,-2.2118,-2.1582,0.0,0.0,0.0,0.0,0.0,0.0,0.0,0.0,0.0,0.0,0.0,-2.1559,-2.1664,0.0,0.0,0.0,0.0,0.0,0.0,0.0,0.0,0.0,0.0,0.0,0.0,-2.1821,-2.2909,-2.3641,-2.4182,-2.4488,-2.4658,-2.4419,-2.3619,-2.2793,-2.1336,-1.9229,0.0,0.0,0.0,0.0,0.0,0.0,0.0,0.0,0.0,0.0,0.0,0.0,0.0,0.0,0.0,0.0,0.0,0.0,0.0,0.0,0.0,0.0,0.0,0.0,0.0,-1.7237,0.0,0.0,0.0,0.0,0.0,0.0,0.0,0.0,0.0,0.0,0.0,-2.0207,-2.1984,-2.3065,-2.4013,-2.4872,-2.6049,-2.6851,0.0,0.0,0.0,0.0,0.0,0.0,0.0,0.0,0.0,0.0,0.0,0.0,0.0,0.0,-2.1636,-2.0582,-2.0532,-2.0571,-2.0288,0.0,0.0,0.0,0.0,0.0,0.0,0.0,0.0,0.0,0.0,0.0,0.0,0.0,0.0,-2.3456,0.0,-2.2611,0.0,0.0,0.0,0.0,0.0,0.0,0.0,0.0,-2.1673,-2.2061,-2.245,-2.2739,-2.2818,0.0,-2.1856,-2.1317,0.0,0.0,0.0,0.0,0.0,0.0,0.0,0.0,-2.1269,-2.2199,-2.2895,-2.3453,-2.379,-2.398,-2.3768,-2.3197,-2.21,-2.0683,-1.9038,-1.7858,-1.6708,0.0,0.0,0.0,0.0,0.0,0.0,0.0,0.0,0.0,0.0,0.0,0.0,0.0,0.0,0.0,0.0,0.0,0.0,0.0,0.0,0.0,0.0,0.0,-1.7448,0.0,0.0,0.0,0.0,0.0,0.0,0.0,0.0,0.0,-1.965,-2.0168,-2.1113,-2.2653,-2.3575,-2.43,-2.5001,0.0,0.0,0.0,0.0,0.0,0.0,0.0,-2.5745,-2.5172,-2.4913,-2.4707,-2.4343,-2.3948,-2.3809,-2.4091,0.0,0.0,-2.2369,-2.221,-2.2201,-2.189,-2.2022,-2.2246,-2.2419,-2.3433,-2.4435,0.0,0.0,0.0,0.0,0.0,0.0,0.0,0.0,-2.5135,-2.4746,0.0,-2.3443,0.0,0.0,0.0,0.0,0.0,-2.0863,0.0,0.0,-2.246,-2.2846,-2.3567,-2.3934,-2.4021,-2.3797,-2.309,-2.2706,-2.2605,-2.0418,0.0,0.0,0.0,0.0,0.0,0.0,-2.0864,-2.1711,-2.245,-2.308,-2.3767,-2.3797,-2.3596,-2.3135,-2.171,-2.0632,-1.9912,-1.8823,-1.7662,-1.6435,-1.6048,0.0,0.0,0.0,0.0,0.0,0.0,0.0,0.0,0.0,0.0,0.0,0.0,0.0,0.0,0.0,0.0,0.0,0.0,0.0,0.0,-1.6721,0.0,0.0,0.0,0.0,0.0,0.0,0.0,0.0,0.0,0.0,-2.0367,-2.1685,-2.2849,-2.3438,0.0,0.0,0.0,0.0,-2.6843,-2.701,-2.7469,-2.7703,-2.7396,-2.6879,-2.6373,-2.5787,0.0,0.0,-2.4913,-2.4913,-2.5109,-2.5586,-2.5674,-2.527,-2.3994,-2.3829,-2.3815,-2.3776,-2.4214,-2.4745,-2.484,-2.5332,-2.6157,-2.6533,0.0,0.0,0.0,0.0,-2.5361,-2.5675,-2.6091,-2.6044,-2.5744,-2.5244,-2.4735,0.0,0.0,0.0,0.0,0.0,0.0,-2.2705,-2.3616,-2.3757,-2.411,-2.465,-2.4753,-2.4789,-2.4723,-2.3856,-2.3495,-2.3416,-2.199,-2.0903,-2.021,0.0,0.0,0.0,0.0,-2.1181,-2.1776,-2.2297,-2.2801,-2.3299,-2.3309,-2.3113,-2.2689,-2.1999,-2.1242,-2.0439,-1.947,-1.8527,-1.7566,-1.6579,0.0,0.0,0.0,0.0,0.0,0.0,0.0,0.0,0.0,0.0,0.0,0.0,0.0,0.0,0.0,0.0,0.0,0.0,0.0,-1.6627,-1.717,-1.7387,0.0,0.0,0.0,0.0,0.0,0.0,0.0,0.0,0.0,-2.2931,-2.3308,-2.3905,0.0,0.0,-2.5949,-2.6348,-2.7088,-2.7664,-2.769,0.0,0.0,0.0,-2.7777,-2.7415,-2.7371,-2.7256,-2.7168,-2.7155,-2.7155,-2.7218,-2.7356,-2.7394,-2.7253,-2.687,-2.5853,-2.5013,-2.4646,-2.4691,-2.4824,-2.4963,-2.5608,-2.6342,-2.8343,-2.7171,-2.6239,-2.61,-2.6487,-2.6656,-2.6973,-2.7369,-2.7251,-2.6983,-2.6675,-2.597,-2.5436,-2.5119,-2.3989,0.0,0.0,0.0,-2.4165,-2.5012,-2.5125,-2.543,-2.582,-2.584,-2.5752,-2.5566,-2.4893,-2.4473,-2.4323,-2.3295,-2.2423,-2.1786,0.0,0.0,-2.0262,-2.0916,-2.1441,-2.1849,-2.2284,-2.2672,-2.3081,-2.3101,-2.2974,-2.2721,-2.2197,-2.1631,-2.1143,-2.0088,-1.9141,-1.8256,-1.7353,-1.6289,0.0,0.0,0.0,0.0,0.0,0.0,0.0,0.0,0.0,0.0,0.0,-1.2332,-1.3259,0.0,0.0,0.0,-1.529,-1.5983,-1.6991,-1.7246,0.0,0.0,0.0,0.0,0.0,0.0,0.0,-2.0688,-2.1568,-2.2831,-2.4826,-2.5183,-2.5541,-2.6334,-2.643,-2.655,-2.6849,0.0,-2.7898,-2.8001,-2.8261,-2.8476,-2.8496,-2.8263,-2.8139,-2.811,-2.8109,-2.8109,-2.8109,-2.8109,-2.8109,-2.8109,-2.8109,-2.8109,-2.8109,-2.7256,-2.6502,-2.6167,-2.6126,-2.6126,-2.6215,-2.6676,-2.7212,-3.0019,-2.9597,-2.7978,-2.7519,-2.7904,-2.8232,-2.8603,-2.8935,-2.8555,-2.8379,-2.8252,-2.707,-2.6484,-2.6338,-2.5576,0.0,-2.5223,-2.5253,-2.5654,-2.6435,-2.6475,-2.6689,-2.706,-2.706,-2.6865,-2.6525,-2.6016,-2.5576,-2.5184,-2.4352,-2.3942,-2.3838,-2.2205,-2.1222,-2.0987,-2.1362,-2.1686,-2.1934,-2.2353,-2.2754,-2.3081,-2.3101,-2.3101,-2.3081,-2.2324,-2.1885,-2.1855,-2.0644,-1.9553,-1.8744,-1.8266,-1.7295,-1.5674,0.0,0.0,0.0,0.0,0.0,0.0,0.0,0.0,0.0,0.0,0.0,0.0,0.0,0.0,0.0,-1.556,0.0,-1.7199,-1.7213,0.0,0.0,0.0,-1.7828,-1.8517,-1.8805,-1.968,-2.1572,0.0,0.0,-2.6013,0.0,-2.7278,-2.704,-2.7018,-2.703,-2.7018,-2.7474,-2.7816,-2.8021,-2.8436,-2.866,-2.8451,-2.8508,-2.8574,-2.83,-2.8186,-2.8261,-2.831,-2.831,-2.8273,-2.831,-2.8247,-2.8285,-2.826,-2.8247,-2.8247,-2.8197,-2.8084,-2.8047,-2.7959,-2.8104,-2.832,-3.0664,-3.0547,-3.0137,-2.9639,-2.9186,-2.9274,-2.9326,-2.9404,-2.9316,-2.9082,-2.873,-2.8115,-2.7305,-2.6396,-2.6504,-2.6377,-2.6084,-2.6406,-2.666,-2.6885,-2.7207,-2.7422,-2.751,-2.7562,-2.7513,-2.7324,-2.6592,-2.6182,-2.6035,-2.5233,-2.4756,-2.4763,-2.4006,-2.3104,-2.2132,-2.22,-2.2298,-2.2363,-2.2773,-2.2994,-2.3091,-2.3101,-2.3101,-2.3091,-2.2324,-2.1936,-2.1875,-2.0937,-2.0166,-1.9619,-1.8861,-1.7974,-1.6963,-1.5869,0.0,0.0,0.0,0.0,0.0,0.0,0.0,0.0,0.0,-1.3194,-1.4003,0.0,-1.4962,0.0,-1.6681,-1.7589,-1.7786,-1.8385,0.0,0.0,-1.8765,-1.9153,-1.9334,-1.9864,-2.0808,-2.2267,-2.2945,-2.3985,-2.5898,-2.6607,-2.716,-2.7802,-2.8008,-2.8138,-2.8138,-2.8222,-2.833,-2.8357,-2.8481,-2.8609,-2.8672,-2.8856,-2.8989,-2.9058,-2.9059,-2.9161,-2.939,-2.939,-2.939,-2.939,-2.939,-2.939,-2.9352,-2.9402,-2.9377,-2.934,-2.8712,-2.8109,-2.8109,-2.8158,-2.8231,-3.0898,-3.0898,-3.0898,-3.0605,-3.0156,-3.0156,-3.0166,-3.0127,-2.9736,-2.9434,-2.9189,-2.875,-2.8184,-2.7559,-2.7959,-2.8027,-2.7812,-2.7842,-2.7861,-2.7871,-2.792,-2.7939,-2.7939,-2.7949,-2.7894,-2.7699,-2.6982,-2.6572,-2.6357,-2.5693,-2.5361,-2.5352,-2.4922,-2.4346,-2.3672,-2.3457,-2.3271,-2.3096,-2.3071,-2.3101,-2.3101,-2.3101,-2.3101,-2.3071,-2.2324,-2.1936,-2.1875,-2.1065,-2.0371,-1.9922,-1.9426,-1.873,-1.7705,-1.6797,-1.5898,0.0,0.0,0.0,0.0,0.0,0.0,0.0,0.0,0.0,0.0,0.0,-1.6087,-1.6872,-1.7758,-1.8403,-1.8818,-1.9287,-1.9541,-1.9502,-1.9838,-2.0102,-2.0299,-2.0745,-2.1553,-2.2916,-2.361,-2.4703,-2.6367,-2.6912,-2.7464,-2.8366,-2.8442,-2.8391,-2.8471,-2.851,-2.851,-2.851,-2.851,-2.859,-2.8752,-2.8882,-2.9052,-2.9236,-2.9341,-2.9457,-2.9599,-2.9753,-2.9779,-2.9779,-2.9779,-2.9779,-2.9779,-2.9779,-2.9779,-2.9704,-2.9302,-2.89,-2.885,-2.8863,-2.89,-3.0898,-3.0898,-3.0898,-3.0898,-3.0898,-3.0898,-3.0898,-3.084,-3.0078,-2.9724,-2.9597,-2.9111,-2.8926,-2.8945,-2.9375,-2.958,-2.9607,-2.917,-2.8975,-2.8896,-2.8545,-2.835,-2.8301,-2.8291,-2.8096,-2.7777,-2.7305,-2.6875,-2.6475,-2.5976,-2.5752,-2.5674,-2.5342,-2.5204,-2.5184,-2.4775,-2.4355,-2.3867,-2.3506,-2.3257,-2.3257,-2.3208,-2.3169,-2.314,-2.2363,-2.1936,-2.1865,-2.1025,-2.0429,-2.0029,-1.9941,-1.9414,-1.8311,-1.7803,-1.723,0.0,-1.5986,0.0,0.0,0.0,0.0,0.0,0.0,0.0,0.0,-1.6728,-1.7535,-1.8744,-1.89,-1.9241,-1.9972,-2.0137,-2.0342,-2.0801,-2.086,-2.1006,-2.1484,-2.1675,-2.2267,-2.3519,-2.4436,-2.5583,-2.6926,-2.7411,-2.792,-2.8704,-2.8685,-2.8581,-2.8687,-2.8703,-2.8631,-2.8546,-2.851,-2.859,-2.8685,-2.8764,-2.8843,-2.9,-2.9184,-2.938,-2.9419,-2.9611,-2.9779,-2.9779,-2.9779,-2.9779,-2.9779,-2.9779,-2.9779,-2.9779,-2.9729,-2.9704,-2.9704,-2.9691,-2.9869,-3.0898,-3.0898,-3.0898,-3.0898,-3.0898,-3.0898,-3.0898,-3.0879,-3.0713,-3.0234,-2.9607,-2.9121,-2.8926,-2.8955,-2.9375,-2.958,-2.9616,-2.9492,-2.9268,-2.8906,-2.8838,-2.8613,-2.831,-2.8301,-2.8252,-2.8144,-2.7734,-2.7314,-2.6885,-2.6475,-2.6084,-2.5693,-2.5606,-2.5615,-2.5605,0.0,0.0,0.0,-2.4173,-2.4124,-2.4114,-2.3838,-2.3672,-2.3643,-2.251,0.0,-2.1897,-2.1065,-2.0566,-2.0478,-2.0107,0.0,0.0,0.0,0.0,0.0,0.0,0.0,0.0,0.0,0.0,0.0,-1.856,-1.8066,-1.7288,-1.8198,-1.9199,-2.0145,-2.0527,-2.0771,-2.0937,-2.1309,-2.168,-2.208,-2.2139,-2.2451,-2.3193,-2.3335,-2.3683,-2.4446,-2.5037,-2.5702,-2.6622,-2.7382,-2.8175,-2.8905,-2.9258,-2.9493,-2.9719,-2.94,-2.9003,-2.8619,-2.8558,-2.8522,-2.8538,-2.855,-2.8657,-2.8843,-2.9,-2.9197,-2.938,-2.9599,-2.9779,-2.9779,-2.9779,-2.9779,-2.9779,-2.9779,-2.9779,-2.9779,-2.9779,-2.9779,-2.9779,-2.9779,-2.983,-3.0898,0.0,-3.0898,-3.0898,0.0,-3.0898,-3.0898,-3.0869,-3.0644,-3.0068,-2.9238,-2.9014,-2.9043,-2.9258,-2.9687,-3.001,-3.0215,-2.999,-2.9756,-2.9531,-2.9111,-2.8809,-2.8594,-2.8389,-2.8301,-2.8281,-2.7924,-2.7441,-2.7012,-2.6592,-2.6162,-2.5684,-2.5684,-2.5684,-2.5684,-2.5684,-2.541,-2.4746,-2.4531,-2.4424,-2.4404,-2.4014,-2.3789,-2.376,0.0,0.0,0.0,0.0,0.0,0.0,0.0,0.0,0.0,0.0,0.0,-1.9231,-1.9072,-1.9043,-1.9248,-1.9277,-1.949,-1.992,-2.0322,-2.0205,-1.9346,-1.9873,-2.0605,-2.1435,-2.1738,-2.1999,-2.2451,-2.2695,-2.2988,-2.3398,-2.3447,-2.3643,-2.4014,-2.4102,-2.4271,-2.4726,-2.5267,-2.5952,-2.6854,-2.753,-2.8376,-2.923,-2.9464,-2.9706,-2.9978,-2.9869,-2.9496,-2.8991,-2.8907,-2.8799,-2.857,-2.851,-2.855,-2.8645,-2.8895,-2.9131,-2.9236,-2.9534,-2.9779,-2.9779,-2.9779,-2.9779,-2.9779,-2.9779,-2.9779,-2.9779,-2.9779,-2.9779,-2.9779,-2.9779,-2.9779,-3.0898,-3.0898,-3.0898,-3.0898,-3.0898,-3.0898,-3.0898,-3.0859,0.0,0.0,0.0,-2.9072,-2.9228,-2.96,-3.001,-3.041,-3.0742,-3.0459,-3.0273,-3.0166,-2.9385,-2.8994,-2.8906,-2.8486,-2.8301,-2.8281,-2.7939,-2.7519,-2.7021,-2.666,-2.624,-2.5732,-2.5684,-2.5684,-2.5684,-2.5684,-2.5557,-2.5243,-2.4834,-2.4648,-2.4639,-2.4238,-2.3975,-2.3906,-2.2734,-2.207,-2.1982,-2.1261,-2.084,-2.084,-2.084,-2.0635,-2.0293,-2.0264,-2.0254,-2.0264,-2.0332,-2.0527,-2.0918,-2.1016,-2.1094,-2.1163,-2.1916,-2.2158,-2.1678,-2.1639,-2.196,-2.2793,-2.2852,-2.3135,-2.3838,-2.3896,-2.4062,-2.4482,-2.4531,-2.4551,-2.4639,-2.4658,-2.4734,-2.4977,-2.5555,-2.6262,-2.7136,-2.7791,-2.8565,-2.955,-2.9823,-2.9851,-3.0241,-3.0248,-2.9941,-2.9689,-2.9436,-2.9124,-2.8787,-2.8546,-2.8522,-2.851,-2.8816,-2.9052,-2.9131,-2.9456,-2.9714,-2.9792,-2.9779,-2.9779,-2.9779,-2.9779,-2.9779,-2.9779,-2.9779,-2.9779,-2.9779,-2.9779,-2.9779,-3.0898,-3.0898,-3.0898,-3.0898,-3.0898,-3.0898,-3.0898,-3.085,-3.04,-3.0137,-2.999,-2.9639,-2.9567,-2.9646,-3.0,-3.0234,-3.0322,-3.0644,-3.0576,0.0,-2.9697,-2.9277,-2.8906,-2.8486,-2.8301,-2.8291,-2.8223,-2.7793,-2.709,-2.6953,-2.6473,-2.5781,-2.5684,-2.5684,-2.5684,-2.5684,-2.5654,-2.5644,-2.5538,-2.5508,-2.5499,-2.5117,-2.4707,-2.4307,-2.3393,-2.275,-2.2432,-2.1953,-2.1699,-2.1699,-2.1699,-2.167,-2.1611,-2.1592,-2.1611,-2.1631,-2.1953,-2.2178,-2.2236,-2.2568,-2.2939,-2.332,-2.3779,-2.3887,-2.3477,-2.3428,-2.3633,-2.4092,-2.4111,-2.4189,-2.4326,-2.4355,-2.4531,-2.4949,-2.498,-2.5127,-2.5449,-2.545,-2.5488,-2.5536,-2.6068,-2.6557,-2.7143,-2.8,-2.8927,-2.9897,-3.0376,-3.0912,-3.1129,-3.0694,-3.0368,-3.0422,-2.9869,-2.934,-2.9112,-2.8775,-2.8558,-2.851,-2.8697,-2.8922,-2.9091,-2.9314,-2.9573,-2.9753,-2.9779,-2.9779,-2.9779,-2.9779,-2.9779,-2.9779,-2.9779,-2.9779,-2.9779,-2.9779,-2.9779,-3.0898,-3.0898,-3.0898,-3.0898,-3.0898,-3.0898,-3.0898,-3.0869,-3.0664,-3.043,-3.0166,-2.9812,-2.9753,-2.9902,-2.9873,-2.998,-3.0205,-3.0185,-3.0059,-2.9824,-2.9414,-2.9111,-2.8896,-2.8496,-2.8301,-2.8301,-2.8301,-2.7969,-2.7393,-2.7139,-2.6699,-2.6103,-2.581,-2.5684,-2.5684,-2.5684,-2.5684,-2.5684,-2.5684,-2.5684,-2.5684,-2.5303,-2.5018,-2.4766,-2.3945,-2.3291,-2.2881,-2.2451,-2.2119,-2.1936,-2.21,-2.2227,-2.2236,-2.2441,-2.2666,-2.29,-2.3096,-2.331,-2.3535,-2.3676,-2.4023,-2.4443,-2.4658,-2.4805,-2.4853,-2.4404,-2.4307,-2.4717,-2.4766,-2.4873,-2.5098,-2.5089,-2.5215,-2.54,-2.543,-2.5518,-2.5635,-2.5684,-2.5684,-2.5732,-2.6062,-2.6486,-2.6955,-2.7799,-2.8746,-2.9715,-3.0556,-3.1273,-3.1629,-3.1308,-3.0903,-3.0862,-3.0218,-2.9665,-2.934,-2.8859,-2.8558,-2.851,-2.8645,-2.8843,-2.9052,-2.9275,-2.9521,-2.974,-2.9779,-2.9779,-2.9779,-2.9779,-2.9779,-2.9779,-2.9779,-2.9779,-2.9779,-2.9779,-2.9779,-3.0898,-3.0898,-3.0898,-3.0898,-3.0898,-3.0898,-3.0898,-3.0898,-3.0889,-3.0693,-3.0322,-2.9902,-2.9893,-3.0146,-2.9853,-2.9834,-3.0,-2.9824,-2.9668,-2.9531,-2.9121,-2.8926,-2.8877,-2.8496,-2.8301,-2.8301,-2.8301,-2.8076,-2.7718,-2.7324,-2.6894,-2.6406,-2.6055,-2.583,-2.5684,-2.5684,-2.5684,-2.5684,-2.5684,-2.5684,-2.5674,-2.54,-2.5223,-2.5077,-2.4434,-2.3887,-2.3501,-2.3125,-2.2793,-2.25,-2.2764,-2.2939,-2.2949,-2.3208,-2.353,-2.3896,-2.4023,-2.4268,-2.4668,-2.467,-2.4863,-2.5185,-2.5225,-2.5361,-2.5577,-2.5079,-2.4844,-2.5156,-2.5215,-2.5361,-2.5577,-2.5654,-2.5684,-2.5684,-2.5684,-2.5664,-2.5684,-2.5684,-2.5684,-2.5732,-2.5907,-2.6332,-2.6849,-2.7515,-2.8502,-2.9669,-3.0668,-3.135,-3.1617,-3.1705,-3.1512,-3.1139,-3.0603,-3.0098,-2.9556,-2.9051,-2.8703,-2.8558,-2.8657,-2.8843,-2.904,-2.9275,-2.947,-2.9702,-2.9779,-2.9779,-2.9779,-2.9779,-2.9779,-2.9779,-2.9779,-2.9779,-2.9779,-2.9779,-2.9779,-3.0898,-3.0898,-3.0898,-3.0898,-3.0898,-3.0898,-3.0898,-3.0898,-3.0898,-3.0869,-3.0762,-3.0342,-3.0156,-3.0185,-3.0156,-2.9961,-2.9707,-2.998,-2.9912,-2.9521,-2.9121,-2.8926,-2.8867,-2.8486,-2.8301,-2.8301,-2.8301,-2.8086,-2.7767,-2.7679,-2.7178,-2.6475,-2.6348,-2.6123,-2.5742,-2.5684,-2.5684,-2.5684,-2.5684,-2.5684,-2.5684,-2.5645,-2.5478,-2.5078,-2.5047,-2.4746,-2.4297,-2.4268,-2.4219,-2.4189,-2.418,-2.4228,-2.4228,-2.4277,-2.4316,-2.4385,-2.4727,-2.5146,-2.5499,-2.5567,-2.5547,-2.5625,-2.5615,-2.5645,-2.5703,-2.5625,-2.5577,-2.5645,-2.5635,-2.5625,-2.5684,-2.5684,-2.5684,-2.5684,-2.5684,-2.5684,-2.5684,-2.5684,-2.5684,-2.5684,-2.5965,-2.6284,-2.6812,-2.7563,-2.8642,-3.0159,-3.0859,-3.135,-3.1617,-3.1705,-3.1693,-3.1536,-3.1175,-3.0627,-3.0086,-2.9569,-2.9063,-2.8643,-2.8697,-2.8882,-2.9079,-2.9275,-2.9509,-2.974,-2.9779,-2.9779,-2.9779,-2.9779,-2.9779,-2.9779,-2.9779,-2.9779,-2.9779,-2.9779,-2.9779,-3.0898,-3.0898,-3.0898,-3.0898,-3.0898,-3.0898,-3.0898,-3.0898,-3.0898,-3.0898,-3.0869,-3.0684,-3.0596,-3.0596,-3.0322,-3.0098,-2.9941,-2.9863,-2.959,-2.9199,-2.8994,-2.8789,-2.8535,-2.8379,-2.8301,-2.8301,-2.8301,-2.8256,-2.8027,-2.7793,-2.7405,-2.6787,-2.6514,-2.6299,-2.6113,-2.5869,-2.5684,-2.5684,-2.5684,-2.5684,-2.5684,-2.5684,-2.5606,-2.5488,-2.5459,-2.5254,-2.4853,-2.4805,-2.4687,-2.4463,-2.4658,-2.4805,-2.4805,-2.5049,-2.5148,-2.5157,-2.5361,-2.5537,-2.5674,-2.5684,-2.5684,-2.5684,-2.5977,-2.6123,-2.6143,-2.6348,-2.6494,-2.6435,-2.5986,-2.5684,-2.5703,-2.5684,-2.5684,-2.5684,-2.5684,-2.5684,-2.5684,-2.5684,-2.5684,-2.5732,-2.5917,-2.6235,-2.6726,-2.7715,-2.9013,-3.0306,-3.0904,-3.1273,-3.1617,-3.1705,-3.1705,-3.1693,-3.1512,-3.1187,-3.0645,-2.9821,-2.9304,-2.9032,-2.8851,-2.8895,-2.9091,-2.9275,-2.947,-2.9753,-2.9792,-2.9779,-2.9779,-2.9779,-2.9779,-2.9779,-2.9779,-2.9779,-2.9779,-2.9779,-2.9779,-3.0898,-3.0898,-3.0898,-3.0898,-3.0898,-3.0898,-3.0898,-3.0898,-3.0898,-3.0898,-3.0898,-3.0898,-3.0898,-3.084,-3.0527,-3.0322,-3.0166,-2.9883,-2.9512,-2.9111,-2.8984,-2.876,-2.8467,-2.834,-2.8301,-2.8301,-2.8301,-2.8291,-2.8262,-2.8008,-2.7617,-2.7207,-2.6885,-2.668,-2.6533,-2.6133,-2.5869,-2.5908,-2.5762,-2.5684,-2.5684,-2.5684,-2.5684,-2.5684,-2.5684,-2.5576,-2.5273,-2.5254,-2.5117,-2.4767,-2.5088,-2.5254,-2.5264,-2.5557,-2.5684,-2.5684,-2.5684,-2.5752,-2.5898,-2.5918,-2.5967,-2.6044,-2.6396,-2.6562,-2.6621,-2.6846,-2.6992,-2.6953,-2.6386,-2.6064,-2.6044,-2.6035,-2.6035,-2.6044,-2.5957,-2.5918,-2.5879,-2.5791,-2.5684,-2.5732,-2.5868,-2.6207,-2.6784,-2.7904,-2.9209,-3.025,-3.0781,-3.1151,-3.1584,-3.1705,-3.1705,-3.1705,-3.1705,-3.1464,-3.0983,-3.035,-2.9749,-2.9338,-2.9133,-2.9181,-2.9165,-2.9326,-2.9509,-2.9792,-2.9779,-2.9779,-2.9779,-2.9779,-2.9779,-2.9779,-2.9779,-2.9779,-2.9779,-2.9779,-2.9779,-3.0898,-3.0898,-3.0898,-3.0898,-3.0898,-3.0898,-3.0898,-3.0898,-3.0898,-3.0898,-3.0898,-3.0898,-3.0898,-3.0889,-3.083,-3.0615,-3.0244,-3.0185,-2.9941,-2.9521,-2.916,-2.8926,-2.8857,-2.8486,-2.831,-2.835,-2.8301,-2.8301,-2.8281,-2.8262,-2.8057,-2.7708,-2.7611,-2.7373,-2.6992,-2.6572,-2.6357,-2.6328,-2.5927,-2.5703,-2.5693,-2.5693,-2.5684,-2.5684,-2.5684,-2.5664,-2.5635,-2.5654,-2.5625,-2.5615,-2.5606,-2.5635,-2.5645,-2.5664,-2.5684,-2.5703,-2.5703,-2.5888,-2.6299,-2.6357,-2.6504,-2.6846,-2.6934,-2.6982,-2.6992,-2.709,-2.7139,-2.7051,-2.7031,-2.6963,-2.6953,-2.6846,-2.6846,-2.6836,-2.6562,-2.6387,-2.6357,-2.5966,-2.5723,-2.5713,-2.5801,-2.6255,-2.704,-2.807,-2.9106,-3.0023,-3.0691,-3.1151,-3.1584,-3.1705,-3.1705,-3.1705,-3.1681,-3.1524,-3.1055,-3.0706,-3.023,-2.9844,-2.9699,-2.9681,-2.9507,-2.9417,-2.9663,-2.9792,-2.9779,-2.9779,-2.9779,-2.9779,-2.9779,-2.9779,-2.9779,-2.9779,-2.9779,-2.9779,-2.9779,-3.0898,-3.0898,-3.0898,-3.0898,-3.0898,-3.0898,-3.0898,-3.0898,-3.0898,-3.0898,-3.0898,-3.0898,-3.0898,-3.0898,-3.0898,-3.0801,-3.0654,-3.0635,-3.04,-3.0,-2.9805,-2.96,-2.9307,-2.8896,-2.8691,-2.8662,-2.8418,-2.8301,-2.8301,-2.8301,-2.8223,-2.8047,-2.7793,-2.763,-2.7383,-2.7002,-2.6787,-2.6738,-2.6367,-2.6152,-2.6123,-2.583,-2.5684,-2.5684,-2.5684,-2.5684,-2.5684,-2.5684,-2.5684,-2.5684,-2.5684,-2.5684,-2.5684,-2.5684,-2.5869,-2.6113,-2.6152,-2.6348,-2.6719,-2.6787,-2.6846,-2.7002,-2.7285,-2.7432,-2.748,-2.7666,-2.7832,-2.7822,-2.7822,-2.7832,-2.7725,-2.7353,-2.7012,-2.6992,-2.6885,-2.6787,-2.6709,-2.6416,-2.6152,-2.6163,-2.6221,-2.664,-2.7478,-2.8315,-2.9141,-3.0216,-3.0781,-3.1184,-3.1572,-3.1705,-3.1705,-3.1705,-3.1705,-3.1645,-3.1512,-3.1103,-3.0706,-3.0405,-3.0197,-2.9968,-2.9776,-2.9694,-2.9866,-2.9892,-2.9867,-2.9779,-2.9779,-2.9779,-2.9779,-2.9792,-2.9792,-2.9905,-2.9779,-2.9967,-2.9917,-3.0898,-3.0898,-3.0898,-3.0898,-3.0898,-3.0898,-3.0898,-3.0898,-3.0898,-3.0898,-3.0898,-3.0898,-3.0898,-3.0898,-3.0898,-3.0898,-3.0898,-3.0889,-3.0723,-3.042,-3.0273,-3.0049,-2.9746,-2.9336,-2.9053,-2.8867,-2.8496,-2.8301,-2.8301,-2.8301,-2.8301,-2.8262,-2.7998,-2.7924,-2.7855,-2.7441,-2.7226,-2.7148,-2.6807,-2.6592,-2.6553,-2.6309,-2.6152,-2.6103,-2.6103,-2.5947,-2.5713,-2.5684,-2.5684,-2.5703,-2.582,-2.6016,-2.6083,-2.6093,-2.6279,-2.6543,-2.6592,-2.6777,-2.7158,-2.7217,-2.7285,-2.7422,-2.7685,-2.7871,-2.7943,-2.8135,-2.8271,-2.8301,-2.8301,-2.8301,-2.8193,-2.7764,-2.7432,-2.7402,-2.7314,-2.7226,-2.7207,-2.6846,-2.6553,-2.6457,-2.6566,-2.7005,-2.7641,-2.8269,-2.9152,-3.0261,-3.0703,-3.1139,-3.1484,-3.1661,-3.1705,-3.1705,-3.1705,-3.1705,-3.1633,-3.1404,-3.1067,-3.0791,-3.0749,-3.0445,-3.0142,-3.0119,-3.0054,-3.0004,-2.9942,-2.9842,-2.9779,-2.9779,-2.9804,-2.9817,-3.0043,-3.0218,-3.0218,-3.0294,-3.0281,-3.0898,-3.0898,-3.0898,-3.0898,-3.0898,-3.0898,-3.0898,-3.0898,-3.0898,-3.0898,-3.0898,-3.0898,-3.0898,-3.0898,-3.0898,-3.0898,-3.0898,-3.0898,-3.0869,-3.0791,-3.0439,-3.0244,-3.0185,-2.9775,-2.9355,-2.8975,-2.8525,-2.833,-2.835,-2.832,-2.8301,-2.8291,-2.8271,-2.8213,-2.8271,-2.7861,-2.7676,-2.7578,-2.7246,-2.7021,-2.7021,-2.6943,-2.6894,-2.6924,-2.6914,-2.6572,-2.5791,-2.5762,-2.5801,-2.582,-2.6182,-2.6582,-2.6855,-2.6904,-2.6982,-2.6992,-2.7012,-2.7226,-2.765,-2.7718,-2.7832,-2.8076,-2.8252,-2.8232,-2.8223,-2.8271,-2.8301,-2.8301,-2.8301,-2.8301,-2.8301,-2.8213,-2.8164,-2.8232,-2.7871,-2.7666,-2.7588,-2.7285,-2.6865,-2.6583,-2.6824,-2.7106,-2.7407,-2.8194,-2.914,-2.9986,-3.0649,-3.1168,-3.1413,-3.1644,-3.1717,-3.1705,-3.1705,-3.1705,-3.1705,-3.1669,-3.1356,-3.111,-3.1174,-3.1099,-3.0782,-3.0673,-3.0563,-3.053,-3.0206,-3.008,-2.9792,-2.9804,-2.9905,-2.998,-3.0256,-3.0557,-3.067,-3.0746,-3.0809,-3.0898,-3.0898,-3.0898,-3.0898,-3.0898,-3.0898,-3.0898,-3.0898,-3.0898,-3.0898,-3.0898,-3.0898,-3.0898,-3.0898,-3.0898,-3.0898,-3.0898,-3.0898,-3.0898,-3.0859,-3.0732,-3.0664,-3.0576,-3.0205,-2.9785,-2.9355,-2.8926,-2.8721,-2.8672,-2.8447,-2.8301,-2.8301,-2.8301,-2.8301,-2.8291,-2.8154,-2.8096,-2.8047,-2.7676,-2.7461,-2.7432,-2.7178,-2.7021,-2.7012,-2.7012,-2.6865,-2.659,-2.6621,-2.6621,-2.6551,-2.6748,-2.6885,-2.6992,-2.7012,-2.7158,-2.7422,-2.7461,-2.7646,-2.8018,-2.8086,-2.8135,-2.8262,-2.8301,-2.8301,-2.8301,-2.8301,-2.8301,-2.8301,-2.8301,-2.8301,-2.8301,-2.8301,-2.8301,-2.8291,-2.8174,-2.8076,-2.8018,-2.7715,-2.7295,-2.6914,-2.71,-2.7462,-2.7908,-2.868,-2.9498,-3.0334,-3.0939,-3.1353,-3.1715,-3.1723,-3.1717,-3.1705,-3.1705,-3.1717,-3.1705,-3.1705,-3.156,-3.1387,-3.1447,-3.1596,-3.1361,-3.1121,-3.1082,-3.0919,-3.0608,-3.0319,-3.0018,-2.9955,-3.0131,-3.0281,-3.0583,-3.0846,-3.1097,-3.126,-3.1411,-3.0898,-3.0898,-3.0898,-3.0898,-3.0898,-3.0898,-3.0898,-3.0898,-3.0898,-3.0898,-3.0898,-3.0898,-3.0898,-3.0898,-3.0898,-3.0898,-3.0898,-3.0898,-3.0898,-3.0898,-3.0898,-3.0898,-3.083,-3.041,-3.0078,-2.9775,-2.9355,-2.916,-2.915,-2.8906,-2.8691,-2.8555,-2.8525,-2.8437,-2.832,-2.8301,-2.8301,-2.8252,-2.8027,-2.79,-2.7851,-2.7627,-2.749,-2.749,-2.749,-2.749,-2.749,-2.749,-2.7334,-2.7119,-2.7158,-2.7314,-2.7461,-2.751,-2.7607,-2.7812,-2.791,-2.8018,-2.8262,-2.8271,-2.8301,-2.8301,-2.8301,-2.8301,-2.8301,-2.8301,-2.8301,-2.8301,-2.8301,-2.8301,-2.8301,-2.8301,-2.8301,-2.8301,-2.8281,-2.8301,-2.8252,-2.8066,-2.7725,-2.7434,-2.7493,-2.7822,-2.8248,-2.8896,-2.9747,-3.0607,-3.1172,-3.1635,-3.2039,-3.2015,-3.1959,-3.1889,-3.1813,-3.1789,-3.1717,-3.1705,-3.1705,-3.1629,-3.1627,-3.1784,-3.1804,-3.1603,-3.1452,-3.1267,-3.0984,-3.0922,-3.067,-3.0595,-3.0683,-3.0834,-3.1009,-3.1399,-3.175,-3.2039,-3.2127,-3.0947,-3.0947,-3.0957,-3.0947,-3.0898,-3.0898,-3.0898,-3.0898,-3.0898,-3.0898,-3.0898,-3.0898,-3.0898,-3.0898,-3.0898,-3.0898,-3.0898,-3.0898,-3.0898,-3.0898,-3.0898,-3.0898,-3.083,-3.0488,-3.0303,-3.0185,-2.9805,-2.9619,-2.96,-2.9538,-2.9355,-2.8984,-2.8945,-2.875,-2.8467,-2.835,-2.835,-2.8291,-2.8262,-2.8242,-2.8242,-2.8242,-2.8223,-2.8213,-2.8193,-2.8193,-2.8164,-2.8144,-2.7861,-2.7275,-2.7519,-2.7851,-2.8174,-2.8281,-2.8213,-2.8242,-2.8281,-2.8262,-2.8291,-2.8379,-2.8389,-2.8398,-2.8467,-2.8369,-2.8486,-2.8535,-2.8535,-2.8516,-2.8486,-2.8457,-2.8457,-2.8467,-2.8447,-2.835,-2.833,-2.8301,-2.8301,-2.8262,-2.8047,-2.7836,-2.7927,-2.8129,-2.835,-2.9065,-2.9852,-3.0618,-3.134,-3.1979,-3.2395,-3.2484,-3.2359,-3.2268,-3.2154,-3.1985,-3.1973,-3.1729,-3.1729,-3.1725,-3.1716,-3.1879,-3.2129,-3.1951,-3.1851,-3.1614,-3.1512,-3.1449,-3.1286,-3.1122,-3.1185,-3.1399,-3.1687,-3.2089,-3.2365,-3.2591,-3.2659,-3.145,-3.1218,-3.1218,-3.1054,-3.0947,-3.0898,-3.0898,-3.0898,-3.0889,-3.0947,-3.0947,-3.0898,-3.0947,-3.0898,-3.0947,-3.0898,-3.0947,-3.0898,-3.0898,-3.0898,-3.0898,-3.0898,-3.0889,-3.0781,-3.0693,-3.0625,-3.0254,-3.0029,-3.0,-2.9775,-2.9541,-2.9404,-2.9385,-2.918,-2.8818,-2.875,-2.8574,-2.833,-2.831,-2.832,-2.833,-2.834,-2.8301,-2.8301,-2.832,-2.832,-2.8301,-2.8301,-2.8223,-2.8018,-2.8047,-2.8164,-2.8301,-2.832,-2.835,-2.8369,-2.834,-2.831,-2.8379,-2.8594,-2.874,-2.8789,-2.8994,-2.9228,-2.9228,-2.9228,-2.9238,-2.9238,-2.9238,-2.9209,-2.9219,-2.9254,-2.9072,-2.8779,-2.8516,-2.832,-2.8301,-2.8291,-2.8232,-2.8198,-2.8327,-2.8535,-2.8906,-2.958,-3.04,-3.1166,-3.1874,-3.2487,-3.2887,-3.3007,-3.2929,-3.2819,-3.2707,-3.2454,-3.2214,-3.1922,-3.1741,-3.1717,-3.1725,-3.1801,-3.2096,-3.2278,-3.2219,-3.2081,-3.2077,-3.2001,-3.1625,-3.1323,-3.1599,-3.1976,-3.2114,-3.2378,-3.2704,-3.2998,-3.2986,-3.2018,-3.1672,-3.1662,-3.1498,-3.1286,-3.1112,-3.1102,-3.1228,-3.1112,-3.117,-3.1228,-3.1286,-3.1276,-3.1286,-3.1112,-3.1054,-3.1054,-3.0947,-3.0898,-3.0898,-3.0898,-3.0898,-3.0889,-3.0898,-3.0898,-3.0869,-3.0625,-3.0508,-3.0449,-3.0234,-3.0039,-2.9863,-2.9834,-2.9609,-2.9219,-2.918,-2.9082,-2.8887,-2.8828,-2.8828,-2.8828,-2.8828,-2.8838,-2.8838,-2.8828,-2.8828,-2.8838,-2.8838,-2.8691,-2.8398,-2.8301,-2.8369,-2.8535,-2.8555,-2.8633,-2.8789,-2.8828,-2.8848,-2.8867,-2.9072,-2.918,-2.9228,-2.9463,-2.9541,-2.9551,-2.958,-2.958,-2.9597,-2.957,-2.958,-2.958,-2.958,-2.9453,-2.9209,-2.8809,-2.8496,-2.833,-2.8301,-2.8301,-2.8354,-2.8514,-2.8887,-2.9248,-3.0068,-3.0847,-3.1666,-3.2374,-3.2966,-3.3521,-3.3494,-3.3515,-3.343,-3.3224,-3.2935,-3.2803,-3.2539,-3.2202,-3.2151,-3.197,-3.199,-3.223,-3.2524,-3.258,-3.2574,-3.2591,-3.2478,-3.2139,-3.2018,-3.229,-3.2554,-3.2566,-3.2641,-3.2986,-3.3124,-3.3124,-3.2685,-3.2332,-3.2332,-3.2113,-3.1787,-3.1556,-3.1556,-3.1672,-3.1556,-3.1606,-3.1888,-3.1984,-3.2095,-3.2044,-3.1924,-3.1571,-3.1513,-3.1387,-3.1162,-3.1162,-3.1064,-3.1016,-3.1025,-3.0918,-3.0898,-3.0879,-3.0889,-3.0859,-3.0801,-3.081,-3.0644,-3.0361,-3.0273,-3.0039,-2.9717,-2.9629,-2.9619,-2.9492,-2.9424,-2.9414,-2.947,-2.9414,-2.9404,-2.946,-2.947,-2.9489,-2.9463,-2.9463,-2.9199,-2.8476,-2.8428,-2.8672,-2.8955,-2.8994,-2.9141,-2.9394,-2.9489,-2.9518,-2.9607,-2.9541,-2.9639,-2.9648,-2.9697,-2.9707,-2.9814,-2.9863,-2.9853,-2.9883,-2.9726,-2.9824,-2.9814,-2.9736,-2.9668,-2.957,-2.9248,-2.8838,-2.8525,-2.8403,-2.8344,-2.8398,-2.8621,-2.9089,-2.9659,-3.0422,-3.1238,-3.2066,-3.2821,-3.3456,-3.3877,-3.3969,-3.4019,-3.4042,-3.3777,-3.3404,-3.332,-3.3248,-3.2911,-3.268,-3.2455,-3.2394,-3.2521,-3.2779,-3.2959,-3.2993,-3.2855,-3.2898,-3.2885,-3.2923,-3.2955,-3.2943,-3.2842,-3.2973,-3.3124,-3.3124,-3.3124,-3.3808,-3.33,-3.3289,-3.2835,-3.218,-3.1998,-3.195,-3.1855,-3.2018,-3.2404,-3.2717,-3.3001,-3.3303,-3.3564,-3.3207,-3.3002,-3.2684,-3.2346,-3.2195,-3.1916,-3.1514,-3.1396,-3.1309,-3.1113,-3.0918,-3.0898,-3.0898,-3.0898,-3.0898,-3.0889,-3.085,-3.0752,-3.0654,-3.0518,-3.0127,-3.0059,-2.9893,-2.9648,-2.96,-2.9648,-2.9658,-2.9658,-2.9658,-2.9714,-2.9695,-2.9665,-2.9636,-2.958,-2.9538,-2.9401,-2.9297,-2.9365,-2.9414,-2.9424,-2.9512,-2.9619,-2.9639,-2.9675,-2.9648,-2.9902,-3.0059,-3.0088,-3.0322,-3.0615,-3.0615,-3.0557,-3.0566,-3.0605,-3.0605,-3.0518,-3.0478,-3.0244,-3.0107,-2.998,-2.9687,-2.945,-2.9264,-2.8918,-2.8647,-2.8767,-2.9268,-2.9837,-3.0183,-3.1157,-3.1913,-3.2572,-3.3224,-3.3892,-3.4178,-3.4376,-3.4438,-3.4426,-3.4198,-3.3885,-3.3801,-3.3693,-3.338,-3.3184,-3.301,-3.2861,-3.3022,-3.3058,-3.3289,-3.3257,-3.3099,-3.3124,-3.3124,-3.3124,-3.3074,-3.3111,-3.3124,-3.3124,-3.3124,-3.3124,-3.3124,-3.498,-3.448,-3.4469,-3.3976,-3.3346,-3.3119,-3.3199,-3.3387,-3.3408,-3.3775,-3.4318,-3.4567,-3.4763,-3.4928,-3.4515,-3.41,-3.3655,-3.3005,-3.2522,-3.217,-3.1904,-3.1826,-3.1797,-3.1562,-3.1338,-3.0996,-3.0898,-3.0898,-3.0898,-3.0898,-3.0889,-3.0898,-3.0898,-3.0762,-3.0566,-3.0508,-3.043,-3.0283,-3.0185,-3.0185,-3.0195,-3.0185,-3.0195,-3.0185,-3.0185,-3.0195,-3.0215,-3.0215,-3.0205,-3.0195,-3.0176,-3.0068,-2.9893,-2.9873,-2.9961,-3.0156,-3.0195,-3.0185,-3.0273,-3.0381,-3.0527,-3.0508,-3.0762,-3.084,-3.0898,-3.0898,-3.0898,-3.0898,-3.0879,-3.0879,-3.0879,-3.0732,-3.0537,-3.0439,-3.0127,-2.9939,-2.9961,-2.947,-2.9098,-2.9307,-2.976,-3.0287,-3.0909,-3.1812,-3.2432,-3.3035,-3.3621,-3.4237,-3.4286,-3.4459,-3.4617,-3.4631,-3.451,-3.4342,-3.4294,-3.4102,-3.3777,-3.3641,-3.3603,-3.3542,-3.3568,-3.3578,-3.3614,-3.3439,-3.3237,-3.3136,-3.3124,-3.3124,-3.3124,-3.3124,-3.3124,-3.3124,-3.3124,-3.3124,-3.3124,-3.6091,-3.5598,-3.5587,-3.5268,-3.4714,-3.4511,-3.4762,-3.5282,-3.5242,-3.5583,-3.6198,-3.638,-3.6457,-3.6348,-3.5864,-3.529,-3.449,-3.3619,-3.299,-3.2787,-3.2639,-3.257,-3.253,-3.2373,-3.2067,-3.1299,-3.1123,-3.1045,-3.1016,-3.0928,-3.0898,-3.0898,-3.0898,-3.0859,-3.0869,-3.0889,-3.081,-3.0752,-3.0742,-3.0762,-3.0781,-3.0781,-3.0791,-3.0771,-3.0762,-3.0762,-3.0752,-3.0771,-3.083,-3.0898,-3.0898,-3.0684,-3.043,-3.0322,-3.0439,-3.084,-3.0781,-3.0742,-3.0723,-3.082,-3.085,-3.0898,-3.0889,-3.0889,-3.0898,-3.0898,-3.0898,-3.0898,-3.0898,-3.0898,-3.0889,-3.084,-3.085,-3.0791,-3.0498,-3.0514,-3.0584,-3.0121,-2.9988,-3.0038,-3.0674,-3.1238,-3.1735,-3.242,-3.2935,-3.3446,-3.404,-3.447,-3.4531,-3.458,-3.4726,-3.4775,-3.4643,-3.4595,-3.4559,-3.4499,-3.4186,-3.4112,-3.408,-3.413,-3.4142,-3.4115,-3.4034,-3.3552,-3.3319,-3.3312,-3.3199,-3.3124,-3.3124,-3.3124,-3.3124,-3.3124,-3.3124,-3.3124,-3.3162,-3.6808,-3.6483,-3.6483,-3.6145,-3.5709,-3.5948,-3.6129,-3.6173,-3.6725,-3.7279,-3.7708,-3.8008,-3.8154,-3.8109,-3.7673,-3.6702,-3.5432,-3.4493,-3.4039,-3.3917,-3.3707,-3.3546,-3.3506,-3.3346,-3.3045,-3.2625,-3.2068,-3.1643,-3.1387,-3.1094,-3.1123,-3.1006,-3.0967,-3.0976,-3.0957,-3.0898,-3.0928,-3.0898,-3.0898,-3.0898,-3.0898,-3.0898,-3.0898,-3.0898,-3.0898,-3.0898,-3.0898,-3.0898,-3.0898,-3.0898,-3.0898,-3.084,-3.0752,-3.0732,-3.0791,-3.0859,-3.0898,-3.0898,-3.0898,-3.0898,-3.0898,-3.0898,-3.0898,-3.0898,-3.0898,-3.0898,-3.0898,-3.0898,-3.0898,-3.0898,-3.0898,-3.0898,-3.0898,-3.085,-3.081,-3.0829,-3.1077,-3.1117,-3.1068,-3.1065,-3.172,-3.2273,-3.2638,-3.3003,-3.3484,-3.3892,-3.4335,-3.4628,-3.4677,-3.4726,-3.4775,-3.4775,-3.4751,-3.4739,-3.4715,-3.4691,-3.4607,-3.4559,-3.4568,-3.4644,-3.4644,-3.4595,-3.441,-3.4104,-3.3809,-3.3658,-3.3526,-3.335,-3.3338,-3.3458,-3.335,-3.3187,-3.3388,-3.352,-3.3294,-3.74,-3.7143,-3.7155,-3.6928,-3.6618,-3.707,-3.7384,-3.7572,-3.8169,-3.8735,-3.9082,-3.9337,-3.9442,-3.9357,-3.8882,-3.7736,-3.633,-3.5479,-3.5108,-3.4902,-3.4882,-3.478,-3.4718,-3.4574,-3.4482,-3.4227,-3.3558,-3.2815,-3.2396,-3.2038,-3.1811,-3.1791,-3.1662,-3.1445,-3.126,-3.124,-3.1094,-3.0986,-3.0918,-3.0918,-3.0918,-3.0918,-3.0908,-3.0908,-3.0918,-3.0898,-3.0898,-3.0898,-3.0898,-3.0898,-3.0898,-3.0898,-3.0918,-3.0918,-3.0918,-3.0928,-3.0908,-3.0898,-3.0898,-3.0898,-3.0898,-3.0898,-3.0898,-3.0898,-3.0898,-3.0898,-3.0898,-3.0898,-3.0898,-3.0898,-3.0898,-3.0898,-3.0898,-3.0898,-3.0898,-3.1112,-3.1459,-3.1738,-3.187,-3.2004,-3.2381,-3.286,-3.3362,-3.3712,-3.4049,-3.4384,-3.464,-3.4726,-3.4775,-3.4775,-3.4775,-3.4775,-3.4775,-3.4775,-3.4775,-3.4775,-3.4775,-3.4836,-3.4896,-3.4977,-3.5104,-3.5124,-3.5069,-3.4919,-3.4625,-3.4242,-3.4161,-3.4098,-3.3985,-3.3872,-3.3922,-3.3947,-3.396,-3.3922,-3.3721,-3.788,-3.7691,-3.7702,-3.753,-3.7387,-3.7977,-3.8461,-3.8922,-3.9535,-4.0019,-4.0362,-4.0397,-4.0316,-4.0118,-3.9414,-3.8384,-3.7121,-3.6452,-3.6095,-3.5962,-3.6053,-3.6063,-3.5951,-3.6023,-3.599,-3.5741,-3.5319,-3.4591,-3.3477,-3.3015,-3.2794,-3.2544,-3.2371,-3.2082,-3.1709,-3.165,-3.1396,-3.1269,-3.1152,-3.1152,-3.1152,-3.1143,-3.1143,-3.1152,-3.1152,-3.1191,-3.125,-3.126,-3.125,-3.124,-3.1221,-3.1191,-3.1162,-3.1152,-3.1152,-3.1123,-3.0996,-3.0908,-3.0898,-3.0898,-3.0898,-3.0898,-3.0898,-3.0898,-3.0898,-3.0898,-3.0898,-3.0898,-3.0898,-3.0898,-3.0898,-3.0898,-3.0898,-3.0898,-3.0957,-3.1064,-3.1498,-3.1917,-3.2432,-3.263,-3.2942,-3.3447,-3.4045,-3.4291,-3.4653,-3.4684,-3.4942,-3.4726,-3.4775,-3.4775,-3.4775,-3.4775,-3.4775,-3.4775,-3.4775,-3.4775,-3.4775,-3.4787,-3.4969,-3.5113,-3.5377,-3.5556,-3.5496,-3.5301,-3.5328,-3.4982,-3.4936,-3.4705,-3.4474,-3.4387,-3.458,-3.4593,-3.4424,-3.4374,-3.4286,-3.7986,-3.7933,-3.7933,-3.7933,-3.8023,-3.8935,-3.9414,-3.9606,-4.0518,-4.0985,-4.1,-4.1069,-4.0896,-4.0421,-3.9414,-3.867,-3.8063,-3.7544,-3.7253,-3.7193,-3.7242,-3.7303,-3.7193,-3.7193,-3.7182,-3.6989,-3.6742,-3.5686,-3.4582,-3.386,-3.3266,-3.2934,-3.2792,-3.2442,-3.218,-3.209,-3.207,-3.2062,-3.2033,-3.1963,-3.1953,-3.1934,-3.1934,-3.1943,-3.1934,-3.1894,-3.1855,-3.1846,-3.1885,-3.1914,-3.1963,-3.2053,-3.2082,-3.2012,-3.2012,-3.1787,-3.1396,-3.0898,-3.0986,-3.1045,-3.1045,-3.1074,-3.1016,-3.0928,-3.1025,-3.1045,-3.1035,-3.0898,-3.0947,-3.1016,-3.1055,-3.0947,-3.0918,-3.0908,-3.0928,-3.1073,-3.1383,-3.172,-3.2297,-3.2931,-3.3114,-3.3999,-3.4778,-3.4953,-3.5173,-3.5167,-3.5147,-3.4979,-3.4799,-3.4811,-3.4775,-3.4775,-3.4775,-3.4775,-3.4775,-3.4775,-3.4775,-3.4775,-3.4969,-3.5175,-3.5368,-3.5524,-3.562,-3.5493,-3.5536,-3.5429,-3.5135,-3.4869,-3.4748,-3.4868,-3.514,-3.4989,-3.4655,-3.468,-3.4889,-3.8145,-3.7974,-3.7974,-3.7974,-3.8118,-3.914,-3.9609,-3.9838,-4.0715,-4.1184,-4.1184,-4.1184,-4.1012,-4.0537,-3.9884,-3.9462,-3.9097,-3.8633,-3.8466,-3.8514,-3.8563,-3.8633,-3.8514,-3.8466,-3.8395,-3.8096,-3.7665,-3.6935,-3.5797,-3.4952,-3.434,-3.3891,-3.3522,-3.3073,-3.262,-3.2529,-3.2363,-3.2226,-3.2209,-3.2158,-3.2229,-3.2178,-3.2178,-3.2178,-3.2197,-3.2207,-3.2207,-3.2229,-3.2229,-3.2229,-3.2229,-3.2229,-3.2229,-3.2158,-3.2148,-3.219,-3.1925,-3.165,-3.1631,-3.1601,-3.1562,-3.1592,-3.1592,-3.166,-3.1621,-3.1582,-3.1642,-3.1681,-3.1621,-3.1592,-3.1504,-3.1377,-3.1279,-3.1211,-3.1113,-3.1142,-3.1336,-3.145,-3.191,-3.2649,-3.3412,-3.4186,-3.4933,-3.5196,-3.5408,-3.5687,-3.5671,-3.5591,-3.5243,-3.4931,-3.4871,-3.4775,-3.4775,-3.4775,-3.4775,-3.4775,-3.4775,-3.4775,-3.4775,-3.5017,-3.5175,-3.532,-3.5368,-3.5524,-3.5581,-3.5439,-3.5198,-3.536,-3.5545,-3.5617,-3.5655,-3.5516,-3.5403,-3.5592,-3.5642,-3.8421,-3.8092,-3.8039,-3.7974,-3.8082,-3.9152,-3.9609,-3.9741,-4.0739,-4.1184,-4.1184,-4.1184,-4.1069,-4.0781,-4.0479,-4.0118,-3.9989,-3.9661,-3.9532,-3.965,-3.9697,-3.9697,-3.9532,-3.9473,-3.9297,-3.899,-3.8395,-3.7714,-3.6989,-3.6093,-3.5252,-3.4797,-3.4168,-3.3651,-3.3152,-3.2939,-3.2822,-3.2627,-3.2578,-3.2568,-3.2549,-3.2539,-3.2529,-3.2519,-3.249,-3.248,-3.248,-3.2519,-3.2519,-3.2539,-3.2559,-3.2598,-3.2588,-3.2617,-3.2607,-3.2598,-3.249,-3.249,-3.2373,-3.2275,-3.2207,-3.2229,-3.2229,-3.2111,-3.215,-3.2168,-3.2219,-3.2121,-3.2131,-3.21,-3.21,-3.1826,-3.1738,-3.1601,-3.1475,-3.1476,-3.1474,-3.1806,-3.1986,-3.2436,-3.3247,-3.4056,-3.4713,-3.5176,-3.562,-3.6074,-3.6192,-3.6129,-3.5783,-3.5364,-3.5196,-3.5124,-3.4835,-3.4823,-3.4799,-3.4787,-3.4787,-3.4775,-3.4775,-3.4823,-3.5017,-3.5066,-3.5126,-3.5271,-3.5464,-3.5402,-3.518,-3.5757,-3.631,-3.6075,-3.595,-3.6182,-3.6292,-3.6417,-3.6329,-3.8893,-3.8356,-3.808,-3.8027,-3.8058,-3.914,-3.9609,-3.9705,-4.0727,-4.1172,-4.1184,-4.1184,-4.1184,-4.1069,-4.0838,-4.0665,-4.0595,-4.0293,-4.0176,-4.0176,-4.0165,-4.0235,-4.0176,-4.0118,-3.9943,-3.9603,-3.8942,-3.8347,-3.7687,-3.6667,-3.5603,-3.4538,-3.4423,-3.3965,-3.3519,-3.3252,-3.3262,-3.3135,-3.3144,-3.3184,-3.3193,-3.3203,-3.3213,-3.3242,-3.3281,-3.333,-3.332,-3.3223,-3.3174,-3.3164,-3.3144,-3.3144,-3.3105,-3.3125,-3.3115,-3.3115,-3.3115,-3.3115,-3.3037,-3.2656,-3.2336,-3.2258,-3.2246,-3.2353,-3.2393,-3.2256,-3.2258,-3.2314,-3.2422,-3.2334,-3.2336,-3.2199,-3.2119,-3.2111,-3.2025,-3.2058,-3.2078,-3.2303,-3.2504,-3.2553,-3.3193,-3.4162,-3.4814,-3.5378,-3.5971,-3.6449,-3.6502,-3.6429,-3.6288,-3.5942,-3.5701,-3.5485,-3.5051,-3.4907,-3.4835,-3.4811,-3.4787,-3.4775,-3.4775,-3.4775,-3.4823,-3.4872,-3.4969,-3.5017,-3.5175,-3.5175,-3.5271,-3.5608,-3.5908,-3.6051,-3.6146,-3.6275,-3.637,-3.6417,-3.6417,-3.9062,-3.8631,-3.8356,-3.8145,-3.8058,-3.914,-3.9609,-3.9789,-4.0715,-4.1184,-4.1184,-4.1184,-4.1184,-4.1184,-4.1127,-4.1012,-4.1012,-4.0884,-4.0815,-4.0815,-4.0826,-4.0826,-4.0769,-4.0537,-4.0363,-3.9896,-3.9226,-3.8526,-3.7818,-3.6972,-3.6044,-3.517,-3.4735,-3.4173,-3.3796,-3.3544,-3.3418,-3.3418,-3.3418,-3.3418,-3.3418,-3.3418,-3.3418,-3.3418,-3.3418,-3.3418,-3.3398,-3.3408,-3.3418,-3.3418,-3.3418,-3.3418,-3.3418,-3.3418,-3.3418,-3.3418,-3.3418,-3.3418,-3.3418,-3.3105,-3.2959,-3.293,-3.2949,-3.291,-3.2842,-3.29,-3.293,-3.2949,-3.2891,-3.2822,-3.291,-3.2725,-3.2549,-3.2552,-3.2546,-3.2592,-3.2785,-3.3053,-3.3292,-3.3534,-3.394,-3.4636,-3.5179,-3.5729,-3.6268,-3.6838,-3.677,-3.6752,-3.666,-3.6495,-3.623,-3.5978,-3.5605,-3.5376,-3.5316,-3.51,-3.4823,-3.4847,-3.4871,-3.4871,-3.4907,-3.4823,-3.4872,-3.4872,-3.4872,-3.4969,-3.5114,-3.532,-3.5524,-3.5716,-3.5955,-3.6181,-3.6275,-3.637,-3.637,-3.9206,-3.8945,-3.8736,-3.8409,-3.8183,-3.9152,-3.9609,-3.9789,-4.0727,-4.1184,-4.1184,-4.1184,-4.1184,-4.1184,-4.1184,-4.1184,-4.1184,-4.1127,-4.1184,-4.1127,-4.1127,-4.1184,-4.1115,-4.0942,-4.0653,-4.0235,-3.9521,-3.8812,-3.8227,-3.7264,-3.6656,-3.6034,-3.5345,-3.4787,-3.4047,-3.3733,-3.3544,-3.3418,-3.3418,-3.3418,-3.3418,-3.3418,-3.3418,-3.3418,-3.3418,-3.3418,-3.3418,-3.3418,-3.3418,-3.3418,-3.3418,-3.3418,-3.3418,-3.3418,-3.3418,-3.3418,-3.3418,-3.3418,-3.3418,-3.3418,-3.3418,-3.331,-3.333,-3.335,-3.3418,-3.3418,-3.3291,-3.333,-3.3369,-3.3408,-3.3408,-3.3135,-3.3113,-3.3126,-3.3161,-3.323,-3.367,-3.3938,-3.4254,-3.4546,-3.5053,-3.5608,-3.5837,-3.6406,-3.6766,-3.7275,-3.7328,-3.7356,-3.7324,-3.706,-3.6723,-3.6459,-3.617,-3.599,-3.5833,-3.5689,-3.5557,-3.5509,-3.5473,-3.522,-3.5148,-3.4979,-3.4823,-3.4823,-3.4823,-3.4823,-3.492,-3.5078,-3.5271,-3.5416,-3.5704,-3.5943,-3.6146,-3.6193,-3.6323,-3.9542,-3.9322,-3.927,-3.8788,-3.8261,-3.9152,-3.9609,-3.9741,-4.0703,-4.1184,-4.1184,-4.1184,-4.1184,-4.1184,-4.1184,-4.1184,-4.1184,-4.1184,-4.1184,-4.1184,-4.1184,-4.1184,-4.1184,-4.1069,-4.0896,-4.0595,-4.0001,-3.9333,-3.88,-3.8107,-3.7626,-3.7236,-3.6516,-3.5644,-3.4496,-3.4037,-3.3723,-3.3481,-3.3418,-3.3418,-3.3418,-3.3418,-3.3418,-3.3418,-3.3418,-3.3418,-3.3418,-3.3418,-3.3418,-3.3418,-3.3418,-3.3418,-3.3418,-3.3418,-3.3481,-3.3491,-3.3481,-3.3481,-3.3418,-3.3418,-3.3418,-3.3418,-3.3418,-3.3418,-3.3418,-3.3418,-3.3418,-3.3418,-3.3418,-3.3418,-3.3408,-3.3398,-3.3529,-3.3668,-3.3694,-3.4153,-3.4523,-3.5126,-3.5472,-3.5914,-3.642,-3.6837,-3.6914,-3.713,-3.7385,-3.7685,-3.785,-3.7861,-3.7781,-3.7589,-3.7216,-3.7,-3.6747,-3.6519,-3.6374,-3.6326,-3.6242,-3.6182,-3.6014,-3.5737,-3.5521,-3.54,-3.5208,-3.4907,-3.4931,-3.504,-3.4931,-3.4823,-3.5017,-3.5211,-3.5416,-3.5656,-3.586,-3.6063,-3.6193,-3.953,-3.9322,-3.9322,-3.922,-3.9201,-3.9655,-3.9763,-3.9789,-4.0655,-4.1184,-4.1184,-4.1184,-4.1184,-4.1184,-4.1184,-4.1184,-4.1184,-4.1184,-4.1184,-4.1184,-4.1184,-4.1184,-4.1184,-4.1184,-4.1024,-4.0653,-4.0235,-3.9873,-3.9462,-3.8882,-3.8395,-3.7938,-3.7741,-3.6482,-3.519,-3.4538,-3.436,-3.3859,-3.3733,-3.367,-3.3428,-3.3447,-3.3467,-3.3467,-3.3476,-3.3457,-3.3457,-3.3457,-3.3418,-3.3418,-3.3418,-3.3418,-3.3481,-3.3544,-3.3733,-3.3796,-3.3849,-3.4047,-3.3985,-3.3859,-3.3607,-3.3481,-3.3418,-3.3418,-3.3418,-3.3418,-3.3418,-3.3418,-3.3418,-3.3418,-3.3408,-3.3408,-3.3505,-3.3892,-3.4208,-3.4995,-3.5608,-3.6328,-3.6839,-3.7412,-3.7941,-3.817,-3.8283,-3.7993,-3.8136,-3.8114,-3.8269,-3.807,-3.7902,-3.789,-3.7697,-3.7541,-3.7324,-3.7084,-3.6904,-3.6831,-3.6699,-3.6579,-3.6423,-3.6218,-3.6026,-3.5857,-3.5665,-3.5473,-3.5364,-3.5268,-3.5016,-3.4823,-3.4823,-3.4969,-3.5175,-3.5416,-3.562,-3.5872,-3.6063,-3.9594,-3.9426,-3.9426,-3.9469,-3.9652,-3.9981,-4.0263,-4.0546,-4.1112,-4.1344,-4.1344,-4.123,-4.1184,-4.1184,-4.1184,-4.1184,-4.1184,-4.1184,-4.1184,-4.1184,-4.1184,-4.1184,-4.1184,-4.1184,-4.1127,-4.0826,-4.0537,-4.0246,-4.006,-3.9579,-3.9281,-3.9186,-3.9124,-3.8396,-3.7183,-3.6457,-3.5652,-3.5177,-3.4889,-3.4668,-3.4339,-3.4118,-3.4044,-3.3931,-3.3789,-3.3672,-3.3613,-3.3535,-3.3428,-3.3428,-3.3428,-3.3491,-3.3607,-3.3733,-3.3985,-3.411,-3.435,-3.4548,-3.4485,-3.4423,-3.4173,-3.3859,-3.3554,-3.3418,-3.3418,-3.3418,-3.3418,-3.3418,-3.3418,-3.3418,-3.3418,-3.3418,-3.367,-3.4047,-3.4662,-3.5387,-3.6369,-3.7078,-3.7768,-3.8369,-3.9036,-3.9296,-3.9442,-3.9114,-3.8873,-3.8755,-3.8647,-3.8359,-3.807,-3.7998,-3.7986,-3.7841,-3.7745,-3.7541,-3.7372,-3.7312,-3.7168,-3.6988,-3.6831,-3.6687,-3.6543,-3.6374,-3.617,-3.5942,-3.5701,-3.5412,-3.5004,-3.4823,-3.4919,-3.4956,-3.4981,-3.5175,-3.5416,-3.562,-3.5824,-3.9697,-3.9697,-3.9697,-3.9555,-3.9506,-4.0281,-4.1115,-4.198,-4.172,-4.1594,-4.1606,-4.1402,-4.1299,-4.1242,-4.1242,-4.1242,-4.1184,-4.1184,-4.1184,-4.1184,-4.1184,-4.1184,-4.1184,-4.1184,-4.1127,-4.1069,-4.092,-4.0782,-4.07,-4.054,-4.0468,-4.0698,-4.0872,-4.0336,-3.9566,-3.8775,-3.7625,-3.6661,-3.6067,-3.5737,-3.5266,-3.5052,-3.4808,-3.4589,-3.4313,-3.4121,-3.3984,-3.3779,-3.3584,-3.3496,-3.3447,-3.3617,-3.3796,-3.3922,-3.411,-3.4433,-3.487,-3.52,-3.5293,-3.5314,-3.5261,-3.5092,-3.4372,-3.3822,-3.3481,-3.3607,-3.367,-3.3607,-3.367,-3.3544,-3.3554,-3.367,-3.3859,-3.4298,-3.4797,-3.5716,-3.6757,-3.7605,-3.8335,-3.9064,-3.9814,-4.0124,-4.0156,-3.9974,-3.9498,-3.9398,-3.92,-3.8827,-3.8503,-3.8022,-3.801,-3.7962,-3.7914,-3.7938,-3.7817,-3.7649,-3.7613,-3.7433,-3.7336,-3.7192,-3.7048,-3.6904,-3.6735,-3.6459,-3.5978,-3.5591,-3.5449,-3.5244,-3.5112,-3.5076,-3.5221,-3.4993,-3.5248,-3.5284,-3.5476,-3.9697,-3.9697,-3.9697,-3.9859,-4.0307,-4.1293,-4.1904,-4.2061,-4.1984,-4.1984,-4.1972,-4.1871,-4.17,-4.1504,-4.1504,-4.1402,-4.1299,-4.1184,-4.1184,-4.1184,-4.1184,-4.1184,-4.1184,-4.1184,-4.1184,-4.1184,-4.1105,-4.1203,-4.154,-4.1531,-4.1863,-4.2274,-4.2233,-4.2048,-4.1821,-4.153,-3.9702,-3.8189,-3.7507,-3.6854,-3.6186,-3.5751,-3.547,-3.5205,-3.4779,-3.4606,-3.4424,-3.4101,-3.3916,-3.3931,-3.3837,-3.3889,-3.3859,-3.436,-3.4797,-3.5531,-3.6235,-3.6933,-3.6965,-3.7199,-3.7253,-3.7012,-3.6666,-3.5464,-3.479,-3.4315,-3.4398,-3.4468,-3.4355,-3.4355,-3.4253,-3.4348,-3.4506,-3.4974,-3.5479,-3.6268,-3.7253,-3.8047,-3.8834,-3.965,-4.0421,-4.0709,-4.0706,-4.0511,-4.0082,-4.0006,-3.9777,-3.9393,-3.8936,-3.8467,-3.8166,-3.8142,-3.7974,-3.7974,-3.7974,-3.7841,-3.7902,-3.789,-3.7733,-3.7637,-3.7589,-3.7457,-3.73,-3.6964,-3.6459,-3.6218,-3.6086,-3.5869,-3.5617,-3.5701,-3.5749,-3.5366,-3.5065,-3.5175,-3.5199,-3.9697,-3.9697,-3.9697,-4.0011,-4.0614,-4.1455,-4.1926,-4.2134,-4.2226,-4.2256,-4.2256,-4.2098,-4.1984,-4.1846,-4.1789,-4.1688,-4.139,-4.1402,-4.1344,-4.1184,-4.1184,-4.1184,-4.1184,-4.1184,-4.1184,-4.1184,-4.1268,-4.1437,-4.2003,-4.2604,-4.2962,-4.3068,-4.3134,-4.3219,-4.3122,-4.286,-4.196,-4.0367,-3.9172,-3.8284,-3.7486,-3.6713,-3.6416,-3.5884,-3.5475,-3.5178,-3.4912,-3.4616,-3.441,-3.4511,-3.4453,-3.4648,-3.4839,-3.5483,-3.6175,-3.6885,-3.7522,-3.8192,-3.8485,-3.8773,-3.8927,-3.8993,-3.8868,-3.804,-3.7095,-3.6499,-3.6175,-3.5986,-3.5602,-3.5322,-3.5178,-3.5106,-3.5418,-3.5726,-3.6279,-3.6889,-3.7676,-3.8477,-3.9308,-4.0188,-4.0711,-4.1012,-4.1028,-4.0812,-4.0667,-4.0559,-4.0343,-4.0006,-3.9489,-3.8936,-3.8611,-3.8467,-3.8178,-3.7974,-3.7974,-3.7974,-3.7974,-3.7974,-3.7926,-3.7878,-3.7974,-3.7853,-3.7577,-3.7264,-3.6916,-3.6711,-3.6507,-3.6374,-3.6218,-3.629,-3.6278,-3.5942,-3.5485,-3.5174,-3.5138,-3.9697,-3.9697,-3.9697,-4.0011,-4.0551,-4.1087,-4.1639,-4.2195,-4.2401,-4.2525,-4.2525,-4.2324,-4.2211,-4.2142,-4.2098,-4.1915,-4.1675,-4.1561,-4.1447,-4.1242,-4.1184,-4.1184,-4.1184,-4.1184,-4.1184,-4.1184,-4.1377,-4.1749,-4.2315,-4.2976,-4.3503,-4.3613,-4.3911,-4.3989,-4.3814,-4.3764,-4.3122,-4.2276,-4.1204,-4.0318,-3.9312,-3.8563,-3.7893,-3.7159,-3.644,-3.5858,-3.5503,-3.5191,-3.4943,-3.5224,-3.5481,-3.5735,-3.6349,-3.6851,-3.7572,-3.8217,-3.872,-3.935,-3.9853,-4.0197,-4.0321,-4.035,-4.0203,-4.0158,-3.9615,-3.8366,-3.7831,-3.7548,-3.7179,-3.698,-3.6791,-3.6602,-3.6694,-3.6916,-3.732,-3.7808,-3.8406,-3.9131,-3.9837,-4.0537,-4.0896,-4.1127,-4.116,-4.0956,-4.0932,-4.0956,-4.0848,-4.0511,-4.0138,-3.9549,-3.9104,-3.8827,-3.8503,-3.8202,-3.7974,-3.7974,-3.7974,-3.7974,-3.7974,-3.7974,-3.7974,-3.7902,-3.7805,-3.7565,-3.7324,-3.7084,-3.6879,-3.6867,-3.6855,-3.6783,-3.6723,-3.6543,-3.6122,-3.5617,-3.5305,-3.9697,-3.9697,-3.9697,-4.0011,-4.0563,-4.105,-4.1643,-4.2238,-4.2692,-4.2862,-4.2862,-4.2762,-4.265,-4.2425,-4.2425,-4.2243,-4.1972,-4.1777,-4.1606,-4.1447,-4.1344,-4.1242,-4.1184,-4.1184,-4.1208,-4.1329,-4.1629,-4.2267,-4.2976,-4.3673,-4.4069,-4.4069,-4.4285,-4.4223,-4.4161,-4.4149,-4.3888,-4.3451,-4.2874,-4.1783,-4.0636,-3.9473,-3.8605,-3.7929,-3.7232,-3.6656,-3.6269,-3.5897,-3.5709,-3.5772,-3.6237,-3.6761,-3.7498,-3.7901,-3.827,-3.8818,-3.9704,-4.0455,-4.1069,-4.1604,-4.193,-4.2272,-4.2358,-4.2467,-4.1833,-4.0378,-3.9441,-3.917,-3.8916,-3.8674,-3.8462,-3.8195,-3.8043,-3.8207,-3.8343,-3.8785,-3.9165,-3.9779,-4.0433,-4.0723,-4.1012,-4.1127,-4.1184,-4.1184,-4.1184,-4.116,-4.1124,-4.0944,-4.0775,-4.0306,-3.9597,-3.926,-3.8888,-3.8563,-3.825,-3.8058,-3.8106,-3.801,-3.7974,-3.7974,-3.7974,-3.7926,-3.7878,-3.789,-3.7745,-3.7493,-3.7433,-3.7625,-3.7577,-3.736,-3.7204,-3.7036,-3.6843,-3.6411,-3.5942,-3.9697,-3.9697,-3.9697,-3.9873,-4.0262,-4.0937,-4.1517,-4.1894,-4.2635,-4.2986,-4.2986,-4.2986,-4.2874,-4.275,-4.2694,-4.2525,-4.2312,-4.213,-4.1834,-4.1606,-4.1447,-4.1287,-4.1242,-4.122,-4.1413,-4.1593,-4.2339,-4.3048,-4.3589,-4.3961,-4.4261,-4.4285,-4.4285,-4.4285,-4.4285,-4.4285,-4.4211,-4.4013,-4.3701,-4.2874,-4.1731,-4.0766,-3.9659,-3.8935,-3.8206,-3.7595,-3.7018,-3.6673,-3.6633,-3.6886,-3.7484,-3.8064,-3.8712,-3.9227,-3.9642,-4.0132,-4.086,-4.1628,-4.2286,-4.2802,-4.3326,-4.3576,-4.3701,-4.3497,-4.3497,-4.2222,-4.1877,-4.1558,-4.0802,-4.0513,-4.0265,-4.0056,-3.9842,-3.9873,-3.9715,-3.9827,-4.0082,-4.0479,-4.0781,-4.0954,-4.1127,-4.1184,-4.1184,-4.1184,-4.1184,-4.1184,-4.1172,-4.1172,-4.1052,-4.0944,-4.027,-3.9777,-3.9453,-3.8984,-3.8575,-3.8383,-3.8298,-3.8178,-3.8046,-3.7986,-3.7998,-3.7986,-3.7962,-3.795,-3.795,-3.7902,-3.7926,-3.7974,-3.7974,-3.7745,-3.7637,-3.7553,-3.7336,-3.712,-3.6723,-3.9697,-3.9697,-3.9697,-3.9697,-3.9873,-4.0824,-4.1288,-4.1489,-4.2484,-4.2986,-4.2986,-4.2986,-4.2986,-4.2986,-4.2986,-4.2806,-4.2569,-4.2413,-4.2118,-4.1834,-4.1651,-4.1504,-4.1381,-4.1362,-4.1784,-4.2291,-4.2988,-4.3373,-4.3734,-4.413,-4.4285,-4.4285,-4.4285,-4.4285,-4.4285,-4.4285,-4.4285,-4.4149,-4.395,-4.3627,-4.2874,-4.2136,-4.096,-3.9975,-3.9188,-3.8538,-3.794,-3.7549,-3.7472,-3.7965,-3.8621,-3.9356,-3.992,-4.0469,-4.091,-4.1433,-4.1792,-4.2517,-4.3142,-4.3443,-4.3826,-4.4149,-4.4285,-4.4285,-4.4273,-4.4063,-4.3704,-4.329,-4.2576,-4.2153,-4.1901,-4.1735,-4.1576,-4.1251,-4.1038,-4.0797,-4.0963,-4.1143,-4.1165,-4.1268,-4.1196,-4.1196,-4.1184,-4.1184,-4.1184,-4.1184,-4.1184,-4.1184,-4.116,-4.1076,-4.0739,-4.0427,-4.0198,-3.9669,-3.9056,-3.8852,-3.8755,-3.8443,-3.831,-3.8142,-3.801,-3.7986,-3.7974,-3.7974,-3.7974,-3.7974,-3.7974,-3.7974,-3.7974,-3.7974,-3.789,-3.7769,-3.7733,-3.7529,-3.7397,-3.9697,-3.9697,-3.9697,-3.9697,-3.986,-4.0877,-4.1275,-4.1463,-4.2497,-4.2986,-4.2986,-4.2986,-4.2986,-4.2986,-4.2986,-4.2918,-4.2806,-4.2638,-4.2525,-4.2356,-4.1891,-4.1663,-4.171,-4.1972,-4.247,-4.2964,-4.3445,-4.3721,-4.3914,-4.4117,-4.4261,-4.4225,-4.4213,-4.4213,-4.4225,-4.4225,-4.4189,-4.4127,-4.4125,-4.3888,-4.3251,-4.2506,-4.1806,-4.0895,-4.004,-3.9396,-3.888,-3.8293,-3.8293,-3.8681,-3.9473,-4.0377,-4.1024,-4.1474,-4.1859,-4.2241,-4.2685,-4.3,-4.3502,-4.3752,-4.4075,-4.4223,-4.4285,-4.4285,-4.4285,-4.4285,-4.4063,-4.4001,-4.3464,-4.3192,-4.2985,-4.2934,-4.2758,-4.235,-4.2037,-4.1804,-4.1814,-4.1715,-4.1641,-4.1449,-4.122,-4.1208,-4.1184,-4.1184,-4.1184,-4.1184,-4.1184,-4.1184,-4.1184,-4.1148,-4.1124,-4.0956,-4.0775,-4.0294,-3.9657,-3.9477,-3.9308,-3.8924,-3.8575,-3.8407,-3.8214,-3.7998,-3.7974,-3.7974,-3.7974,-3.7974,-3.7974,-3.7974,-3.7974,-3.7974,-3.7974,-3.7938,-3.7938,-3.789,-3.7697]},{"header":{"parameterUnit":"m.s-1","parameterCategory":1,"la1":31.0,"la2":29.5877,"lo1":-88.7671,"lo2":-86.6584,"dy":0.0162,"dx":0.0185,"nx":115,"ny":88,"refTime":"2026-03-04T00:00:00:Z","depth":0,"parameterNumber":3,"parameterNumberName":"V-component_of_WINDS"},"data":[0.0,0.0,0.0,0.0,0.0,0.0,0.0,0.0,0.0,0.0,0.0,0.0,0.0,0.0,0.0,0.0,0.0,0.0,0.0,0.0,0.0,0.0,0.0,0.0,0.0,0.0,0.0,0.0,0.0,0.0,0.0,0.0,0.0,0.0,0.0,0.0,0.0,0.0,0.0,0.0,0.0,0.0,0.0,0.0,0.0,0.0,0.0,0.0,0.0,0.0,0.0,0.0,0.0,0.0,0.0,0.0,0.0,0.0,0.0,0.0,0.0,0.0,0.0,0.0,0.0,0.0,0.0,0.0,0.0,0.0,0.0,0.0,0.0,0.0,0.0,0.0,0.0,0.0,0.0,0.0,0.0,0.0,0.0,0.0,0.0,0.0,0.0,0.0,0.0,0.0,0.0,0.0,0.0,0.0,0.0,0.0,0.0,0.0,0.0,0.0,0.0,0.0,0.0,0.0,0.0,0.0,0.0,0.0,0.0,0.0,0.0,0.0,0.0,0.0,0.0,0.0,0.0,0.0,0.0,0.0,0.0,0.0,0.0,0.0,0.0,0.0,0.0,0.0,0.0,0.0,0.0,0.0,0.0,0.0,0.0,0.0,0.0,0.0,0.0,0.0,0.0,0.0,0.0,0.0,0.0,0.0,0.0,0.0,0.0,0.0,0.0,0.0,0.0,0.0,0.0,0.0,0.0,0.0,0.0,0.0,0.0,0.0,0.0,0.0,0.0,0.0,0.0,0.0,0.0,0.0,0.0,0.0,0.0,0.0,0.0,0.0,0.0,0.0,0.0,0.0,0.0,0.0,0.0,0.0,0.0,0.0,0.0,0.0,0.0,0.0,0.0,0.0,0.0,0.0,0.0,0.0,0.0,0.0,0.0,0.0,0.0,0.0,0.0,0.0,0.0,0.0,0.0,0.0,0.0,0.0,0.0,0.0,0.0,0.0,0.0,0.0,0.0,0.0,0.0,0.0,0.0,0.0,0.0,0.0,0.0,0.0,0.0,0.0,0.0,0.0,0.0,0.0,0.0,0.0,0.0,0.0,0.0,0.0,0.0,0.0,0.0,0.0,0.0,0.0,0.0,0.0,0.0,0.0,0.0,0.0,0.0,0.0,0.0,0.0,0.0,0.0,0.0,0.0,0.0,0.0,0.0,0.0,0.0,0.0,0.0,0.0,0.0,0.0,0.0,0.0,0.0,0.0,0.0,0.0,0.0,0.0,0.0,0.0,0.0,0.0,0.0,0.0,0.0,0.0,0.0,0.0,0.0,0.0,0.0,0.0,0.0,0.0,0.0,0.0,0.0,0.0,0.0,0.0,0.0,0.0,0.0,0.0,0.0,0.0,0.0,0.0,0.0,0.0,0.0,0.0,0.0,0.0,0.0,0.0,0.0,0.0,0.0,0.0,0.0,0.0,0.0,0.0,0.0,0.0,0.0,0.0,0.0,0.0,0.0,0.0,0.0,0.0,0.0,0.0,0.0,0.0,0.0,0.0,0.0,0.0,0.0,0.0,0.0,0.0,0.0,0.0,0.0,0.0,0.0,0.0,0.0,0.0,0.0,0.0,0.0,0.0,0.0,0.0,0.0,0.0,0.0,0.0,0.0,0.0,0.0,0.0,0.0,0.0,0.0,0.0,0.0,0.0,0.0,0.0,0.0,0.0,0.0,0.0,0.0,0.0,0.0,0.0,0.0,0.0,0.0,0.0,0.0,0.0,0.0,0.0,0.0,0.0,0.0,0.0,0.0,0.0,0.0,0.0,0.0,0.0,0.0,0.0,0.0,0.0,0.0,0.0,0.0,0.0,0.0,0.0,0.0,0.0,0.0,0.0,0.0,0.0,0.0,0.0,0.0,0.0,0.0,0.0,0.0,0.0,0.0,0.0,0.0,0.0,0.0,0.0,0.0,0.0,0.0,0.0,0.0,0.0,0.0,0.0,0.0,0.0,0.0,0.0,0.0,0.0,0.0,0.0,0.0,0.0,0.0,0.0,0.0,0.0,0.0,0.0,0.0,0.0,0.0,0.0,0.0,0.0,0.0,0.0,0.0,0.0,0.0,0.0,0.0,0.0,0.0,0.0,0.0,0.0,0.0,0.0,0.0,0.0,0.0,0.0,0.0,0.0,0.0,0.0,0.0,0.0,0.0,0.0,0.0,0.0,0.0,0.0,0.0,0.0,0.0,0.0,0.0,0.0,0.0,0.0,0.0,0.0,0.0,0.0,0.0,0.0,0.0,0.0,0.0,0.0,0.0,0.0,0.0,0.0,0.0,0.0,0.0,0.0,0.0,0.0,0.0,0.0,0.0,0.0,0.0,0.0,0.0,0.0,0.0,0.0,0.0,0.0,0.0,0.0,0.0,0.0,0.0,0.0,0.0,0.0,0.0,0.0,0.0,0.0,0.0,0.0,0.0,0.0,0.0,0.0,0.0,0.0,0.0,0.0,0.0,0.0,0.0,0.0,0.0,0.0,0.0,0.0,0.0,0.0,0.0,0.0,0.0,0.0,0.0,0.0,0.0,0.0,0.0,0.0,0.0,0.0,0.0,0.0,0.0,0.0,0.0,0.0,0.0,0.0,0.0,0.0,0.0,0.0,0.0,0.0,0.0,0.0,0.0,0.0,0.0,0.0,0.0,0.0,0.0,0.0,0.0,0.0,0.0,0.0,0.0,0.0,0.0,0.0,0.0,0.0,0.0,0.0,0.0,0.0,0.0,0.0,0.0,0.0,0.0,0.0,0.0,0.0,0.0,0.0,0.0,0.0,0.0,0.0,0.0,0.0,0.0,0.0,0.0,0.0,0.0,0.0,0.0,0.0,0.0,0.0,0.0,0.0,0.0,0.0,0.0,0.0,0.0,0.0,0.0,0.0,0.0,0.0,0.0,0.0,0.0,0.0,0.0,0.0,0.0,0.0,0.0,0.0,0.0,0.0,0.0,0.0,0.0,0.0,0.0,0.0,0.0,0.0,0.0,0.0,0.0,0.0,0.0,0.0,0.0,0.0,0.0,0.0,0.0,0.0,0.0,0.0,0.0,0.0,0.0,0.0,0.0,0.0,0.0,0.0,0.0,0.0,0.0,0.0,0.0,0.0,0.0,0.0,0.0,0.0,0.0,0.0,0.0,0.0,0.0,0.0,0.0,0.0,0.0,0.0,0.0,0.0,0.0,0.0,0.0,0.0,0.0,0.0,0.0,0.0,0.0,0.0,0.0,0.0,0.0,0.0,0.0,0.0,0.0,0.0,0.0,0.0,0.0,0.0,0.0,0.0,0.0,0.0,0.0,0.0,0.0,0.0,0.0,0.0,0.0,0.0,0.0,0.0,0.0,0.0,0.0,0.0,0.0,0.0,0.0,0.0,0.0,0.0,0.0,0.0,0.0,0.0,0.0,0.0,0.0,0.0,0.0,0.0,0.0,0.0,0.0,0.0,0.0,0.0,0.0,0.0,0.0,0.0,0.0,0.0,0.0,0.0,0.0,0.0,0.0,0.0,0.0,0.0,0.0,0.0,0.0,0.0,0.0,0.0,0.0,0.0,0.0,0.0,0.0,0.0,0.0,0.0,0.0,0.0,0.0,0.0,0.0,0.0,0.0,0.0,0.0,0.0,0.0,0.0,0.0,0.0,0.0,0.0,0.0,0.0,0.0,0.0,0.0,0.0,0.0,0.0,0.0,0.0,0.0,0.0,0.0,0.0,0.0,0.0,0.0,0.0,0.0,0.0,0.0,0.0,0.0,0.0,0.0,0.0,0.0,0.0,0.0,0.0,0.0,0.0,0.0,0.0,0.0,0.0,0.0,0.0,0.0,0.0,0.0,0.0,0.0,0.0,0.0,0.0,0.0,0.0,0.0,0.0,0.0,0.0,0.0,0.0,0.0,0.0,0.0,0.0,0.0,0.0,0.0,0.0,0.0,0.0,0.0,0.0,0.0,0.0,0.0,0.0,0.0,0.0,0.0,0.0,0.0,0.0,0.0,0.0,0.0,0.0,0.0,0.0,0.0,0.0,0.0,0.0,0.0,0.0,0.0,0.0,0.0,0.0,0.0,0.0,0.0,0.0,0.0,0.0,0.0,0.0,0.0,0.0,0.0,0.0,0.0,0.0,0.0,0.0,0.0,0.0,0.0,0.0,0.0,0.0,0.0,0.0,0.0,0.0,0.0,0.0,0.0,0.0,0.0,0.0,0.0,0.0,0.0,0.0,0.0,0.0,0.0,0.0,0.0,0.0,0.0,0.0,0.0,0.0,0.0,0.0,0.0,0.0,0.0,0.0,0.0,0.0,1.8782,0.0,0.0,0.0,0.0,0.0,0.0,0.0,0.0,0.0,0.0,0.0,0.0,0.0,0.0,0.0,0.0,0.0,0.0,0.0,0.0,0.0,0.0,0.0,0.0,0.0,0.0,0.0,0.0,0.0,0.0,0.0,0.0,0.0,0.0,0.0,0.0,0.0,0.0,0.0,0.0,0.0,0.0,0.0,0.0,0.0,0.0,0.0,0.0,0.0,0.0,0.0,0.0,0.0,0.0,0.0,0.0,0.0,0.0,0.0,0.0,0.0,0.0,0.0,0.0,0.0,0.0,0.0,0.0,0.0,0.0,0.0,0.0,0.0,0.0,0.0,0.0,0.0,0.0,0.0,0.0,0.0,0.0,0.0,0.0,0.0,0.0,0.0,0.0,0.0,0.0,0.0,0.0,0.0,0.0,0.0,0.0,0.0,0.0,0.0,0.0,0.0,0.0,0.0,0.0,0.0,0.0,0.0,0.0,0.0,0.0,2.1692,2.1404,2.0651,1.9856,1.8999,0.0,0.0,0.0,0.0,0.0,0.0,0.0,0.0,0.0,0.0,0.0,0.0,0.0,0.0,0.0,0.0,0.0,0.0,0.0,0.0,0.0,0.0,0.0,0.0,0.0,0.0,0.0,0.0,0.0,0.0,0.0,0.0,0.0,0.0,0.0,0.0,0.0,0.0,0.0,0.0,0.0,0.0,0.0,0.0,0.0,0.0,0.0,0.0,0.0,0.0,0.0,0.0,0.0,0.0,0.0,0.0,0.0,0.0,0.0,0.0,0.0,0.0,0.0,0.0,0.0,0.0,0.0,0.0,0.0,0.0,0.0,0.0,0.0,0.0,0.0,0.0,0.0,0.0,0.0,0.0,0.0,0.0,0.0,0.0,0.0,0.0,0.0,0.0,0.0,0.0,0.0,0.0,0.0,0.0,0.0,0.0,0.0,0.0,0.0,0.0,0.0,0.0,0.0,0.0,0.0,0.0,0.0,0.0,0.0,0.0,0.0,0.0,2.1043,2.0201,1.9023,0.0,0.0,0.0,0.0,0.0,0.0,0.0,0.0,0.0,0.0,0.0,0.0,0.0,0.0,0.0,0.0,0.0,0.0,0.0,0.0,0.0,0.0,0.0,0.0,0.0,0.0,0.0,0.0,0.0,0.0,0.0,0.0,0.0,0.0,0.0,0.0,0.0,0.0,0.0,0.0,0.0,0.0,0.0,0.0,0.0,0.0,0.0,0.0,0.0,0.0,0.0,0.0,0.0,0.0,0.0,0.0,0.0,0.0,0.0,0.0,0.0,0.0,0.0,0.0,0.0,0.0,0.0,0.0,0.0,0.0,0.0,0.0,0.0,0.0,0.0,0.0,0.0,0.0,0.0,0.0,0.0,0.0,0.0,0.0,0.0,0.0,0.0,0.0,0.0,0.0,0.0,0.0,0.0,0.0,0.0,0.0,0.0,0.0,0.0,0.0,0.0,0.0,0.0,0.0,0.0,0.0,0.0,0.0,0.0,0.0,2.2173,2.2113,2.1596,0.0,1.9098,0.0,0.0,0.0,0.0,0.0,0.0,0.0,0.0,0.0,0.0,0.0,0.0,0.0,0.0,0.0,0.0,0.0,0.0,0.0,0.0,0.0,0.0,0.0,0.0,0.0,0.0,0.0,0.0,0.0,0.0,0.0,0.0,0.0,0.0,0.0,0.0,0.0,0.0,0.0,0.0,0.0,0.0,0.0,0.0,0.0,0.0,0.0,0.0,0.0,0.0,0.0,0.0,0.0,0.0,0.0,0.0,0.0,0.0,0.0,0.0,0.0,0.0,0.0,0.0,0.0,0.0,0.0,0.0,0.0,0.0,0.0,0.0,0.0,0.0,0.0,0.0,0.0,0.0,0.0,0.0,0.0,0.0,0.0,0.0,0.0,0.0,0.0,0.0,0.0,0.0,0.0,0.0,0.0,0.0,0.0,0.0,0.0,0.0,0.0,0.0,0.0,0.0,0.0,0.0,0.0,0.0,0.0,0.0,0.0,0.0,2.2278,2.2197,2.1457,2.0318,0.0,0.0,0.0,0.0,0.0,0.0,0.0,0.0,0.0,0.0,0.0,0.0,0.0,0.0,0.0,0.0,0.0,0.0,0.0,0.0,0.0,0.0,0.0,0.0,0.0,0.0,0.0,0.0,0.0,0.0,0.0,0.0,0.0,0.0,0.0,0.0,0.0,0.0,0.0,0.0,0.0,0.0,0.0,0.0,0.0,0.0,0.0,0.0,0.0,0.0,0.0,0.0,0.0,0.0,0.0,0.0,0.0,0.0,0.0,0.0,0.0,0.0,0.0,0.0,0.0,0.0,0.0,0.0,0.0,0.0,0.0,0.0,0.0,0.0,0.0,0.0,0.0,0.0,0.0,0.0,0.0,0.0,0.0,0.0,0.0,0.0,0.0,0.0,0.0,0.0,0.0,0.0,0.0,0.0,0.0,0.0,0.0,0.0,0.0,0.0,0.0,0.0,0.0,0.0,0.0,0.0,0.0,0.0,0.0,0.0,2.2201,0.0,2.2402,2.1504,2.0416,1.9191,0.0,0.0,0.0,0.0,0.0,0.0,0.0,0.0,0.0,0.0,0.0,0.0,0.0,0.0,0.0,0.0,0.0,0.0,0.0,0.0,0.0,0.0,0.0,0.0,0.0,0.0,0.0,0.0,0.0,0.0,0.0,0.0,0.0,0.0,0.0,0.0,0.0,0.0,0.0,0.0,0.0,0.0,0.0,0.0,0.0,0.0,0.0,0.0,0.0,0.0,0.0,0.0,0.0,0.0,0.0,0.0,0.0,0.0,0.0,0.0,0.0,0.0,0.0,0.0,0.0,0.0,0.0,0.0,0.0,0.0,0.0,0.0,0.0,0.0,0.0,0.0,0.0,0.0,0.0,0.0,0.0,0.0,0.0,0.0,0.0,0.0,0.0,0.0,0.0,0.0,0.0,0.0,0.0,0.0,0.0,0.0,0.0,0.0,0.0,0.0,0.0,0.0,0.0,0.0,0.0,0.0,0.0,0.0,0.0,2.195,2.2434,2.3015,2.2029,2.1164,0.0,0.0,0.0,0.0,0.0,0.0,0.0,0.0,0.0,0.0,0.0,0.0,0.0,0.0,0.0,0.0,0.0,0.0,0.0,0.0,0.0,0.0,0.0,0.0,0.0,0.0,0.0,0.0,0.0,0.0,0.0,0.0,0.0,0.0,0.0,0.0,0.0,0.0,0.0,0.0,0.0,0.0,0.0,0.0,0.0,0.0,0.0,0.0,0.0,0.0,0.0,0.0,0.0,0.0,0.0,0.0,0.0,0.0,0.0,0.0,0.0,0.0,0.0,0.0,0.0,0.0,0.0,0.0,0.0,0.0,0.0,0.0,0.0,0.0,0.0,0.0,0.0,0.0,0.0,0.0,0.0,0.0,0.0,0.0,0.0,0.0,0.0,0.0,0.0,0.0,0.0,0.0,0.0,0.0,0.0,0.0,0.0,0.0,0.0,0.0,0.0,0.0,0.0,0.0,0.0,0.0,0.0,0.0,0.0,2.1354,2.164,2.2217,2.3087,2.1963,2.0964,0.0,0.0,0.0,0.0,0.0,0.0,0.0,0.0,0.0,0.0,0.0,0.0,0.0,0.0,0.0,0.0,0.0,0.0,0.0,0.0,0.0,0.0,0.0,0.0,0.0,0.0,0.0,0.0,0.0,0.0,0.0,0.0,0.0,0.0,0.0,0.0,0.0,0.0,0.0,0.0,0.0,0.0,0.0,0.0,0.0,0.0,0.0,0.0,0.0,0.0,0.0,0.0,0.0,0.0,0.0,0.0,0.0,0.0,0.0,0.0,0.0,0.0,0.0,0.0,0.0,0.0,0.0,0.0,0.0,0.0,0.0,0.0,0.0,0.0,0.0,0.0,0.0,0.0,0.0,0.0,0.0,0.0,0.0,0.0,0.0,0.0,0.0,0.0,0.0,0.0,0.0,0.0,0.0,0.0,0.0,0.0,0.0,0.0,0.0,0.0,0.0,0.0,0.0,0.0,0.0,0.0,0.0,0.0,0.0,2.1748,0.0,2.2791,0.0,2.2511,2.1374,0.0,0.0,0.0,0.0,0.0,0.0,0.0,0.0,0.0,0.0,0.0,0.0,0.0,0.0,0.0,0.0,0.0,0.0,0.0,0.0,0.0,0.0,0.0,0.0,0.0,0.0,0.0,0.0,0.0,0.0,0.0,0.0,0.0,0.0,0.0,0.0,0.0,0.0,0.0,0.0,0.0,0.0,0.0,0.0,0.0,0.0,0.0,0.0,0.0,0.0,0.0,0.0,0.0,0.0,0.0,0.0,0.0,0.0,0.0,0.0,0.0,0.0,0.0,0.0,0.0,0.0,0.0,0.0,0.0,0.0,0.0,0.0,0.0,0.0,0.0,0.0,0.0,0.0,0.0,0.0,0.0,0.0,0.0,0.0,0.0,0.0,0.0,0.0,0.0,0.0,0.0,0.0,0.0,0.0,0.0,0.0,0.0,0.0,0.0,0.0,0.0,0.0,0.0,0.0,0.0,0.0,0.0,0.0,2.1534,2.2924,2.3663,2.415,2.4488,2.3709,2.2556,0.0,0.0,0.0,0.0,0.0,0.0,0.0,0.0,0.0,0.0,0.0,0.0,0.0,0.0,0.0,0.0,0.0,0.0,0.0,0.0,0.0,0.0,0.0,0.0,0.0,0.0,0.0,0.0,0.0,0.0,0.0,0.0,0.0,0.0,0.0,0.0,0.0,0.0,0.0,0.0,0.0,0.0,0.0,0.0,0.0,0.0,0.0,0.0,0.0,0.0,0.0,0.0,0.0,0.0,0.0,0.0,0.0,0.0,0.0,0.0,0.0,0.0,0.0,0.0,0.0,0.0,0.0,0.0,0.0,0.0,0.0,0.0,0.0,0.0,0.0,0.0,0.0,0.0,0.0,0.0,0.0,0.0,0.0,0.0,0.0,0.0,0.0,0.0,0.0,0.0,0.0,0.0,0.0,0.0,0.0,0.0,0.0,0.0,0.0,0.0,0.0,0.0,0.0,0.0,0.0,0.0,0.0,0.0,0.0,2.3174,2.3705,2.4231,2.4792,2.3789,2.2794,0.0,0.0,0.0,0.0,0.0,0.0,0.0,0.0,0.0,0.0,0.0,0.0,0.0,0.0,0.0,0.0,0.0,0.0,0.0,0.0,0.0,0.0,0.0,0.0,0.0,0.0,0.0,0.0,0.0,0.0,0.0,0.0,0.0,0.0,0.0,0.0,0.0,0.0,0.0,0.0,0.0,0.0,0.0,0.0,0.0,0.0,0.0,0.0,0.0,0.0,0.0,0.0,0.0,0.0,0.0,0.0,0.0,0.0,0.0,0.0,0.0,0.0,0.0,0.0,0.0,0.0,0.0,0.0,0.0,0.0,0.0,0.0,0.0,0.0,0.0,0.0,0.0,0.0,0.0,0.0,0.0,0.0,0.0,0.0,0.0,0.0,0.0,0.0,0.0,0.0,0.0,0.0,0.0,0.0,0.0,0.0,0.0,0.0,0.0,0.0,0.0,0.0,0.0,0.0,0.0,0.0,0.0,0.0,0.0,2.4757,2.4866,2.5145,2.5635,2.4841,2.3814,2.2621,0.0,0.0,0.0,0.0,0.0,0.0,0.0,0.0,0.0,0.0,0.0,0.0,0.0,0.0,0.0,0.0,0.0,0.0,0.0,0.0,0.0,0.0,0.0,0.0,0.0,0.0,0.0,0.0,0.0,0.0,0.0,0.0,0.0,0.0,0.0,0.0,0.0,0.0,0.0,0.0,0.0,0.0,0.0,0.0,0.0,0.0,0.0,0.0,0.0,0.0,0.0,0.0,0.0,0.0,0.0,0.0,0.0,0.0,0.0,0.0,0.0,0.0,0.0,0.0,0.0,0.0,0.0,0.0,0.0,0.0,0.0,0.0,0.0,0.0,0.0,0.0,0.0,0.0,0.0,0.0,0.0,0.0,0.0,0.0,0.0,0.0,0.0,0.0,0.0,0.0,0.0,0.0,0.0,0.0,0.0,0.0,0.0,0.0,0.0,0.0,0.0,0.0,0.0,0.0,0.0,0.0,0.0,0.0,2.7395,2.7016,2.685,2.6968,2.6761,2.5521,0.0,0.0,0.0,0.0,0.0,0.0,0.0,0.0,0.0,0.0,0.0,0.0,0.0,0.0,0.0,0.0,0.0,0.0,0.0,0.0,0.0,0.0,0.0,0.0,0.0,0.0,0.0,0.0,0.0,0.0,0.0,0.0,0.0,0.0,0.0,0.0,0.0,0.0,0.0,0.0,0.0,0.0,0.0,0.0,0.0,0.0,0.0,0.0,0.0,0.0,0.0,0.0,0.0,0.0,0.0,0.0,0.0,0.0,0.0,0.0,0.0,0.0,0.0,0.0,0.0,0.0,0.0,0.0,0.0,0.0,0.0,0.0,0.0,0.0,0.0,0.0,0.0,0.0,0.0,0.0,0.0,0.0,0.0,0.0,0.0,0.0,0.0,0.0,0.0,0.0,0.0,0.0,0.0,0.0,0.0,0.0,0.0,0.0,0.0,0.0,0.0,0.0,0.0,0.0,0.0,0.0,0.0,0.0,0.0,2.8785,2.9334,2.9334,2.8884,2.7914,2.6654,0.0,0.0,0.0,0.0,0.0,0.0,0.0,0.0,0.0,0.0,0.0,0.0,0.0,0.0,0.0,0.0,0.0,0.0,0.0,0.0,0.0,0.0,0.0,0.0,0.0,0.0,0.0,0.0,0.0,0.0,0.0,0.0,0.0,0.0,0.0,0.0,0.0,0.0,0.0,0.0,0.0,0.0,0.0,0.0,0.0,0.0,0.0,0.0,0.0,0.0,0.0,0.0,0.0,0.0,0.0,0.0,0.0,0.0,0.0,0.0,0.0,0.0,0.0,0.0,0.0,0.0,0.0,0.0,0.0,0.0,0.0,0.0,0.0,0.0,0.0,0.0,0.0,0.0,0.0,0.0,0.0,0.0,0.0,0.0,0.0,0.0,0.0,0.0,0.0,0.0,0.0,0.0,0.0,0.0,0.0,0.0,0.0,0.0,0.0,0.0,0.0,0.0,0.0,0.0,0.0,0.0,0.0,0.0,2.8799,3.0648,3.1698,3.2004,3.1611,2.9871,2.8187,0.0,0.0,0.0,0.0,0.0,0.0,0.0,0.0,0.0,0.0,0.0,0.0,0.0,0.0,0.0,0.0,0.0,0.0,0.0,0.0,0.0,0.0,0.0,0.0,0.0,0.0,0.0,0.0,0.0,0.0,0.0,0.0,0.0,0.0,0.0,0.0,0.0,0.0,0.0,0.0,0.0,0.0,0.0,0.0,0.0,0.0,0.0,0.0,0.0,0.0,0.0,0.0,0.0,0.0,0.0,0.0,0.0,0.0,0.0,0.0,0.0,0.0,0.0,0.0,0.0,0.0,0.0,0.0,0.0,0.0,0.0,0.0,0.0,0.0,0.0,0.0,0.0,0.0,0.0,0.0,0.0,0.0,0.0,0.0,0.0,0.0,0.0,0.0,0.0,0.0,0.0,0.0,0.0,0.0,0.0,0.0,0.0,0.0,0.0,0.0,0.0,0.0,0.0,0.0,0.0,0.0,0.0,0.0,3.0568,3.2501,3.3779,3.4511,3.4462,3.2123,2.9856,0.0,0.0,0.0,0.0,0.0,0.0,0.0,0.0,0.0,0.0,0.0,0.0,0.0,0.0,0.0,0.0,0.0,0.0,0.0,0.0,0.0,0.0,0.0,0.0,0.0,0.0,0.0,0.0,0.0,0.0,0.0,0.0,0.0,0.0,0.0,0.0,0.0,0.0,0.0,0.0,0.0,0.0,0.0,0.0,0.0,0.0,0.0,0.0,0.0,0.0,0.0,0.0,0.0,0.0,0.0,0.0,0.0,0.0,0.0,0.0,0.0,0.0,0.0,0.0,0.0,0.0,0.0,0.0,0.0,0.0,0.0,0.0,0.0,0.0,0.0,0.0,0.0,0.0,0.0,0.0,0.0,0.0,0.0,0.0,0.0,0.0,0.0,0.0,0.0,0.0,0.0,0.0,0.0,0.0,0.0,0.0,0.0,0.0,0.0,0.0,0.0,0.0,0.0,0.0,0.0,0.0,0.0,0.0,3.0762,3.2708,3.4141,3.5118,3.557,3.331,3.0974,0.0,0.0,0.0,0.0,0.0,0.0,0.0,0.0,0.0,0.0,0.0,0.0,0.0,0.0,0.0,0.0,0.0,0.0,0.0,0.0,0.0,0.0,0.0,0.0,0.0,0.0,0.0,0.0,0.0,0.0,0.0,0.0,0.0,0.0,0.0,0.0,0.0,0.0,0.0,0.0,0.0,0.0,0.0,0.0,0.0,0.0,0.0,0.0,1.5765,0.0,0.0,0.0,0.0,0.0,0.0,0.0,0.0,0.0,0.0,0.0,0.0,0.0,0.0,0.0,0.0,0.0,0.0,0.0,0.0,0.0,0.0,0.0,0.0,0.0,0.0,0.0,0.0,0.0,0.0,0.0,0.0,0.0,0.0,0.0,0.0,0.0,0.0,0.0,0.0,0.0,0.0,0.0,0.0,0.0,0.0,0.0,0.0,0.0,0.0,0.0,0.0,0.0,0.0,0.0,0.0,0.0,0.0,0.0,3.141,3.3307,3.4728,3.5588,3.5804,3.4152,3.2138,0.0,0.0,0.0,0.0,0.0,0.0,0.0,0.0,0.0,0.0,0.0,0.0,0.0,0.0,0.0,0.0,0.0,0.0,0.0,0.0,0.0,0.0,0.0,0.0,0.0,0.0,0.0,0.0,0.0,0.0,0.0,0.0,0.0,0.0,0.0,0.0,0.0,0.0,0.0,0.0,0.0,0.0,0.0,0.0,0.0,0.0,0.0,0.0,0.0,0.0,0.0,0.0,0.0,0.0,0.0,0.0,0.0,0.0,0.0,0.0,0.0,0.0,0.0,0.0,0.0,0.0,0.0,0.0,0.0,0.0,0.0,0.0,0.0,0.0,0.0,0.0,0.0,0.0,0.0,0.0,0.0,0.0,0.0,0.0,0.0,0.0,0.0,0.0,0.0,0.0,0.0,0.0,0.0,0.0,0.0,0.0,0.0,0.0,0.0,0.0,0.0,0.0,0.0,0.0,0.0,0.0,0.0,3.0115,3.2077,3.3982,3.5296,3.5931,3.5847,3.4694,3.3097,3.1072,0.0,0.0,0.0,0.0,0.0,0.0,0.0,0.0,0.0,0.0,0.0,0.0,0.0,0.0,0.0,0.0,0.0,0.0,0.0,0.0,0.0,0.0,0.0,0.0,0.0,0.0,0.0,0.0,0.0,0.0,0.0,0.0,0.0,0.0,0.0,0.0,0.0,0.0,1.4742,1.6756,0.0,0.0,0.0,0.0,0.0,0.0,0.0,0.0,1.7612,0.0,0.0,0.0,0.0,0.0,0.0,0.0,0.0,0.0,0.0,0.0,0.0,0.0,0.0,0.0,0.0,0.0,0.0,0.0,0.0,0.0,0.0,0.0,0.0,0.0,0.0,0.0,0.0,0.0,0.0,0.0,0.0,0.0,0.0,0.0,0.0,0.0,0.0,0.0,0.0,0.0,0.0,0.0,0.0,0.0,0.0,0.0,0.0,0.0,0.0,0.0,0.0,0.0,0.0,0.0,0.0,2.8893,3.045,3.2213,3.4127,3.5642,3.6156,3.5556,3.4827,3.3214,3.0692,0.0,0.0,0.0,0.0,0.0,0.0,0.0,0.0,0.0,0.0,0.0,0.0,0.0,0.0,0.0,0.0,0.0,0.0,0.0,0.0,0.0,0.0,0.0,0.0,0.0,0.0,0.0,0.0,0.0,0.0,0.0,0.0,0.0,0.0,0.0,0.0,0.0,0.0,0.0,2.0346,2.1415,0.0,0.0,0.0,0.0,0.0,0.0,0.0,0.0,1.8391,0.0,0.0,0.0,0.0,0.0,0.0,0.0,0.0,0.0,0.0,0.0,0.0,0.0,0.0,0.0,0.0,0.0,0.0,0.0,0.0,0.0,0.0,0.0,0.0,0.0,0.0,0.0,0.0,0.0,0.0,0.0,0.0,0.0,0.0,0.0,0.0,0.0,0.0,0.0,0.0,0.0,0.0,0.0,0.0,0.0,0.0,0.0,0.0,0.0,0.0,0.0,0.0,0.0,0.0,0.0,2.8702,3.0517,3.2199,3.3794,3.5248,3.5654,3.4996,3.4322,3.2901,0.0,0.0,0.0,0.0,0.0,0.0,0.0,0.0,0.0,0.0,0.0,0.0,0.0,0.0,0.0,0.0,0.0,0.0,0.0,0.0,0.0,0.0,0.0,0.0,0.0,0.0,0.0,0.0,0.0,0.0,0.0,0.0,0.0,0.0,0.0,0.0,0.0,0.0,0.0,0.0,2.163,2.272,2.3645,0.0,0.0,0.0,0.0,0.0,0.0,2.0336,1.9985,0.0,0.0,0.0,0.0,0.0,0.0,0.0,0.0,0.0,0.0,0.0,0.0,0.0,0.0,0.0,0.0,0.0,0.0,0.0,0.0,0.0,0.0,0.0,0.0,0.0,0.0,0.0,0.0,0.0,0.0,0.0,0.0,0.0,0.0,0.0,0.0,0.0,0.0,0.0,0.0,0.0,0.0,0.0,0.0,0.0,0.0,0.0,0.0,0.0,0.0,0.0,0.0,0.0,0.0,0.0,2.8639,3.0675,3.2333,3.3664,3.4876,3.51,3.4292,3.3634,3.2302,0.0,0.0,0.0,0.0,0.0,0.0,0.0,0.0,0.0,0.0,0.0,0.0,0.0,0.0,0.0,0.0,0.0,0.0,0.0,0.0,0.0,0.0,0.0,0.0,0.0,0.0,0.0,0.0,0.0,0.0,0.0,0.0,0.0,0.0,0.0,0.0,0.0,0.0,0.0,0.0,0.0,2.3702,2.4824,2.4028,0.0,0.0,0.0,0.0,2.1672,2.1787,0.0,0.0,0.0,0.0,0.0,0.0,0.0,0.0,0.0,0.0,0.0,0.0,0.0,0.0,0.0,0.0,0.0,0.0,0.0,0.0,0.0,0.0,0.0,0.0,0.0,0.0,0.0,0.0,0.0,0.0,0.0,0.0,0.0,0.0,0.0,0.0,0.0,0.0,0.0,0.0,0.0,0.0,0.0,0.0,0.0,0.0,0.0,0.0,0.0,0.0,0.0,0.0,0.0,0.0,0.0,0.0,2.9445,3.1376,3.3051,3.4354,3.5115,3.4906,3.3649,3.2976,3.142,0.0,0.0,0.0,0.0,0.0,0.0,0.0,0.0,0.0,0.0,0.0,0.0,0.0,0.0,0.0,0.0,0.0,0.0,0.0,0.0,0.0,0.0,0.0,0.0,0.0,0.0,0.0,0.0,0.0,0.0,0.0,0.0,0.0,0.0,0.0,0.0,0.0,0.0,0.0,0.0,0.0,2.5188,2.5933,2.5795,2.5393,0.0,0.0,2.4692,2.4604,2.3727,0.0,0.0,0.0,0.0,0.0,0.0,0.0,0.0,0.0,0.0,0.0,0.0,0.0,0.0,0.0,0.0,0.0,0.0,0.0,0.0,0.0,0.0,0.0,0.0,0.0,0.0,0.0,0.0,0.0,0.0,0.0,0.0,0.0,0.0,0.0,0.0,0.0,0.0,0.0,0.0,0.0,0.0,0.0,0.0,0.0,0.0,0.0,0.0,0.0,0.0,0.0,0.0,0.0,0.0,0.0,2.761,2.9684,3.1668,3.3337,3.4755,3.5513,3.5242,3.391,3.3229,3.1667,0.0,0.0,0.0,0.0,0.0,0.0,0.0,0.0,0.0,0.0,0.0,0.0,0.0,0.0,0.0,0.0,0.0,0.0,0.0,0.0,0.0,0.0,0.0,0.0,0.0,0.0,0.0,0.0,0.0,0.0,0.0,0.0,0.0,0.0,0.0,0.0,0.0,0.0,0.0,0.0,0.0,0.0,2.7363,2.6791,0.0,0.0,0.0,2.5682,2.5328,0.0,0.0,0.0,0.0,0.0,0.0,0.0,0.0,0.0,0.0,0.0,0.0,0.0,0.0,0.0,0.0,0.0,0.0,0.0,0.0,0.0,0.0,0.0,0.0,0.0,0.0,0.0,0.0,0.0,0.0,0.0,0.0,0.0,0.0,0.0,0.0,0.0,0.0,0.0,0.0,0.0,0.0,0.0,0.0,0.0,0.0,0.0,0.0,0.0,0.0,0.0,0.0,0.0,0.0,0.0,0.0,0.0,3.0125,3.2139,3.3864,3.5339,3.5966,3.563,3.4283,3.3441,0.0,0.0,0.0,0.0,0.0,0.0,0.0,0.0,0.0,0.0,0.0,0.0,0.0,0.0,0.0,0.0,0.0,0.0,0.0,0.0,0.0,0.0,0.0,0.0,0.0,0.0,0.0,1.5185,0.0,0.0,0.0,0.0,0.0,0.0,0.0,0.0,0.0,0.0,0.0,0.0,0.0,0.0,2.6512,2.8353,2.7797,2.7388,0.0,0.0,2.6793,2.6277,2.592,2.525,0.0,0.0,0.0,0.0,0.0,0.0,0.0,0.0,0.0,0.0,0.0,0.0,0.0,0.0,0.0,0.0,0.0,0.0,0.0,0.0,0.0,0.0,0.0,0.0,0.0,0.0,0.0,0.0,0.0,0.0,0.0,0.0,0.0,0.0,0.0,0.0,0.0,0.0,0.0,0.0,0.0,0.0,0.0,0.0,0.0,0.0,0.0,0.0,0.0,0.0,0.0,0.0,0.0,0.0,0.0,3.1087,3.3093,3.485,3.6322,3.6461,3.5799,3.4415,3.3152,3.1213,0.0,0.0,0.0,0.0,0.0,0.0,0.0,0.0,0.0,0.0,0.0,0.0,0.0,0.0,0.0,0.0,0.0,0.0,0.0,0.0,0.0,0.0,0.0,0.0,0.0,0.0,0.0,0.0,0.0,0.0,0.0,0.0,0.0,0.0,0.0,0.0,0.0,0.0,0.0,0.0,0.0,2.7021,2.8412,2.9056,2.94,0.0,0.0,2.8442,2.8371,2.7335,2.6063,2.4731,0.0,0.0,0.0,0.0,0.0,0.0,0.0,0.0,0.0,0.0,0.0,0.0,0.0,0.0,0.0,0.0,0.0,0.0,0.0,0.0,0.0,0.0,0.0,0.0,0.0,0.0,0.0,0.0,0.0,0.0,0.0,0.0,0.0,0.0,0.0,0.0,0.0,0.0,0.0,0.0,0.0,0.0,0.0,0.0,0.0,0.0,0.0,0.0,0.0,0.0,0.0,0.0,0.0,2.9439,3.2195,3.3826,3.5519,3.7265,3.7373,3.6724,3.5435,3.4042,3.2026,0.0,0.0,0.0,0.0,0.0,0.0,0.0,0.0,0.0,0.0,0.0,0.0,0.0,0.0,0.0,0.0,0.0,0.0,0.0,0.0,0.0,0.0,0.0,0.0,0.0,0.0,0.0,0.0,1.8362,1.8057,1.7399,0.0,0.0,0.0,0.0,0.0,0.0,0.0,0.0,0.0,0.0,2.7215,2.8966,2.9415,0.0,0.0,2.9609,2.9071,2.8667,2.7814,2.6911,2.5989,2.491,0.0,0.0,0.0,0.0,0.0,0.0,0.0,0.0,0.0,0.0,0.0,0.0,0.0,0.0,0.0,0.0,0.0,0.0,0.0,0.0,0.0,0.0,0.0,0.0,0.0,0.0,0.0,0.0,0.0,0.0,0.0,0.0,0.0,0.0,0.0,0.0,0.0,0.0,0.0,0.0,0.0,0.0,0.0,0.0,0.0,0.0,0.0,0.0,0.0,0.0,0.0,0.0,2.989,3.3071,3.4471,3.6096,3.8014,3.803,3.7428,3.6109,3.4952,3.3032,0.0,0.0,0.0,0.0,0.0,0.0,0.0,0.0,0.0,0.0,0.0,0.0,0.0,0.0,0.0,0.0,0.0,0.0,0.0,0.0,0.0,0.0,0.0,0.0,0.0,0.0,0.0,0.0,1.9431,1.8816,1.817,0.0,0.0,0.0,0.0,0.0,0.0,0.0,0.0,0.0,0.0,2.7769,2.9355,2.9909,3.0313,3.0746,3.0268,2.9726,2.9235,2.8442,2.769,2.6991,0.0,0.0,0.0,0.0,0.0,0.0,0.0,0.0,0.0,0.0,0.0,0.0,0.0,0.0,0.0,0.0,0.0,0.0,0.0,0.0,0.0,0.0,0.0,0.0,0.0,0.0,0.0,0.0,0.0,0.0,2.7205,0.0,0.0,0.0,0.0,0.0,0.0,0.0,0.0,0.0,0.0,0.0,0.0,0.0,0.0,0.0,0.0,0.0,0.0,0.0,0.0,0.0,0.0,3.0277,3.3539,3.5043,3.6644,3.8343,3.8391,3.7695,3.6297,3.5665,3.4015,3.1136,0.0,0.0,0.0,0.0,0.0,0.0,0.0,0.0,0.0,0.0,0.0,0.0,0.0,0.0,0.0,0.0,0.0,0.0,0.0,0.0,0.0,0.0,0.0,0.0,0.0,0.0,2.1953,2.0837,1.9747,0.0,0.0,0.0,0.0,0.0,0.0,0.0,0.0,0.0,0.0,2.7305,2.8801,2.9532,3.0687,3.1451,3.1481,3.0941,3.0477,3.0462,2.94,2.8353,0.0,0.0,0.0,0.0,0.0,0.0,0.0,0.0,0.0,0.0,0.0,0.0,0.0,0.0,0.0,0.0,0.0,0.0,0.0,0.0,0.0,0.0,0.0,0.0,0.0,0.0,0.0,3.2032,3.1475,0.0,0.0,0.0,0.0,0.0,0.0,0.0,0.0,0.0,0.0,0.0,3.3437,3.3043,0.0,0.0,0.0,0.0,0.0,0.0,0.0,0.0,0.0,0.0,0.0,0.0,3.1382,3.4045,3.5717,3.7416,3.9189,3.9175,3.8702,3.7798,3.6655,3.4479,3.1074,0.0,0.0,0.0,0.0,0.0,0.0,0.0,0.0,0.0,0.0,0.0,0.0,0.0,0.0,0.0,0.0,0.0,0.0,0.0,0.0,0.0,0.0,0.0,0.0,0.0,2.2667,0.0,0.0,0.0,0.0,0.0,0.0,0.0,0.0,0.0,0.0,0.0,2.4677,2.6907,2.8168,2.926,3.0374,3.153,3.2285,0.0,0.0,0.0,0.0,0.0,0.0,0.0,0.0,0.0,0.0,0.0,0.0,0.0,0.0,2.4617,2.2809,2.2406,2.2157,2.1567,0.0,0.0,0.0,0.0,0.0,0.0,0.0,0.0,0.0,0.0,0.0,0.0,0.0,0.0,3.5862,0.0,3.4734,0.0,0.0,0.0,0.0,0.0,0.0,0.0,0.0,3.4684,3.5477,3.6546,3.639,3.634,0.0,3.4892,3.3221,0.0,0.0,0.0,0.0,0.0,0.0,0.0,0.0,3.2134,3.4512,3.6199,3.79,3.9594,3.9616,3.9265,3.8606,3.6963,3.4852,3.224,2.9942,2.7945,0.0,0.0,0.0,0.0,0.0,0.0,0.0,0.0,0.0,0.0,0.0,0.0,0.0,0.0,0.0,0.0,0.0,0.0,0.0,0.0,0.0,0.0,0.0,2.4236,0.0,0.0,0.0,0.0,0.0,0.0,0.0,0.0,0.0,2.4374,2.496,2.613,2.81,2.9113,3.0008,3.0873,0.0,0.0,0.0,0.0,0.0,0.0,0.0,3.0614,2.9998,2.9756,2.9445,2.9011,2.8603,2.8312,2.8457,0.0,0.0,2.5507,2.5048,2.482,2.4312,2.4351,2.4438,2.4306,2.491,2.5303,0.0,0.0,0.0,0.0,0.0,0.0,0.0,0.0,4.042,4.0086,0.0,3.7976,0.0,0.0,0.0,0.0,0.0,3.4128,0.0,0.0,3.7658,3.8497,3.9909,3.9735,3.9683,3.9703,3.8146,3.7419,3.7161,3.1896,0.0,0.0,0.0,0.0,0.0,0.0,3.2514,3.4913,3.6546,3.8129,3.9653,3.9703,3.9368,3.8598,3.6673,3.529,3.4489,3.2276,3.0058,2.7902,2.6974,0.0,0.0,0.0,0.0,0.0,0.0,0.0,0.0,0.0,0.0,0.0,0.0,0.0,0.0,0.0,0.0,0.0,0.0,0.0,0.0,2.479,0.0,0.0,0.0,0.0,0.0,0.0,0.0,0.0,0.0,0.0,2.5377,2.6898,2.8343,2.9073,0.0,0.0,0.0,0.0,3.3001,3.2839,3.3397,3.3532,3.2721,3.2033,3.1361,3.0731,0.0,0.0,2.9756,2.9756,2.9924,3.0492,3.0597,2.9916,2.7846,2.7291,2.7096,2.7052,2.7369,2.7786,2.7831,2.7888,2.8111,4.4598,0.0,0.0,0.0,0.0,4.1794,4.2311,4.2996,4.3024,4.2635,4.191,4.0963,0.0,0.0,0.0,0.0,0.0,0.0,3.8354,3.9993,4.0635,4.1446,4.2375,4.2338,4.2294,4.2287,4.0804,4.0087,3.9952,3.6779,3.3943,3.1495,0.0,0.0,0.0,0.0,3.4735,3.5973,3.7664,3.9,3.9952,3.9969,3.9632,3.8906,3.7817,3.6608,3.5312,3.3639,3.1928,3.0273,2.8429,0.0,0.0,0.0,0.0,0.0,0.0,0.0,0.0,0.0,0.0,0.0,0.0,0.0,0.0,0.0,0.0,0.0,0.0,0.0,2.5974,2.7017,2.7226,0.0,0.0,0.0,0.0,0.0,0.0,0.0,0.0,0.0,2.9549,2.97,3.0324,0.0,0.0,3.2916,3.3422,3.4131,3.4546,3.4501,0.0,0.0,0.0,3.3547,3.3036,3.2691,3.2482,3.2377,3.2362,3.2362,3.2437,3.2602,3.2647,3.2407,3.1811,3.0471,2.9416,2.8985,2.8973,2.9065,2.8971,2.9264,2.9449,4.8723,4.6127,4.4545,4.431,4.4966,4.5252,4.5791,4.6464,4.6148,4.5808,4.5286,4.3979,4.3182,4.2644,4.0725,0.0,0.0,0.0,4.1437,4.2888,4.3409,4.4045,4.4722,4.4756,4.4604,4.4282,4.3115,4.2388,4.2023,4.0045,3.8066,3.599,0.0,0.0,3.3145,3.4895,3.6219,3.6999,3.8306,3.9368,4.0079,4.0113,3.9893,3.9453,3.8447,3.7466,3.6529,3.4793,3.3152,3.1701,3.0057,2.8213,0.0,0.0,0.0,0.0,0.0,0.0,0.0,0.0,0.0,0.0,0.0,1.9977,2.0964,0.0,0.0,0.0,2.4116,2.5641,2.7659,2.8281,0.0,0.0,0.0,0.0,0.0,0.0,0.0,2.9409,3.003,3.0995,3.2648,3.2671,3.2838,3.3706,3.3829,3.3983,3.4443,0.0,3.5309,3.5202,3.537,3.5322,3.4878,3.4438,3.3984,3.3575,3.3499,3.3499,3.3499,3.3499,3.3499,3.3499,3.3499,3.3499,3.3499,3.2482,3.1584,3.1254,3.1135,3.1135,3.1035,3.1233,3.1235,5.1995,5.1134,4.846,4.7665,4.821,4.89,4.9543,5.0118,4.9458,4.9154,4.8934,4.6887,4.5872,4.5618,4.4299,0.0,4.3578,4.3629,4.4434,4.5788,4.5855,4.6227,4.687,4.687,4.6532,4.5826,4.506,4.4299,4.3511,4.2074,4.1364,4.1288,3.7696,3.5849,3.5807,3.6447,3.7185,3.799,3.8717,3.9411,4.0079,4.0113,4.0113,4.0079,3.8667,3.7905,3.7855,3.5757,3.3952,3.2547,3.1718,2.9956,2.7148,0.0,0.0,0.0,0.0,0.0,0.0,0.0,0.0,0.0,0.0,0.0,0.0,0.0,0.0,0.0,2.5832,0.0,2.8766,2.9076,0.0,0.0,0.0,2.9093,2.9562,2.9589,3.0233,3.1907,0.0,0.0,3.4836,0.0,3.547,3.4765,3.4659,3.4674,3.4659,3.5244,3.5522,3.5385,3.5829,3.595,3.5292,3.4969,3.4586,3.3951,3.3665,3.3755,3.3739,3.3739,3.3694,3.3739,3.3664,3.3709,3.3679,3.3664,3.3664,3.3604,3.3469,3.3425,3.332,3.3198,3.3013,5.3112,5.2909,5.2198,5.1336,5.0424,5.0576,5.0794,5.093,5.0777,5.0371,4.9763,4.8697,4.7293,4.572,4.5906,4.5686,4.5179,4.5737,4.6177,4.6566,4.7124,4.7496,4.7648,4.7618,4.7534,4.7327,4.6058,4.5348,4.5094,4.3595,4.2878,4.2784,4.1371,3.9817,3.8237,3.8355,3.8524,3.8734,3.9445,3.9926,4.0096,4.0113,4.0113,4.0096,3.8667,3.7898,3.7889,3.6265,3.4928,3.3981,3.275,3.121,2.9381,2.7486,0.0,0.0,0.0,0.0,0.0,0.0,0.0,0.0,0.0,2.2512,2.3713,0.0,2.5211,0.0,2.846,3.0237,3.0574,3.1604,0.0,0.0,3.1857,3.2194,3.2337,3.2655,3.3381,3.4701,3.4748,3.5062,3.6058,3.6122,3.6124,3.6151,3.6091,3.6014,3.6014,3.6122,3.6261,3.6214,3.6291,3.629,3.5966,3.5793,3.556,3.525,3.5174,3.514,3.5026,3.5026,3.5026,3.5026,3.5026,3.5026,3.4981,3.504,3.5011,3.4966,3.4218,3.3499,3.3499,3.3484,3.3422,5.3518,5.3518,5.3518,5.301,5.2232,5.2232,5.2249,5.2181,5.1505,5.098,5.0557,4.9796,4.8815,4.7733,4.8426,4.8545,4.8173,4.8223,4.8257,4.8274,4.8359,4.8392,4.8392,4.8409,4.8193,4.7855,4.6735,4.6024,4.5652,4.4502,4.3927,4.391,4.3166,4.2168,4.1001,4.0629,4.0307,4.0003,4.0062,4.0113,4.0113,4.0113,4.0113,4.0062,3.8667,3.7898,3.7889,3.6394,3.5284,3.4506,3.3732,3.2442,3.0666,2.9093,2.7537,0.0,0.0,0.0,0.0,0.0,0.0,0.0,0.0,0.0,0.0,0.0,2.7653,2.9004,3.068,3.1955,3.2594,3.3406,3.3846,3.3778,3.4103,3.4469,3.4806,3.5043,3.5606,3.6763,3.6971,3.7145,3.7569,3.7469,3.7285,3.7219,3.6817,3.6585,3.6523,3.6492,3.6492,3.6492,3.6492,3.6429,3.6227,3.6148,3.6037,3.5863,3.5752,3.5655,3.5589,3.5537,3.5489,3.5489,3.5489,3.5489,3.5489,3.5489,3.5489,3.54,3.4921,3.4442,3.4382,3.4397,3.4366,5.3518,5.3518,5.3518,5.3518,5.3518,5.3518,5.3518,5.3416,5.2097,5.1354,5.1134,5.0422,5.0101,5.0135,5.0879,5.1234,5.1151,5.0524,5.0185,5.005,4.9441,4.9103,4.9018,4.9001,4.8663,4.799,4.7293,4.6549,4.5855,4.5106,4.4716,4.4581,4.3893,4.3544,4.3511,4.2912,4.2185,4.1339,4.0713,4.0383,4.0383,4.0299,4.0231,4.018,3.8734,3.7898,3.7872,3.6417,3.5295,3.4692,3.4539,3.3626,3.1715,3.0835,2.9768,0.0,2.7689,0.0,0.0,0.0,0.0,0.0,0.0,0.0,0.0,2.8975,3.0448,3.2547,3.2818,3.341,3.468,3.4878,3.5233,3.5938,3.6039,3.6383,3.7212,3.726,3.7614,3.8662,3.9106,3.9301,3.9178,3.9056,3.8694,3.8091,3.7468,3.708,3.68,3.6738,3.6645,3.6538,3.6492,3.6429,3.6305,3.6242,3.6179,3.6053,3.5879,3.572,3.5688,3.5604,3.5489,3.5489,3.5489,3.5489,3.5489,3.5489,3.5489,3.5489,3.5429,3.54,3.54,3.5385,3.5439,5.3518,5.3518,5.3518,5.3518,5.3518,5.3518,5.3518,5.3484,5.3196,5.2367,5.1151,5.0439,5.0101,5.0152,5.0879,5.1234,5.1168,5.1082,5.0693,5.0067,4.9949,4.956,4.9035,4.9018,4.8934,4.8748,4.8037,4.731,4.6566,4.5855,4.5179,4.4615,4.4462,4.4367,4.435,0.0,0.0,0.0,4.1974,4.189,4.1873,4.1288,4.1001,4.095,3.8988,0.0,3.7831,3.6394,3.5532,3.538,3.4827,0.0,0.0,0.0,0.0,0.0,0.0,0.0,0.0,0.0,0.0,0.0,3.2067,3.1292,2.9869,3.1441,3.3254,3.4805,3.5554,3.6068,3.6355,3.6907,3.755,3.8244,3.8345,3.8886,4.0172,4.0316,4.061,4.1295,4.1259,4.1033,4.0606,4.0121,3.9592,3.9062,3.8651,3.8349,3.8125,3.7631,3.7123,3.663,3.6553,3.6507,3.6445,3.646,3.6352,3.6179,3.6053,3.5894,3.572,3.5589,3.5489,3.5489,3.5489,3.5489,3.5489,3.5489,3.5489,3.5489,3.5489,3.5489,3.5489,3.5489,3.5472,5.3518,0.0,5.3518,5.3518,0.0,5.3518,5.3518,5.3467,5.3078,5.208,5.0642,5.0253,5.0304,5.0676,5.142,5.1978,5.2334,5.1944,5.1539,5.115,5.0422,4.9898,4.9526,4.9171,4.9018,4.8984,4.8244,4.753,4.6786,4.6058,4.5314,4.4598,4.4598,4.4598,4.4598,4.4598,4.4012,4.2861,4.2489,4.2303,4.2269,4.1593,4.1204,4.1153,0.0,0.0,0.0,0.0,0.0,0.0,0.0,0.0,0.0,0.0,0.0,3.3393,3.3034,3.2983,3.3339,3.3389,3.3672,3.4416,3.5199,3.4996,3.3508,3.4421,3.569,3.7127,3.7652,3.82,3.8886,3.9309,3.9817,4.0527,4.0612,4.095,4.1593,4.1745,4.1827,4.2082,4.2261,4.2142,4.155,4.1105,4.0526,3.9865,3.9279,3.8801,3.8542,3.8231,3.7754,3.7107,3.6999,3.6861,3.6569,3.6492,3.646,3.6336,3.6163,3.5973,3.5863,3.5668,3.5489,3.5489,3.5489,3.5489,3.5489,3.5489,3.5489,3.5489,3.5489,3.5489,3.5489,3.5489,3.5489,5.3518,5.3518,5.3518,5.3518,5.3518,5.3518,5.3518,5.345,0.0,0.0,0.0,5.0355,5.0625,5.1268,5.1978,5.2672,5.3247,5.2756,5.2435,5.2249,5.0896,5.0219,5.0067,4.934,4.9018,4.8984,4.8392,4.7665,4.6802,4.6177,4.5449,4.4682,4.4598,4.4598,4.4598,4.4598,4.4265,4.3612,4.3014,4.2692,4.2675,4.1982,4.1525,4.1407,3.9377,3.8227,3.8075,3.6732,3.6005,3.6005,3.6005,3.574,3.5148,3.5098,3.5081,3.5098,3.5216,3.5554,3.614,3.6309,3.6445,3.6563,3.7865,3.8379,3.7642,3.7574,3.8132,3.9478,3.958,4.007,4.1288,4.139,4.1677,4.2405,4.2489,4.2523,4.2675,4.2709,4.2733,4.2614,4.2953,4.296,4.239,4.1987,4.1465,4.0672,3.9937,3.9256,3.8882,3.8629,3.8323,3.8,3.7677,3.7277,3.6846,3.6538,3.6507,3.6492,3.6226,3.6037,3.5973,3.5733,3.5569,3.5504,3.5489,3.5489,3.5489,3.5489,3.5489,3.5489,3.5489,3.5489,3.5489,3.5489,3.5489,5.3518,5.3518,5.3518,5.3518,5.3518,5.3518,5.3518,5.3433,5.2655,5.2198,5.1944,5.1336,5.1083,5.1219,5.1961,5.2367,5.252,5.3078,5.2959,0.0,5.1437,5.071,5.0067,4.934,4.9018,4.9001,4.8883,4.8139,4.6921,4.6684,4.5969,4.4767,4.4598,4.4598,4.4598,4.4598,4.4547,4.4418,4.4344,4.4293,4.4276,4.3504,4.2794,4.21,4.062,3.9503,3.8853,3.8024,3.7584,3.7584,3.7584,3.7533,3.7432,3.7398,3.7432,3.7466,3.8024,3.8413,3.8514,3.9089,3.9732,4.0392,4.1187,4.1373,4.0663,4.0578,4.0933,4.1728,4.1762,4.1897,4.2134,4.2185,4.2489,4.3105,4.3267,4.3521,4.4079,4.4192,4.4147,4.4119,4.4034,4.3764,4.3333,4.2808,4.2187,4.153,4.0864,4.0559,4.0023,3.9198,3.8782,3.8939,3.8231,3.7554,3.7261,3.683,3.6553,3.6492,3.632,3.6116,3.6005,3.5799,3.5636,3.5537,3.5489,3.5489,3.5489,3.5489,3.5489,3.5489,3.5489,3.5489,3.5489,3.5489,3.5489,5.3518,5.3518,5.3518,5.3518,5.3518,5.3518,5.3518,5.3467,5.3112,5.2706,5.2249,5.1506,5.1405,5.1792,5.1742,5.1928,5.2317,5.2283,5.2063,5.1657,5.0947,5.0422,5.005,4.9357,4.9018,4.9018,4.9018,4.8443,4.7445,4.7005,4.6244,4.5213,4.4818,4.4598,4.4598,4.4598,4.4598,4.4598,4.4598,4.4598,4.4598,4.3826,4.3223,4.2895,4.1474,4.0341,3.9631,3.8886,3.8311,3.7898,3.8278,3.8497,3.8514,3.887,3.9259,3.9665,4.0003,4.0375,4.0764,4.1111,4.161,4.2337,4.2709,4.2963,4.3047,4.2269,4.21,4.2811,4.2895,4.3081,4.347,4.3565,4.3673,4.3995,4.4045,4.4198,4.4513,4.4598,4.4598,4.457,4.4355,4.408,4.3772,4.3218,4.2618,4.1948,4.1388,4.0848,4.0574,3.9982,3.9554,3.9413,3.8677,3.7969,3.7554,3.6938,3.6553,3.6492,3.6336,3.6179,3.6037,3.5831,3.5653,3.5522,3.5489,3.5489,3.5489,3.5489,3.5489,3.5489,3.5489,3.5489,3.5489,3.5489,3.5489,5.3518,5.3518,5.3518,5.3518,5.3518,5.3518,5.3518,5.3518,5.3501,5.3162,5.252,5.1792,5.1775,5.2215,5.1708,5.1674,5.1961,5.1657,5.1386,5.115,5.0439,5.0101,5.0016,4.9357,4.9018,4.9018,4.9018,4.8629,4.7889,4.7327,4.6583,4.5737,4.5128,4.4739,4.4598,4.4598,4.4598,4.4598,4.4598,4.4598,4.4581,4.3995,4.3578,4.3325,4.232,4.1373,4.0603,4.0054,3.9478,3.8971,3.9428,3.9732,3.9749,4.0299,4.0857,4.139,4.161,4.2033,4.2726,4.2838,4.3064,4.3623,4.369,4.3927,4.4412,4.3548,4.3031,4.3572,4.3673,4.3927,4.4412,4.4547,4.4598,4.4598,4.4598,4.4564,4.4598,4.4598,4.4598,4.457,4.4423,4.415,4.3814,4.3399,4.2758,4.198,4.1256,4.0765,4.0558,4.0489,4.0243,3.9767,3.917,3.8523,3.7831,3.7184,3.6738,3.6553,3.6352,3.6179,3.6022,3.5831,3.5671,3.5554,3.5489,3.5489,3.5489,3.5489,3.5489,3.5489,3.5489,3.5489,3.5489,3.5489,3.5489,5.3518,5.3518,5.3518,5.3518,5.3518,5.3518,5.3518,5.3518,5.3518,5.3467,5.3281,5.2553,5.2232,5.2283,5.2232,5.1894,5.1454,5.1928,5.1809,5.1133,5.0439,5.0101,4.9999,4.934,4.9018,4.9018,4.9018,4.8646,4.7973,4.7821,4.7073,4.5855,4.5635,4.5246,4.4699,4.4598,4.4598,4.4598,4.4598,4.4598,4.4598,4.453,4.413,4.3436,4.3274,4.2861,4.2083,4.2033,4.1948,4.1897,4.188,4.1965,4.1965,4.2049,4.2117,4.2236,4.2828,4.3555,4.4276,4.4395,4.4361,4.4496,4.4479,4.453,4.4632,4.4496,4.4412,4.453,4.4513,4.4496,4.4598,4.4598,4.4598,4.4598,4.4598,4.4598,4.4598,4.4598,4.4598,4.4598,4.4412,4.4179,4.386,4.3369,4.2664,4.1606,4.1138,4.0765,4.0558,4.0489,4.0474,4.0274,3.9813,3.92,3.8508,3.7846,3.72,3.6661,3.632,3.6148,3.599,3.5831,3.5638,3.5522,3.5489,3.5489,3.5489,3.5489,3.5489,3.5489,3.5489,3.5489,3.5489,3.5489,3.5489,5.3518,5.3518,5.3518,5.3518,5.3518,5.3518,5.3518,5.3518,5.3518,5.3518,5.3467,5.3145,5.2993,5.2993,5.252,5.2131,5.186,5.1725,5.1251,5.0574,5.0219,4.9864,4.9424,4.9154,4.9018,4.9018,4.9018,4.8818,4.8545,4.8139,4.7348,4.6397,4.5923,4.5551,4.5229,4.4807,4.4598,4.4598,4.4598,4.4598,4.4598,4.4598,4.4462,4.4147,4.4096,4.3741,4.3047,4.2963,4.276,4.2371,4.2709,4.2963,4.2963,4.3386,4.3667,4.3684,4.3927,4.4231,4.4581,4.4598,4.4598,4.4598,4.4993,4.5246,4.528,4.5635,4.5889,4.5788,4.5122,4.4598,4.4632,4.4598,4.4598,4.4598,4.4598,4.4598,4.4598,4.4598,4.4598,4.457,4.444,4.4207,4.3935,4.3295,4.2412,4.1522,4.1104,4.0848,4.0558,4.0489,4.0489,4.0474,4.0243,3.9828,3.9136,3.8169,3.7507,3.7076,3.6597,3.6163,3.6005,3.5831,3.5671,3.5537,3.5504,3.5489,3.5489,3.5489,3.5489,3.5489,3.5489,3.5489,3.5489,3.5489,3.5489,5.3518,5.3518,5.3518,5.3518,5.3518,5.3518,5.3518,5.3518,5.3518,5.3518,5.3518,5.3518,5.3518,5.3416,5.2875,5.252,5.2249,5.1758,5.1116,5.0422,5.0202,4.9813,4.9306,4.9086,4.9018,4.9018,4.9018,4.9001,4.8951,4.8511,4.7834,4.7124,4.6566,4.621,4.5957,4.5263,4.4919,4.4874,4.4733,4.4598,4.4598,4.4598,4.4598,4.4598,4.4598,4.4299,4.3775,4.3741,4.3504,4.3007,4.3453,4.3741,4.3758,4.4265,4.4598,4.4598,4.4598,4.4716,4.4857,4.4891,4.4976,4.5224,4.572,4.6007,4.6109,4.6498,4.6752,4.6684,4.5816,4.5258,4.5224,4.5207,4.5207,4.5224,4.5072,4.4891,4.4936,4.4784,4.4598,4.457,4.4468,4.427,4.3923,4.3174,4.2302,4.154,4.1221,4.0966,4.0608,4.0489,4.0489,4.0489,4.0489,4.0182,3.9567,3.8846,3.8077,3.7382,3.6872,3.6359,3.6096,3.5814,3.5638,3.5504,3.5489,3.5489,3.5489,3.5489,3.5489,3.5489,3.5489,3.5489,3.5489,3.5489,3.5489,5.3518,5.3518,5.3518,5.3518,5.3518,5.3518,5.3518,5.3518,5.3518,5.3518,5.3518,5.3518,5.3518,5.3501,5.3399,5.3027,5.2384,5.2283,5.186,5.1133,5.0507,5.0101,4.9982,4.934,4.9035,4.9103,4.9018,4.9018,4.8984,4.8951,4.8595,4.7872,4.7703,4.7411,4.6752,4.6024,4.5652,4.5602,4.5021,4.4632,4.4615,4.4615,4.4598,4.4598,4.4598,4.4564,4.4513,4.4547,4.4496,4.4479,4.4462,4.4513,4.453,4.4564,4.4598,4.4632,4.4632,4.4953,4.5551,4.5652,4.5906,4.6498,4.665,4.6735,4.6752,4.6921,4.7005,4.6853,4.6819,4.6701,4.6684,4.6498,4.6498,4.6481,4.6007,4.5703,4.5652,4.5089,4.4666,4.4649,4.4575,4.4241,4.3697,4.3019,4.2349,4.1704,4.1288,4.0966,4.0608,4.0489,4.0489,4.0489,4.0459,4.0259,3.9659,3.9213,3.8692,3.8027,3.742,3.6734,3.6196,3.5765,3.5587,3.5504,3.5489,3.5489,3.5489,3.5489,3.5489,3.5489,3.5489,3.5489,3.5489,3.5489,3.5489,5.3518,5.3518,5.3518,5.3518,5.3518,5.3518,5.3518,5.3518,5.3518,5.3518,5.3518,5.3518,5.3518,5.3518,5.3518,5.3348,5.3095,5.3061,5.2655,5.1961,5.1623,5.1268,5.076,5.005,4.9695,4.9644,4.9221,4.9018,4.9018,4.9018,4.8883,4.8578,4.8139,4.7736,4.7428,4.6769,4.6397,4.6312,4.5669,4.5297,4.5246,4.4852,4.4598,4.4598,4.4598,4.4598,4.4598,4.4598,4.4598,4.4598,4.4598,4.4598,4.4598,4.4598,4.4807,4.5229,4.5297,4.5635,4.6278,4.6397,4.6498,4.6769,4.7259,4.7513,4.7597,4.7919,4.8206,4.8189,4.8189,4.8206,4.802,4.7378,4.6786,4.6752,4.6566,4.6397,4.6261,4.5754,4.5297,4.5201,4.4737,4.401,4.3446,4.2881,4.2301,4.1588,4.1221,4.0916,4.0593,4.0489,4.0489,4.0489,4.0489,4.0413,4.0243,3.9721,3.9213,3.8655,3.8047,3.7255,3.6607,3.5942,3.5672,3.5624,3.5594,3.5489,3.5489,3.5489,3.5489,3.5504,3.5504,3.5639,3.5489,3.5714,3.5654,5.3518,5.3518,5.3518,5.3518,5.3518,5.3518,5.3518,5.3518,5.3518,5.3518,5.3518,5.3518,5.3518,5.3518,5.3518,5.3518,5.3518,5.3501,5.3213,5.2689,5.2435,5.2046,5.1522,5.0811,5.0321,4.9999,4.9357,4.9018,4.9018,4.9018,4.9018,4.8951,4.8494,4.8244,4.8125,4.753,4.7158,4.7022,4.643,4.6058,4.5991,4.5568,4.5297,4.5326,4.5326,4.5055,4.4649,4.4598,4.4598,4.4632,4.4835,4.506,4.5292,4.5309,4.5517,4.5974,4.6058,4.638,4.7039,4.7141,4.7259,4.7496,4.7953,4.8274,4.8277,4.8731,4.8968,4.9018,4.9018,4.9018,4.8832,4.8088,4.7513,4.7462,4.731,4.7158,4.7124,4.6498,4.5991,4.5595,4.4988,4.4177,4.3388,4.2912,4.2317,4.1555,4.1303,4.095,4.0662,4.0524,4.0489,4.0489,4.0489,4.0489,4.0397,4.0105,3.9674,3.9146,3.8656,3.7849,3.714,3.6375,3.5896,3.5836,3.5684,3.5564,3.5489,3.5489,3.5519,3.5534,3.5804,3.6013,3.6013,3.6103,3.6088,5.3518,5.3518,5.3518,5.3518,5.3518,5.3518,5.3518,5.3518,5.3518,5.3518,5.3518,5.3518,5.3518,5.3518,5.3518,5.3518,5.3518,5.3518,5.3467,5.3331,5.2723,5.2384,5.2283,5.1572,5.0845,5.0185,4.9407,4.9069,4.9103,4.9052,4.9018,4.9001,4.8968,4.8866,4.8968,4.8257,4.7936,4.7767,4.7192,4.6802,4.6802,4.6667,4.6583,4.6633,4.6616,4.6024,4.4784,4.4733,4.4801,4.4835,4.5348,4.6041,4.6515,4.6599,4.6735,4.6752,4.6786,4.7158,4.777,4.7889,4.8206,4.8629,4.8934,4.89,4.8883,4.8968,4.9018,4.9018,4.9018,4.9018,4.9018,4.8866,4.8781,4.89,4.8274,4.7919,4.7784,4.7259,4.6532,4.5928,4.5425,4.4779,4.386,4.3311,4.2799,4.2234,4.161,4.1174,4.0938,4.0685,4.0505,4.0489,4.0489,4.0489,4.0489,4.0443,4.0043,3.964,3.9191,3.8576,3.7928,3.721,3.6667,3.6465,3.5998,3.5848,3.5504,3.5519,3.5639,3.5729,3.6058,3.6417,3.6552,3.6641,3.6716,5.3518,5.3518,5.3518,5.3518,5.3518,5.3518,5.3518,5.3518,5.3518,5.3518,5.3518,5.3518,5.3518,5.3518,5.3518,5.3518,5.3518,5.3518,5.3518,5.345,5.323,5.3112,5.2959,5.2317,5.1589,5.0845,5.0101,4.9746,4.9661,4.9272,4.9018,4.9018,4.9018,4.9018,4.9001,4.8765,4.8663,4.8578,4.7936,4.7564,4.7513,4.7073,4.6802,4.6786,4.6786,4.6532,4.6172,4.6109,4.6109,4.6104,4.6329,4.6566,4.6752,4.6786,4.7039,4.7496,4.7564,4.7885,4.8528,4.8646,4.8731,4.8951,4.9018,4.9018,4.9018,4.9018,4.9018,4.9018,4.9018,4.9018,4.9018,4.9018,4.9018,4.9001,4.8798,4.8629,4.8528,4.8003,4.7276,4.6616,4.6237,4.5818,4.5319,4.4695,4.4042,4.3422,4.2584,4.1891,4.1519,4.0971,4.0505,4.0489,4.0489,4.0505,4.0489,4.0489,4.0305,3.9994,3.9623,3.928,3.8641,3.8005,3.7455,3.6929,3.6477,3.6133,3.5774,3.5699,3.5908,3.6088,3.6447,3.6761,3.706,3.7255,3.7434,5.3518,5.3518,5.3518,5.3518,5.3518,5.3518,5.3518,5.3518,5.3518,5.3518,5.3518,5.3518,5.3518,5.3518,5.3518,5.3518,5.3518,5.3518,5.3518,5.3518,5.3518,5.3518,5.3399,5.2672,5.2097,5.1572,5.0845,5.0507,5.049,5.0067,4.9695,4.9458,4.9407,4.9255,4.9052,4.9018,4.9018,4.8934,4.8545,4.8325,4.824,4.7851,4.7614,4.7614,4.7614,4.7614,4.7614,4.7614,4.7344,4.6972,4.7039,4.731,4.7564,4.7648,4.7817,4.8173,4.8342,4.8528,4.8951,4.8968,4.9018,4.9018,4.9018,4.9018,4.9018,4.9018,4.9018,4.9018,4.9018,4.9018,4.9018,4.9018,4.9018,4.9018,4.8984,4.9018,4.8934,4.8612,4.802,4.7398,4.7025,4.6649,4.6096,4.5577,4.5049,4.4327,4.35,4.2752,4.2229,4.1535,4.1183,4.0816,4.0628,4.0597,4.0505,4.0489,4.0489,4.0301,4.0029,3.9779,3.9362,3.8594,3.7985,3.7428,3.6926,3.6851,3.6552,3.6462,3.6567,3.6746,3.6956,3.7419,3.7838,3.8182,3.8287,5.3467,5.3467,5.3484,5.3467,5.3518,5.3518,5.3518,5.3518,5.3518,5.3518,5.3518,5.3518,5.3518,5.3518,5.3518,5.3518,5.3518,5.3518,5.3518,5.3518,5.3518,5.3518,5.3399,5.2807,5.2486,5.2283,5.1623,5.1302,5.1268,5.1033,5.0845,5.0202,5.0135,4.9796,4.9306,4.9103,4.9103,4.9001,4.8951,4.8917,4.8917,4.8917,4.8883,4.8866,4.8832,4.8832,4.8781,4.8748,4.8257,4.7242,4.7665,4.824,4.8798,4.8984,4.8866,4.8917,4.8984,4.8951,4.9001,4.9154,4.9171,4.9187,4.9306,4.9137,4.934,4.9424,4.9424,4.939,4.934,4.9289,4.9289,4.9306,4.9272,4.9103,4.9069,4.9018,4.9018,4.8951,4.8578,4.8091,4.7767,4.7399,4.6491,4.5955,4.5424,4.4864,4.4243,4.3614,4.3087,4.243,4.1886,4.1487,4.1155,4.094,4.0924,4.052,4.052,4.0424,4.0232,4.0078,3.9853,3.9193,3.8467,3.7927,3.7554,3.7479,3.7285,3.709,3.7165,3.7419,3.7764,3.8242,3.8571,3.8841,3.8835,5.3127,5.3264,5.3264,5.3382,5.3467,5.3518,5.3518,5.3518,5.3501,5.3467,5.3467,5.3518,5.3467,5.3518,5.3467,5.3518,5.3467,5.3518,5.3518,5.3518,5.3518,5.3518,5.3501,5.3315,5.3162,5.3044,5.2401,5.2012,5.1961,5.1572,5.1166,5.093,5.0896,5.0541,4.9915,4.9796,4.9492,4.9069,4.9035,4.9052,4.9069,4.9086,4.9018,4.9018,4.9052,4.9052,4.9018,4.9018,4.8883,4.8528,4.8578,4.8781,4.9018,4.9052,4.9103,4.9137,4.9086,4.9035,4.9154,4.9526,4.9779,4.9864,5.0219,5.0625,5.0625,5.0625,5.0642,5.0642,5.0642,5.0591,5.0608,5.0543,5.0355,4.9847,4.939,4.9052,4.9018,4.9001,4.89,4.8717,4.8574,4.8202,4.7753,4.7223,4.67,4.6097,4.5205,4.4307,4.3841,4.3113,4.2433,4.2196,4.1863,4.154,4.1232,4.0766,4.0536,4.0505,4.0424,4.0339,4.008,3.9682,3.8998,3.8402,3.8227,3.8138,3.7689,3.733,3.7659,3.8108,3.8272,3.8586,3.8975,3.9239,3.9224,5.2764,5.2972,5.2956,5.3076,5.3246,5.3348,5.3332,5.328,5.3348,5.3314,5.328,5.3246,5.323,5.3246,5.3348,5.3382,5.3382,5.3467,5.3518,5.3518,5.3518,5.3518,5.3501,5.3518,5.3518,5.3467,5.3044,5.2841,5.2739,5.2367,5.2029,5.1725,5.1674,5.1285,5.0608,5.0541,5.0371,5.0033,4.9932,4.9932,4.9932,4.9932,4.9949,4.9949,4.9932,4.9932,4.9949,4.9949,4.9695,4.9187,4.9018,4.9137,4.9424,4.9458,4.9593,4.9864,4.9932,4.9965,4.9999,5.0355,5.0541,5.0625,5.1031,5.1166,5.1183,5.1234,5.1234,5.1134,5.1217,5.1234,5.1234,5.1234,5.1014,5.0591,4.9898,4.9357,4.9069,4.9018,4.9018,4.8987,4.8894,4.8675,4.8436,4.7886,4.7387,4.6726,4.5808,4.5167,4.4585,4.3748,4.3091,4.2884,4.2525,4.2155,4.1986,4.1648,4.1217,4.1058,4.0554,4.0489,4.0248,3.9985,3.9435,3.8906,3.8841,3.8706,3.8302,3.8073,3.8482,3.8796,3.8811,3.8901,3.9224,3.9388,3.9388,5.2307,5.2503,5.2503,5.2661,5.2903,5.3041,5.3041,5.2972,5.3041,5.3125,5.3071,5.2967,5.3151,5.3068,5.3527,5.3464,5.3498,5.3821,5.3839,5.3839,5.3805,5.3721,5.3737,5.3551,5.3518,5.3484,5.3501,5.345,5.3348,5.3365,5.3078,5.2587,5.2435,5.2029,5.1471,5.1319,5.1302,5.1082,5.0963,5.0947,5.0914,5.0947,5.093,5.0898,5.0914,5.0948,5.1031,5.1031,5.0574,4.9323,4.9238,4.9661,5.0152,5.0219,5.0473,5.0913,5.0948,5.0999,5.1151,5.1166,5.1336,5.1352,5.1437,5.1454,5.164,5.1725,5.1708,5.1758,5.1488,5.1657,5.164,5.1505,5.1386,5.1217,5.0659,4.9949,4.9407,4.9072,4.897,4.894,4.8832,4.8532,4.8163,4.7638,4.7084,4.6547,4.5802,4.5316,4.4855,4.427,4.3837,4.367,4.3233,4.2756,4.2648,4.2556,4.2125,4.1735,4.0893,4.0542,4.034,4.003,3.9628,3.932,3.9155,3.9119,3.9104,3.9149,3.9275,3.926,3.914,3.9209,3.9388,3.9388,3.9388,5.1565,5.1895,5.1878,5.2167,5.2642,5.2731,5.2782,5.2885,5.2764,5.3009,5.339,5.333,5.3556,5.4107,5.4189,5.452,5.4529,5.4776,5.5068,5.514,5.4583,5.438,5.4228,5.389,5.3551,5.3518,5.3518,5.3518,5.3518,5.3501,5.3433,5.3264,5.3095,5.2858,5.2181,5.2063,5.1775,5.1352,5.1268,5.1352,5.1369,5.1369,5.1369,5.1337,5.1303,5.1252,5.1202,5.1234,5.1033,5.0796,5.0744,5.0862,5.0947,5.0963,5.1116,5.1302,5.1336,5.1269,5.1352,5.1792,5.2063,5.2114,5.252,5.3027,5.3027,5.2926,5.2942,5.301,5.301,5.2858,5.279,5.2384,5.2147,5.1928,5.142,5.0881,5.0559,4.9586,4.8998,4.8837,4.847,4.8099,4.7836,4.7184,4.6652,4.6195,4.5728,4.5284,4.4946,4.4598,4.4377,4.4163,4.387,4.3371,4.3264,4.3125,4.2725,4.2283,4.15,4.0944,4.0688,4.0281,3.9937,3.9634,3.9358,3.9388,3.9388,3.9388,3.9328,3.9373,3.9388,3.9388,3.9388,3.9388,3.9388,5.0778,5.1118,5.1102,5.1455,5.1842,5.1987,5.2237,5.2534,5.2567,5.2889,5.3353,5.3355,5.3531,5.3913,5.4178,5.444,5.4785,5.5202,5.5488,5.558,5.526,5.5124,5.5074,5.4668,5.4279,5.3687,5.3518,5.3518,5.3518,5.3518,5.3501,5.3518,5.3518,5.3281,5.2942,5.2841,5.2706,5.2452,5.2283,5.2283,5.23,5.2283,5.23,5.2283,5.2283,5.23,5.2334,5.2334,5.2317,5.23,5.2266,5.208,5.1775,5.1742,5.1894,5.2232,5.23,5.2283,5.2435,5.2621,5.2875,5.2841,5.3281,5.3416,5.3518,5.3518,5.3518,5.3518,5.3484,5.3484,5.3484,5.323,5.2892,5.2723,5.2181,5.1726,5.1374,5.0281,4.9276,4.9016,4.8445,4.7886,4.737,4.6722,4.6317,4.5889,4.5437,4.5024,4.4986,4.4706,4.4608,4.4425,4.4271,4.4055,4.3895,4.3648,4.3233,4.2769,4.2151,4.1699,4.1453,4.0915,4.0327,3.994,3.9523,3.9403,3.9388,3.9388,3.9388,3.9388,3.9388,3.9388,3.9388,3.9388,3.9388,5.0018,5.037,5.0354,5.0602,5.0984,5.1286,5.1658,5.2062,5.2371,5.2754,5.3163,5.3181,5.3294,5.351,5.3929,5.4213,5.4795,5.5402,5.6006,5.608,5.5827,5.5709,5.5641,5.5372,5.4849,5.3804,5.3771,5.3771,5.3721,5.3568,5.3518,5.3518,5.3518,5.345,5.3467,5.3501,5.3365,5.3264,5.3247,5.3281,5.3315,5.3315,5.3331,5.3298,5.3281,5.3281,5.3264,5.3298,5.3399,5.3518,5.3518,5.3145,5.2706,5.252,5.2723,5.3416,5.3315,5.3247,5.3213,5.3382,5.3433,5.3518,5.3501,5.3501,5.3518,5.3518,5.3518,5.3518,5.3518,5.3518,5.3501,5.3416,5.3433,5.3331,5.2824,5.2454,5.2051,5.1008,5.0156,4.9259,4.8381,4.7645,4.6939,4.6301,4.5961,4.5614,4.5173,4.4821,4.4799,4.4761,4.4648,4.461,4.444,4.4379,4.4233,4.4156,4.3756,4.3368,4.2845,4.243,4.2068,4.1384,4.074,4.0074,3.9709,3.9612,3.9478,3.9388,3.9388,3.9388,3.9388,3.9388,3.9388,3.9388,3.9433,4.9517,4.9757,4.9757,4.9979,5.0411,5.0984,5.1358,5.1661,5.2085,5.2626,5.3232,5.3162,5.349,5.4048,5.4686,5.5319,5.5886,5.6425,5.6791,5.6727,5.6375,5.6107,5.604,5.5635,5.5132,5.4837,5.4577,5.4395,5.4228,5.3856,5.3771,5.3568,5.3636,5.3653,5.3619,5.3518,5.3568,5.3518,5.3518,5.3518,5.3518,5.3518,5.3518,5.3518,5.3518,5.3518,5.3518,5.3518,5.3518,5.3518,5.3518,5.3416,5.3264,5.323,5.3331,5.345,5.3518,5.3518,5.3518,5.3518,5.3518,5.3518,5.3518,5.3518,5.3518,5.3518,5.3518,5.3518,5.3518,5.3518,5.3518,5.3518,5.3518,5.3433,5.3365,5.3129,5.2758,5.1916,5.0575,4.9473,4.838,4.74,4.6721,4.6056,4.5562,4.5284,4.4949,4.4723,4.4685,4.4648,4.461,4.461,4.4579,4.4564,4.4533,4.4502,4.4295,4.4035,4.3555,4.3069,4.2592,4.1874,4.119,4.0733,4.0292,4.0113,3.9866,3.9657,3.9642,3.9873,3.9657,3.9463,3.9702,3.9948,3.9679,4.9072,4.9291,4.9306,4.9452,4.9827,5.0441,5.0985,5.1477,5.2057,5.2707,5.3179,5.3283,5.3424,5.3922,5.4386,5.5164,5.6076,5.6641,5.6872,5.6816,5.6507,5.634,5.6378,5.5871,5.5858,5.5717,5.5439,5.502,5.486,5.4662,5.441,5.4513,5.4565,5.4465,5.4143,5.411,5.3856,5.367,5.3551,5.3551,5.3551,5.3551,5.3534,5.3534,5.3551,5.3518,5.3518,5.3518,5.3518,5.3518,5.3518,5.3518,5.3551,5.3551,5.3551,5.3568,5.3534,5.3518,5.3518,5.3518,5.3518,5.3518,5.3518,5.3518,5.3518,5.3518,5.3518,5.3518,5.3518,5.3518,5.3518,5.3518,5.3518,5.3518,5.3518,5.3348,5.3009,5.2431,5.1251,4.9756,4.8576,4.7589,4.6664,4.5977,4.5288,4.4911,4.4739,4.4648,4.461,4.461,4.461,4.461,4.461,4.461,4.461,4.461,4.461,4.4388,4.4167,4.3678,4.335,4.2704,4.2166,4.1707,4.1265,4.0898,4.0711,4.0636,4.0502,4.0367,4.0427,4.0457,4.0472,4.0427,4.0187,4.8702,4.8898,4.8914,4.9021,4.9278,5.0056,5.0694,5.1301,5.211,5.2748,5.3199,5.3246,5.3258,5.3481,5.4001,5.4691,5.5556,5.5997,5.6251,5.6313,5.6185,5.6202,5.6297,5.6274,5.6087,5.5967,5.5842,5.5492,5.5305,5.5082,5.5259,5.5248,5.5508,5.5428,5.4921,5.482,5.438,5.416,5.3957,5.3957,5.3957,5.394,5.394,5.3957,5.3957,5.4025,5.4126,5.4143,5.4126,5.411,5.4076,5.4025,5.3974,5.3957,5.3957,5.3907,5.3687,5.3534,5.3518,5.3518,5.3518,5.3518,5.3518,5.3518,5.3518,5.3518,5.3518,5.3518,5.3518,5.3518,5.3518,5.3518,5.3518,5.3518,5.3484,5.3399,5.3076,5.2597,5.2028,5.0607,4.9069,4.799,4.7183,4.6131,4.5468,4.51,4.4925,4.4648,4.461,4.461,4.461,4.461,4.461,4.461,4.461,4.461,4.461,4.4526,4.4358,4.4044,4.3883,4.3713,4.3156,4.2634,4.2383,4.2061,4.182,4.1452,4.1085,4.098,4.1302,4.1317,4.1025,4.0965,4.0861,4.862,4.8661,4.8661,4.8661,4.8887,5.0059,5.0676,5.0922,5.2094,5.2695,5.2833,5.2803,5.2937,5.3277,5.4001,5.4465,5.4867,5.5271,5.5491,5.5531,5.5475,5.5434,5.5531,5.5531,5.5515,5.562,5.5643,5.5747,5.5613,5.5255,5.5227,5.5494,5.5669,5.549,5.5597,5.5581,5.5547,5.5394,5.5343,5.5361,5.5344,5.531,5.531,5.5327,5.531,5.5243,5.5175,5.5158,5.5226,5.5277,5.5361,5.5377,5.5428,5.5446,5.5446,5.5057,5.438,5.3518,5.367,5.3771,5.3771,5.3822,5.3721,5.3568,5.3737,5.3771,5.3754,5.3518,5.3602,5.3721,5.3788,5.3602,5.3551,5.3534,5.3568,5.3416,5.3144,5.2921,5.2319,5.1691,5.0268,4.901,4.7978,4.6808,4.5734,4.5418,4.5087,4.4872,4.4641,4.4656,4.461,4.461,4.461,4.461,4.461,4.461,4.461,4.461,4.4458,4.432,4.4166,4.4065,4.3988,4.3538,4.3301,4.2883,4.234,4.1926,4.1595,4.1647,4.1878,4.1698,4.1392,4.1422,4.1579,4.8495,4.8604,4.8604,4.8604,4.8789,5.0097,5.0697,5.099,5.2113,5.2713,5.2713,5.2713,5.2848,5.3188,5.3655,5.3942,5.4184,5.4539,5.4681,5.4623,5.4565,5.4539,5.4623,5.4681,5.4707,5.4915,5.5189,5.5539,5.5653,5.5935,5.6038,5.6265,5.6485,5.6569,5.6357,5.6342,5.6055,5.5818,5.5647,5.57,5.5681,5.5733,5.5733,5.5733,5.5767,5.5784,5.5784,5.5681,5.5681,5.5681,5.5681,5.5681,5.5681,5.57,5.5683,5.5614,5.5157,5.482,5.4786,5.4735,5.4668,5.4718,5.4718,5.4837,5.4769,5.4702,5.4667,5.4735,5.4769,5.4718,5.4566,5.4346,5.4177,5.4059,5.389,5.3534,5.3331,5.3127,5.2715,5.2123,5.145,5.0209,4.8974,4.7891,4.6881,4.6299,4.5966,4.5657,4.521,4.481,4.4733,4.461,4.461,4.461,4.461,4.461,4.461,4.461,4.461,4.4419,4.432,4.4205,4.4166,4.4065,4.3743,4.3279,4.2794,4.261,4.2455,4.2447,4.2491,4.2327,4.2192,4.2417,4.2476,4.8301,4.8537,4.8578,4.8604,4.8743,5.0112,5.0697,5.0867,5.2144,5.2713,5.2713,5.2713,5.2803,5.3026,5.3233,5.3481,5.3552,5.3844,5.3915,5.3829,5.377,5.377,5.3915,5.3958,5.4087,5.4285,5.4707,5.5131,5.562,5.6113,5.6553,5.7063,5.7146,5.7271,5.7133,5.7053,5.685,5.6511,5.6427,5.641,5.6376,5.6359,5.6342,5.6325,5.6275,5.6258,5.6258,5.6325,5.6325,5.6359,5.6393,5.6461,5.6444,5.6494,5.6478,5.6461,5.6275,5.6275,5.6072,5.5902,5.5784,5.5681,5.5681,5.5478,5.5546,5.5716,5.5664,5.5495,5.5512,5.5598,5.5598,5.5124,5.4972,5.4735,5.4515,5.3973,5.3566,5.3461,5.3103,5.2416,5.1813,5.1331,5.0155,4.9088,4.8137,4.7332,4.6848,4.6451,4.5904,4.5264,4.5049,4.4957,4.4687,4.4671,4.4641,4.4625,4.4625,4.461,4.461,4.4572,4.4419,4.4381,4.4358,4.4243,4.4089,4.3913,4.354,4.3473,4.3369,4.3184,4.3034,4.312,4.3155,4.3305,4.32,4.7922,4.8328,4.8521,4.8563,4.8712,5.0097,5.0697,5.082,5.2129,5.2698,5.2713,5.2713,5.2713,5.2803,5.2982,5.3115,5.3144,5.3349,5.3437,5.3437,5.3421,5.3393,5.3437,5.3481,5.3612,5.3888,5.4343,5.4765,5.5221,5.5927,5.6564,5.7197,5.7289,5.7517,5.762,5.7594,5.7611,5.7391,5.7408,5.7476,5.7492,5.7509,5.7526,5.7577,5.7645,5.7729,5.7712,5.7543,5.7459,5.7442,5.7408,5.7408,5.734,5.7374,5.7357,5.7357,5.7357,5.7357,5.7222,5.6562,5.5867,5.5732,5.5852,5.6038,5.6105,5.5869,5.5732,5.597,5.6156,5.6004,5.5867,5.5631,5.5632,5.5478,5.519,5.4696,5.4322,5.4028,5.3565,5.2734,5.2102,5.1613,5.0892,4.9712,4.8946,4.8151,4.7249,4.6837,4.6551,4.6003,4.5695,4.5418,4.4964,4.4779,4.4687,4.4656,4.4625,4.461,4.461,4.461,4.4572,4.4534,4.4458,4.4419,4.432,4.432,4.4243,4.3972,4.3754,4.3636,4.3557,4.3423,4.3344,4.3305,4.3305,4.781,4.8133,4.8328,4.8495,4.8712,5.0097,5.0697,5.0928,5.2113,5.2713,5.2713,5.2713,5.2713,5.2713,5.2758,5.2848,5.2848,5.2922,5.2951,5.2951,5.2966,5.2966,5.3011,5.3188,5.3321,5.3671,5.4114,5.4639,5.5155,5.5726,5.6307,5.6834,5.7101,5.7439,5.7662,5.7808,5.7881,5.7881,5.7881,5.7881,5.7881,5.7881,5.7881,5.7881,5.7881,5.7881,5.7848,5.7865,5.7881,5.7881,5.7881,5.7881,5.7881,5.7881,5.7881,5.7881,5.7881,5.7881,5.7881,5.734,5.7087,5.7036,5.707,5.7002,5.6884,5.6985,5.7036,5.707,5.6968,5.685,5.7002,5.6681,5.6376,5.6239,5.5949,5.5469,5.497,5.4603,5.3931,5.302,5.2388,5.1837,5.1067,5.0206,4.9576,4.8885,4.8029,4.7253,4.7028,4.6711,4.6372,4.6049,4.5572,4.528,4.5203,4.4926,4.4671,4.4702,4.4733,4.4733,4.4779,4.4572,4.4534,4.4534,4.4534,4.4458,4.4343,4.4205,4.4065,4.391,4.3714,4.3503,4.3423,4.3344,4.3344,4.7666,4.788,4.8049,4.8286,4.8763,5.0112,5.0697,5.0928,5.2129,5.2713,5.2713,5.2713,5.2713,5.2713,5.2713,5.2713,5.2713,5.2758,5.2713,5.2758,5.2758,5.2713,5.2743,5.2877,5.31,5.3393,5.3899,5.4412,5.4848,5.5507,5.591,5.629,5.6702,5.7046,5.7514,5.7698,5.7808,5.7881,5.7881,5.7881,5.7881,5.7881,5.7881,5.7881,5.7881,5.7881,5.7881,5.7881,5.7881,5.7881,5.7881,5.7881,5.7881,5.7881,5.7881,5.7881,5.7881,5.7881,5.7881,5.7881,5.7881,5.7695,5.7729,5.7763,5.7881,5.7881,5.7662,5.7729,5.7797,5.7865,5.7865,5.7391,5.7065,5.6945,5.672,5.6272,5.5486,5.4978,5.4158,5.3323,5.2709,5.2052,5.1062,5.0224,4.9573,4.9019,4.8537,4.7922,4.7773,4.7434,4.7004,4.6665,4.6296,4.6065,4.5865,4.568,4.5511,4.5449,4.5403,4.508,4.4987,4.4872,4.4671,4.4572,4.4572,4.4572,4.4496,4.4396,4.4243,4.4127,4.3895,4.3699,4.3557,4.3518,4.3384,4.7439,4.7596,4.7639,4.8007,4.8752,5.0112,5.0697,5.0867,5.2098,5.2713,5.2713,5.2713,5.2713,5.2713,5.2713,5.2713,5.2713,5.2713,5.2713,5.2713,5.2713,5.2713,5.2713,5.2803,5.2937,5.3144,5.3568,5.4013,5.4396,5.4931,5.5262,5.5596,5.6095,5.663,5.7269,5.7497,5.7681,5.7845,5.7881,5.7881,5.7881,5.7881,5.7881,5.7881,5.7881,5.7881,5.7881,5.7881,5.7881,5.7881,5.7881,5.7881,5.7881,5.7881,5.7845,5.7862,5.7845,5.7845,5.7881,5.7881,5.7881,5.7881,5.7881,5.7881,5.7881,5.7881,5.7881,5.7881,5.7881,5.7881,5.7865,5.7848,5.7637,5.7442,5.7201,5.67,5.5925,5.527,5.4491,5.3496,5.2868,5.2245,5.1159,5.0178,4.9499,4.9001,4.8774,4.8569,4.8358,4.8112,4.7635,4.7357,4.7034,4.6742,4.6557,4.6496,4.6388,4.6311,4.6095,4.5741,4.5464,4.5311,4.5064,4.4779,4.471,4.4849,4.471,4.4572,4.4419,4.4266,4.4127,4.3934,4.3793,4.3651,4.3518,4.7424,4.7596,4.7596,4.8109,4.8953,4.9965,5.0552,5.0928,5.2036,5.2713,5.2713,5.2713,5.2713,5.2713,5.2713,5.2713,5.2713,5.2713,5.2713,5.2713,5.2713,5.2713,5.2713,5.2713,5.2863,5.31,5.3393,5.364,5.3942,5.4386,5.4707,5.5072,5.5822,5.6582,5.7005,5.7197,5.7327,5.7625,5.7698,5.7735,5.7898,5.7932,5.7966,5.7966,5.7983,5.7949,5.7949,5.7949,5.7881,5.7881,5.7881,5.7881,5.7845,5.7808,5.7698,5.7662,5.7608,5.7514,5.7551,5.7625,5.7772,5.7845,5.7881,5.7881,5.7881,5.7881,5.7881,5.7881,5.7881,5.7881,5.7865,5.7865,5.7741,5.7537,5.7214,5.6689,5.6029,5.5541,5.4875,5.3678,5.2825,5.2177,5.1268,5.0533,4.9812,4.9336,4.9092,4.8727,4.8512,4.8496,4.825,4.805,4.7773,4.7465,4.7234,4.7142,4.6973,4.6819,4.6619,4.6357,4.6111,4.5895,4.5649,4.5403,4.5264,4.5141,4.4818,4.4572,4.4572,4.4458,4.432,4.4127,4.3988,4.3808,4.3651,4.7396,4.751,4.751,4.788,4.8639,4.9704,5.0505,5.1203,5.215,5.2563,5.2563,5.2653,5.2713,5.2713,5.2713,5.2713,5.2713,5.2713,5.2713,5.2713,5.2713,5.2713,5.2713,5.2713,5.2758,5.2966,5.3188,5.3409,5.3524,5.3856,5.4315,5.4937,5.5746,5.6392,5.6849,5.7225,5.7753,5.8112,5.8353,5.8417,5.8588,5.865,5.867,5.8623,5.8524,5.8321,5.822,5.8084,5.7898,5.7898,5.7898,5.7862,5.7772,5.7698,5.7551,5.7476,5.731,5.7214,5.7252,5.7289,5.7439,5.7625,5.7825,5.7881,5.7881,5.7881,5.7881,5.7881,5.7881,5.7881,5.7881,5.7881,5.7735,5.7514,5.7122,5.663,5.6004,5.5491,5.4952,5.3792,5.2995,5.2266,5.1518,5.0859,5.0206,4.9828,4.9466,4.9097,4.8727,4.8635,4.862,4.8435,4.8312,4.805,4.7835,4.7758,4.7573,4.7342,4.7142,4.6957,4.6773,4.6557,4.6296,4.6003,4.5695,4.5326,4.4803,4.4572,4.4695,4.4641,4.4473,4.432,4.4127,4.3988,4.3847,4.7309,4.7309,4.7309,4.7454,4.7925,4.9411,5.0772,5.1957,5.2215,5.2291,5.2306,5.2518,5.2624,5.2669,5.2669,5.2669,5.2713,5.2713,5.2713,5.2713,5.2713,5.2713,5.2713,5.2713,5.2758,5.2803,5.2968,5.3148,5.3162,5.3799,5.4316,5.4875,5.5742,5.6419,5.7034,5.7621,5.8216,5.8528,5.8713,5.8892,5.913,5.9506,5.9536,5.946,5.9282,5.9099,5.8863,5.8507,5.8169,5.8017,5.7932,5.7789,5.7662,5.7588,5.7476,5.7306,5.7042,5.7022,5.7033,5.7066,5.726,5.7547,5.7775,5.785,5.7845,5.7772,5.7735,5.7772,5.7735,5.7808,5.7825,5.7735,5.7625,5.7364,5.7063,5.6469,5.5797,5.523,5.4749,5.4014,5.3439,5.2766,5.1979,5.128,5.0784,5.054,5.0174,4.9697,4.9281,4.8666,4.865,4.8589,4.8527,4.8558,4.8404,4.8189,4.8142,4.7912,4.7788,4.7604,4.7419,4.7234,4.7019,4.6665,4.6049,4.5657,4.5372,4.511,4.4941,4.4895,4.498,4.4588,4.4412,4.4258,4.4104,4.7309,4.7309,4.7309,4.7607,4.825,4.9539,5.0834,5.1941,5.2078,5.2078,5.2063,5.217,5.2307,5.2412,5.2412,5.2518,5.2624,5.2713,5.2713,5.2713,5.2713,5.2713,5.2713,5.2713,5.2713,5.2713,5.2849,5.3095,5.3649,5.4125,5.4928,5.572,5.6045,5.6695,5.7298,5.7822,5.8173,5.8525,5.8733,5.9122,5.9487,5.9795,5.9917,5.9915,5.9937,5.9789,5.9624,5.9066,5.8744,5.8623,5.8022,5.7675,5.7625,5.7327,5.7063,5.6724,5.6741,5.6872,5.6921,5.7282,5.7503,5.7542,5.7833,5.7731,5.7615,5.7536,5.7532,5.7649,5.7603,5.7603,5.7573,5.7448,5.7285,5.6932,5.6641,5.6116,5.5491,5.4973,5.4444,5.3829,5.3277,5.2934,5.2219,5.1852,5.1418,5.1205,5.0913,5.042,4.9835,4.9235,4.885,4.882,4.8604,4.8604,4.8604,4.8435,4.8512,4.8496,4.8296,4.8173,4.8112,4.7942,4.7742,4.7311,4.6665,4.6357,4.6188,4.5911,4.5588,4.5695,4.5757,4.5164,4.468,4.4519,4.435,4.7309,4.7309,4.7309,4.7683,4.8401,4.9404,5.041,5.1226,5.1682,5.1834,5.1834,5.1987,5.2078,5.2139,5.2185,5.2291,5.2503,5.2518,5.2563,5.2713,5.2713,5.2713,5.2713,5.2713,5.2713,5.2713,5.2821,5.3037,5.3883,5.4777,5.5611,5.5875,5.6341,5.6964,5.7355,5.7527,5.7753,5.8189,5.8625,5.9093,5.9556,6.0058,6.0307,6.0466,6.0526,6.0473,6.0469,5.9806,5.9451,5.9325,5.8635,5.8383,5.827,5.7903,5.7473,5.7206,5.7094,5.7024,5.6922,5.708,5.7306,5.7403,5.7488,5.7337,5.7396,5.743,5.7612,5.773,5.7532,5.736,5.7265,5.7148,5.6818,5.6486,5.6132,5.5733,5.5205,5.4697,5.4103,5.3452,5.3055,5.2848,5.2513,5.2236,5.2052,5.1913,5.1636,5.1205,5.0543,4.9835,4.942,4.9235,4.8866,4.8604,4.8604,4.8604,4.8604,4.8604,4.8543,4.8481,4.8604,4.845,4.8096,4.7696,4.725,4.6988,4.6726,4.6557,4.6357,4.6449,4.6434,4.6003,4.5418,4.4818,4.4672,4.7309,4.7309,4.7309,4.7683,4.8327,4.9075,4.9733,5.0287,5.1208,5.1587,5.1587,5.1803,5.1895,5.1926,5.1987,5.2109,5.2276,5.2367,5.2457,5.2669,5.2713,5.2713,5.2713,5.2713,5.2713,5.2713,5.296,5.3437,5.416,5.5131,5.5933,5.5822,5.6457,5.694,5.71,5.7163,5.7355,5.7789,5.8438,5.9076,5.9961,6.0677,6.1235,6.1387,6.1249,6.1026,6.103,6.0646,6.0068,5.9948,5.9638,5.9326,5.8883,5.8547,5.8134,5.7876,5.754,5.7254,5.7048,5.7141,5.7053,5.6961,5.6754,5.6953,5.7237,5.7284,5.7428,5.7544,5.7388,5.7354,5.7336,5.7179,5.6911,5.644,5.5986,5.5398,5.4723,5.4231,5.3714,5.3188,5.2937,5.2758,5.2683,5.2421,5.239,5.2421,5.2283,5.1852,5.1374,5.062,5.0051,4.9697,4.9281,4.8897,4.8604,4.8604,4.8604,4.8604,4.8604,4.8604,4.8604,4.8512,4.8389,4.8081,4.7773,4.7465,4.7204,4.7188,4.7173,4.708,4.7004,4.6773,4.6234,4.5588,4.5087,4.7309,4.7309,4.7309,4.7683,4.8341,4.903,4.9628,5.0226,5.0991,5.1308,5.1308,5.1416,5.1509,5.1695,5.1695,5.1818,5.2063,5.217,5.2306,5.2457,5.2563,5.2669,5.2713,5.2713,5.2744,5.2898,5.3283,5.4099,5.5007,5.5899,5.6532,5.6532,5.681,5.6858,5.6906,5.6891,5.7067,5.7401,5.7809,5.8578,5.9403,6.0206,6.0743,6.1144,6.1206,6.1461,6.1419,6.1094,6.0774,6.0578,5.957,5.8973,5.8437,5.8223,5.7958,5.7686,5.7769,5.7508,5.7312,5.7263,5.7316,5.7258,5.7243,5.726,5.7314,5.7133,5.712,5.7259,5.729,5.7336,5.7291,5.7163,5.6936,5.6379,5.5789,5.5006,5.4279,5.3758,5.3292,5.3071,5.2848,5.2758,5.2713,5.2713,5.2713,5.2683,5.2637,5.2406,5.219,5.159,5.0682,5.0251,4.9774,4.9358,4.8958,4.8712,4.8773,4.865,4.8604,4.8604,4.8604,4.8543,4.8481,4.8496,4.8312,4.7989,4.7912,4.8158,4.8096,4.7819,4.7619,4.7404,4.7157,4.6603,4.6003,4.7309,4.7309,4.7309,4.7519,4.7982,4.8895,4.9479,4.9927,5.081,5.1229,5.1229,5.1229,5.1323,5.1401,5.1448,5.1587,5.1787,5.191,5.2124,5.2306,5.2457,5.2608,5.2669,5.276,5.3006,5.3237,5.4191,5.5099,5.5792,5.6394,5.6779,5.681,5.681,5.681,5.681,5.681,5.6842,5.6971,5.7211,5.7809,5.8639,5.9314,6.006,6.0532,6.0994,6.135,6.1609,6.1337,6.127,6.0936,6.0133,5.9605,5.9186,5.8846,5.8497,5.8257,5.8083,5.7825,5.7539,5.7449,5.7495,5.7306,5.7211,5.7072,5.7072,5.693,5.7113,5.72,5.7071,5.7061,5.6973,5.681,5.6506,5.603,5.5423,5.4692,5.3922,5.3233,5.3026,5.2893,5.2758,5.2713,5.2713,5.2713,5.2713,5.2713,5.2698,5.2698,5.2544,5.2406,5.1544,5.0913,5.0497,4.9897,4.9374,4.9127,4.902,4.8866,4.8696,4.862,4.8635,4.862,4.8589,4.8573,4.8573,4.8512,4.8543,4.8604,4.8604,4.8312,4.8173,4.8065,4.7788,4.7511,4.7004,4.7309,4.7309,4.7309,4.7309,4.7519,4.876,4.9314,4.9554,5.0631,5.1229,5.1229,5.1229,5.1229,5.1229,5.1229,5.1354,5.1526,5.168,5.1895,5.2124,5.2246,5.2412,5.2609,5.2822,5.3361,5.4129,5.5022,5.5515,5.5976,5.6484,5.681,5.681,5.681,5.681,5.681,5.681,5.681,5.6891,5.7019,5.7243,5.7809,5.8397,5.9181,5.9827,6.0345,6.0785,6.1161,6.1424,6.1449,6.1053,6.0478,5.9885,5.9464,5.9021,5.8835,5.8491,5.8187,5.7854,5.7512,5.726,5.7115,5.6891,5.681,5.681,5.6794,5.6908,5.7085,5.7058,5.6886,5.6836,5.6755,5.6659,5.6315,5.5875,5.5207,5.451,5.3748,5.3018,5.2927,5.2821,5.2729,5.2729,5.2713,5.2713,5.2713,5.2713,5.2713,5.2713,5.2683,5.2575,5.2144,5.1744,5.1451,5.0774,4.9989,4.9728,4.9605,4.9204,4.9035,4.882,4.865,4.862,4.8604,4.8604,4.8604,4.8604,4.8604,4.8604,4.8604,4.8604,4.8496,4.8343,4.8296,4.8035,4.7865,4.7309,4.7309,4.7309,4.7309,4.7504,4.8716,4.9299,4.9524,5.0646,5.1229,5.1229,5.1229,5.1229,5.1229,5.1229,5.1261,5.1354,5.1494,5.1587,5.1726,5.2079,5.2261,5.2672,5.3361,5.4237,5.4991,5.5607,5.5961,5.6207,5.6594,5.6779,5.6733,5.6717,5.6717,5.6733,5.6733,5.6686,5.6735,5.686,5.7067,5.7527,5.8104,5.861,5.9225,5.9783,6.0233,6.0591,6.0986,6.0986,6.0717,6.0206,5.958,5.9136,5.8821,5.8548,5.8273,5.7949,5.7715,5.7338,5.7147,5.6923,5.6858,5.681,5.681,5.681,5.681,5.6908,5.6956,5.69,5.7058,5.7043,5.7105,5.6871,5.6201,5.5532,5.4727,5.3882,5.3513,5.3298,5.3052,5.276,5.2744,5.2713,5.2713,5.2713,5.2713,5.2713,5.2713,5.2713,5.2667,5.2637,5.2421,5.219,5.1575,5.0759,5.0528,5.0313,4.982,4.9374,4.9158,4.8912,4.8635,4.8604,4.8604,4.8604,4.8604,4.8604,4.8604,4.8604,4.8604,4.8604,4.8558,4.8558,4.8496,4.825]}]]